[[{"header":{"parameterUnit":"m.s-1","parameterCategory":1,"la1":30.6,"la2":29.2853,"lo1":-89.7004,"lo2":-87.6739,"dy":0.0162,"dx":0.0183,"nx":112,"ny":82,"refTime":"2023-07-28T06:00:00:Z","depth":0,"parameterNumber":2,"parameterNumberName":"U-component_of_WINDS"},"data":[0.0,0.0,0.0,0.0,0.0,0.0,0.0,0.0,0.0,0.0,0.0,0.0,0.0,0.0,0.0,0.0,0.0,0.0,0.0,0.0,0.0,0.0,0.0,0.0,0.0,0.0,0.0,0.0,0.0,0.0,0.0,0.0,0.0,0.0,0.0,0.0,0.0,0.0,0.0,0.0,0.0,0.0,0.0,0.0,0.0,0.0,0.0,0.0,0.0,0.0,0.0,0.0,0.0,0.0,0.0,0.0,0.0,0.0,0.0,0.0,0.0,0.0,0.0,0.0,0.0,0.0,0.0,0.0,0.0,0.0,0.0,0.0,0.0,0.0,0.0,0.0,0.0,0.0,0.0,0.0,0.0,0.0,0.0,0.0,0.0,0.0,0.0,0.0,0.0,0.0,-4.1143,-4.1649,-4.3162,-4.391,-4.3406,-4.3123,-4.2792,-4.2458,0.0,0.0,0.0,0.0,0.0,0.0,0.0,0.0,0.0,0.0,0.0,0.0,0.0,0.0,0.0,0.0,0.0,0.0,0.0,0.0,0.0,0.0,0.0,0.0,0.0,0.0,0.0,0.0,0.0,0.0,0.0,0.0,0.0,0.0,0.0,0.0,0.0,0.0,0.0,0.0,0.0,0.0,0.0,0.0,0.0,0.0,0.0,0.0,0.0,0.0,0.0,0.0,0.0,0.0,0.0,0.0,0.0,0.0,0.0,0.0,0.0,0.0,0.0,0.0,0.0,0.0,0.0,0.0,0.0,0.0,0.0,0.0,0.0,0.0,0.0,0.0,0.0,0.0,0.0,0.0,0.0,0.0,0.0,0.0,0.0,0.0,0.0,0.0,0.0,0.0,0.0,0.0,0.0,0.0,0.0,0.0,0.0,0.0,0.0,0.0,0.0,0.0,0.0,0.0,-4.0782,-4.2134,-4.319,-4.3627,-4.332,-4.2696,-4.2382,-4.2501,0.0,0.0,0.0,0.0,0.0,0.0,0.0,0.0,0.0,0.0,0.0,0.0,0.0,0.0,0.0,0.0,0.0,0.0,0.0,0.0,0.0,0.0,0.0,0.0,0.0,0.0,0.0,0.0,0.0,0.0,0.0,0.0,0.0,0.0,0.0,0.0,0.0,0.0,0.0,0.0,0.0,0.0,0.0,0.0,0.0,0.0,0.0,0.0,0.0,0.0,0.0,0.0,0.0,0.0,0.0,0.0,0.0,0.0,0.0,0.0,0.0,0.0,0.0,0.0,0.0,0.0,0.0,0.0,0.0,0.0,0.0,0.0,0.0,0.0,0.0,0.0,0.0,0.0,0.0,0.0,0.0,0.0,0.0,0.0,0.0,0.0,0.0,0.0,0.0,0.0,0.0,0.0,0.0,0.0,0.0,0.0,0.0,0.0,0.0,0.0,0.0,0.0,0.0,-3.9656,-4.0658,-4.2216,-4.2746,-4.2999,-4.2977,-4.2577,-4.2175,-4.1924,-4.1463,0.0,0.0,0.0,0.0,0.0,0.0,0.0,0.0,0.0,0.0,0.0,0.0,0.0,0.0,0.0,0.0,0.0,0.0,0.0,0.0,0.0,0.0,0.0,0.0,0.0,0.0,0.0,0.0,0.0,0.0,0.0,0.0,0.0,0.0,0.0,0.0,0.0,0.0,0.0,0.0,0.0,0.0,0.0,0.0,0.0,0.0,0.0,0.0,0.0,0.0,0.0,0.0,0.0,0.0,0.0,0.0,0.0,0.0,0.0,0.0,0.0,0.0,0.0,0.0,0.0,0.0,0.0,0.0,0.0,0.0,0.0,0.0,0.0,0.0,0.0,0.0,0.0,0.0,0.0,0.0,0.0,0.0,0.0,0.0,0.0,0.0,0.0,0.0,0.0,0.0,0.0,0.0,0.0,0.0,0.0,0.0,0.0,0.0,0.0,0.0,0.0,0.0,-3.9703,-4.0428,-4.1809,-4.2139,-4.2355,-4.258,-4.2396,-4.2026,-4.1426,-4.1215,0.0,0.0,0.0,0.0,0.0,0.0,0.0,0.0,0.0,0.0,0.0,0.0,0.0,0.0,0.0,0.0,0.0,0.0,0.0,0.0,0.0,0.0,0.0,0.0,0.0,0.0,0.0,0.0,0.0,0.0,0.0,0.0,0.0,0.0,0.0,0.0,0.0,0.0,0.0,0.0,0.0,0.0,0.0,0.0,0.0,0.0,0.0,0.0,0.0,0.0,0.0,0.0,0.0,0.0,0.0,0.0,0.0,0.0,0.0,0.0,0.0,0.0,0.0,0.0,0.0,0.0,0.0,0.0,0.0,0.0,0.0,0.0,0.0,0.0,0.0,0.0,0.0,0.0,0.0,0.0,0.0,0.0,0.0,0.0,0.0,0.0,0.0,0.0,0.0,0.0,0.0,0.0,0.0,0.0,0.0,0.0,0.0,0.0,0.0,0.0,0.0,0.0,-3.9144,-3.9813,-4.0527,-4.1342,-4.1958,-4.2297,-4.2103,-4.1788,-4.1426,-4.1272,0.0,0.0,0.0,0.0,0.0,0.0,0.0,0.0,0.0,0.0,0.0,0.0,0.0,0.0,0.0,0.0,0.0,0.0,0.0,0.0,0.0,0.0,0.0,0.0,0.0,0.0,0.0,0.0,0.0,0.0,0.0,0.0,0.0,0.0,0.0,0.0,0.0,0.0,0.0,0.0,0.0,0.0,0.0,0.0,0.0,0.0,0.0,0.0,0.0,0.0,0.0,0.0,0.0,0.0,0.0,0.0,0.0,0.0,0.0,0.0,0.0,0.0,0.0,0.0,0.0,0.0,0.0,0.0,0.0,0.0,0.0,0.0,0.0,0.0,0.0,0.0,0.0,0.0,0.0,0.0,0.0,0.0,0.0,0.0,0.0,0.0,0.0,0.0,0.0,0.0,0.0,0.0,0.0,0.0,0.0,0.0,0.0,0.0,0.0,0.0,0.0,0.0,-3.851,-3.9166,-4.0383,-4.0799,-4.1414,-4.2404,-4.2287,-4.2019,-4.1719,0.0,0.0,0.0,0.0,0.0,0.0,0.0,0.0,0.0,0.0,0.0,0.0,0.0,0.0,0.0,0.0,0.0,0.0,0.0,0.0,0.0,0.0,0.0,0.0,0.0,0.0,0.0,0.0,0.0,0.0,0.0,0.0,0.0,0.0,0.0,0.0,0.0,0.0,0.0,0.0,0.0,0.0,0.0,0.0,0.0,0.0,0.0,0.0,0.0,0.0,0.0,0.0,0.0,0.0,0.0,0.0,0.0,0.0,0.0,0.0,0.0,0.0,0.0,0.0,0.0,0.0,0.0,0.0,0.0,0.0,0.0,0.0,0.0,0.0,0.0,0.0,0.0,0.0,0.0,0.0,0.0,0.0,0.0,0.0,0.0,0.0,0.0,0.0,0.0,0.0,0.0,0.0,0.0,0.0,0.0,0.0,0.0,0.0,0.0,0.0,0.0,0.0,-3.8225,-3.8627,-3.9423,-4.0745,-4.1343,-4.1991,-4.2817,-4.2744,-4.2537,-4.2194,0.0,0.0,0.0,0.0,0.0,0.0,0.0,0.0,0.0,0.0,0.0,0.0,0.0,0.0,0.0,0.0,0.0,0.0,0.0,0.0,0.0,0.0,0.0,0.0,0.0,0.0,0.0,0.0,0.0,0.0,0.0,0.0,0.0,0.0,0.0,0.0,0.0,0.0,0.0,0.0,0.0,0.0,0.0,0.0,0.0,0.0,0.0,0.0,0.0,0.0,0.0,0.0,0.0,0.0,0.0,0.0,0.0,0.0,0.0,0.0,0.0,0.0,0.0,0.0,0.0,0.0,0.0,0.0,0.0,0.0,0.0,0.0,0.0,0.0,0.0,0.0,0.0,0.0,0.0,0.0,0.0,0.0,0.0,0.0,0.0,0.0,0.0,0.0,0.0,0.0,0.0,0.0,0.0,0.0,0.0,0.0,0.0,0.0,0.0,0.0,0.0,0.0,-3.821,-3.9568,-4.0818,-4.1651,-4.3136,-4.3938,-4.3567,-4.3525,-4.3312,0.0,0.0,0.0,0.0,0.0,0.0,0.0,0.0,0.0,0.0,0.0,0.0,0.0,0.0,0.0,0.0,0.0,0.0,0.0,0.0,0.0,0.0,0.0,0.0,0.0,0.0,0.0,0.0,0.0,0.0,0.0,0.0,0.0,0.0,0.0,0.0,0.0,0.0,0.0,0.0,0.0,0.0,0.0,0.0,0.0,0.0,0.0,0.0,0.0,0.0,0.0,0.0,0.0,0.0,0.0,0.0,0.0,0.0,0.0,0.0,0.0,0.0,0.0,0.0,0.0,0.0,0.0,0.0,0.0,0.0,0.0,0.0,0.0,0.0,0.0,0.0,0.0,0.0,0.0,0.0,0.0,0.0,0.0,0.0,0.0,0.0,0.0,0.0,0.0,0.0,0.0,0.0,0.0,0.0,0.0,0.0,0.0,0.0,0.0,0.0,0.0,0.0,0.0,-3.989,-4.0274,-4.1035,-4.2393,-4.2955,-4.3581,-4.4414,-4.3604,-4.3182,-4.336,0.0,0.0,0.0,0.0,0.0,0.0,0.0,0.0,0.0,0.0,0.0,0.0,0.0,0.0,0.0,0.0,0.0,0.0,0.0,0.0,0.0,0.0,0.0,0.0,0.0,0.0,0.0,0.0,0.0,0.0,0.0,0.0,0.0,0.0,0.0,0.0,0.0,0.0,0.0,0.0,0.0,0.0,0.0,0.0,0.0,0.0,0.0,0.0,0.0,0.0,0.0,0.0,0.0,0.0,0.0,0.0,0.0,0.0,0.0,0.0,0.0,0.0,0.0,0.0,0.0,0.0,0.0,0.0,0.0,0.0,0.0,0.0,0.0,0.0,0.0,0.0,0.0,0.0,0.0,0.0,0.0,0.0,0.0,0.0,0.0,0.0,0.0,0.0,0.0,0.0,0.0,0.0,0.0,0.0,0.0,0.0,0.0,0.0,0.0,0.0,0.0,0.0,-4.0545,-4.1107,-4.1832,-4.2792,-4.3559,-4.4168,-4.45,-4.3905,-4.3441,-4.3276,0.0,0.0,0.0,0.0,0.0,0.0,0.0,0.0,0.0,0.0,0.0,0.0,0.0,0.0,0.0,0.0,0.0,0.0,0.0,0.0,0.0,0.0,0.0,0.0,0.0,0.0,0.0,0.0,0.0,0.0,0.0,0.0,0.0,0.0,0.0,0.0,0.0,0.0,0.0,0.0,0.0,0.0,0.0,0.0,0.0,0.0,0.0,0.0,0.0,0.0,0.0,0.0,0.0,0.0,0.0,0.0,0.0,0.0,0.0,0.0,0.0,0.0,0.0,0.0,0.0,0.0,0.0,0.0,0.0,0.0,0.0,0.0,0.0,0.0,0.0,0.0,0.0,0.0,0.0,0.0,0.0,0.0,0.0,0.0,0.0,0.0,0.0,0.0,0.0,0.0,0.0,0.0,0.0,0.0,0.0,0.0,0.0,0.0,0.0,0.0,0.0,0.0,-4.0673,-4.194,-4.2824,-4.2858,-4.4402,-4.5044,-4.4114,-4.4164,-4.3837,-4.2808,0.0,0.0,0.0,0.0,0.0,0.0,0.0,0.0,0.0,0.0,0.0,0.0,0.0,0.0,0.0,0.0,0.0,0.0,0.0,0.0,0.0,0.0,0.0,0.0,0.0,0.0,0.0,0.0,0.0,0.0,0.0,0.0,0.0,0.0,0.0,0.0,0.0,0.0,0.0,0.0,0.0,0.0,0.0,0.0,0.0,0.0,0.0,0.0,0.0,0.0,0.0,0.0,0.0,0.0,0.0,0.0,0.0,0.0,0.0,0.0,-4.6866,-4.6048,0.0,0.0,0.0,0.0,0.0,0.0,0.0,0.0,0.0,0.0,0.0,0.0,0.0,0.0,0.0,0.0,0.0,0.0,0.0,0.0,0.0,0.0,0.0,0.0,0.0,0.0,0.0,0.0,0.0,0.0,0.0,0.0,0.0,0.0,0.0,0.0,0.0,0.0,0.0,0.0,-4.2003,-4.2225,-4.243,-4.2695,-4.3121,-4.3617,-4.4254,-4.3561,-4.3047,-4.3078,-4.1288,0.0,0.0,0.0,0.0,0.0,0.0,0.0,0.0,0.0,0.0,0.0,0.0,0.0,0.0,0.0,0.0,0.0,0.0,0.0,0.0,0.0,0.0,0.0,0.0,0.0,0.0,0.0,0.0,0.0,0.0,0.0,0.0,0.0,0.0,0.0,0.0,0.0,0.0,0.0,0.0,0.0,0.0,0.0,0.0,0.0,0.0,0.0,0.0,0.0,0.0,0.0,0.0,0.0,0.0,0.0,0.0,0.0,0.0,0.0,-4.6441,-4.5741,0.0,0.0,0.0,0.0,0.0,0.0,0.0,0.0,0.0,0.0,0.0,0.0,0.0,0.0,0.0,0.0,0.0,0.0,0.0,0.0,0.0,0.0,0.0,0.0,0.0,0.0,0.0,0.0,0.0,0.0,0.0,0.0,0.0,0.0,0.0,0.0,0.0,0.0,0.0,0.0,-4.2346,-4.2056,-4.1919,-4.2088,-4.2247,-4.2662,-4.3459,-4.3131,-4.2719,-4.2367,-4.1493,0.0,0.0,0.0,0.0,0.0,0.0,0.0,0.0,0.0,0.0,0.0,0.0,0.0,0.0,0.0,0.0,0.0,0.0,0.0,0.0,0.0,0.0,0.0,0.0,0.0,0.0,0.0,0.0,0.0,0.0,0.0,0.0,0.0,0.0,0.0,0.0,0.0,0.0,0.0,0.0,0.0,0.0,0.0,0.0,0.0,0.0,0.0,0.0,0.0,0.0,0.0,0.0,0.0,-4.7436,-4.736,-4.736,-4.7296,-4.6643,-4.5574,-4.5582,-4.505,-4.4084,-4.3605,0.0,0.0,0.0,0.0,0.0,0.0,0.0,0.0,0.0,0.0,0.0,0.0,0.0,0.0,0.0,0.0,0.0,0.0,0.0,0.0,0.0,0.0,-4.2882,-4.2882,-4.2994,-4.3049,-4.2938,0.0,0.0,0.0,0.0,0.0,0.0,0.0,0.0,0.0,0.0,0.0,-4.2015,-4.1613,-4.1348,-4.1213,-4.1432,-4.1747,-4.2226,-4.2576,-4.2305,-4.122,-4.1559,-4.0759,0.0,0.0,0.0,0.0,0.0,0.0,0.0,0.0,0.0,0.0,0.0,0.0,0.0,0.0,0.0,0.0,0.0,0.0,0.0,0.0,0.0,0.0,0.0,0.0,0.0,0.0,0.0,0.0,0.0,0.0,0.0,0.0,-4.6105,-4.6096,0.0,0.0,0.0,0.0,0.0,0.0,0.0,0.0,0.0,0.0,0.0,0.0,0.0,-4.5835,-4.6583,-4.5948,-4.5984,-4.6672,-4.5965,-4.5621,-4.5621,-4.5323,-4.4991,-4.4662,-4.4202,0.0,-4.3389,-4.3124,0.0,0.0,0.0,0.0,0.0,0.0,0.0,0.0,0.0,0.0,0.0,0.0,0.0,0.0,0.0,0.0,0.0,0.0,0.0,0.0,0.0,0.0,-4.2882,-4.2882,-4.292,-4.2938,-4.2882,-4.305,-4.3178,-4.316,-4.2864,-4.2693,0.0,0.0,0.0,0.0,0.0,0.0,-4.1133,-4.0955,-4.0707,-4.0171,-4.0172,-4.0338,-4.0829,-4.1472,-4.1349,-4.0196,-4.0498,-3.9988,-3.8456,-3.7972,0.0,0.0,0.0,0.0,0.0,0.0,0.0,0.0,0.0,0.0,0.0,0.0,0.0,0.0,0.0,0.0,0.0,0.0,0.0,0.0,0.0,0.0,0.0,0.0,0.0,0.0,0.0,0.0,0.0,-4.6108,-4.6072,-4.5936,-4.5866,-4.5848,0.0,0.0,0.0,0.0,0.0,0.0,0.0,0.0,0.0,-4.5457,-4.54,-4.5532,-4.5874,-4.5489,-4.5468,-4.5812,-4.5468,-4.5297,-4.5297,-4.5151,-4.4838,-4.4355,-4.4046,-4.3642,-4.3178,-4.2975,-4.2882,-4.2882,0.0,0.0,0.0,0.0,-4.2552,-4.2287,-4.2103,-4.1849,-4.1604,-4.1719,0.0,0.0,0.0,0.0,0.0,0.0,0.0,-4.2882,-4.2882,-4.2882,-4.2844,-4.2595,-4.2498,-4.2418,-4.218,-4.218,-4.2302,-4.2577,-4.248,-4.2302,-4.2198,-4.1846,0.0,0.0,0.0,-4.1047,-4.0861,-4.0514,-4.0238,-4.0019,-3.99,-3.9895,-3.9956,-4.0304,-4.0288,-3.9902,-3.991,-3.9386,-3.818,-3.77,-3.7583,0.0,0.0,0.0,0.0,0.0,0.0,0.0,0.0,0.0,0.0,0.0,0.0,0.0,0.0,0.0,0.0,0.0,0.0,0.0,0.0,0.0,0.0,0.0,0.0,0.0,0.0,0.0,0.0,-4.6053,-4.5968,-4.5822,-4.58,-4.58,0.0,0.0,0.0,0.0,0.0,0.0,-4.5586,-4.5586,-4.5513,-4.54,-4.54,-4.5361,-4.5297,-4.5297,-4.5297,-4.5297,-4.5297,-4.5297,-4.5297,-4.5151,-4.4789,-4.4242,-4.3986,-4.3575,-4.3049,-4.2938,-4.2882,-4.2882,-4.2882,-4.2882,-4.2882,-4.2747,-4.253,-4.2287,-4.2061,-4.1805,-4.1648,-4.1762,-4.1892,-4.2061,-4.2287,0.0,0.0,0.0,0.0,-4.2882,-4.275,-4.2806,-4.2788,-4.2338,-4.2198,-4.2115,-4.1743,-4.1569,-4.1613,-4.1931,-4.1931,-4.176,-4.1525,-4.1303,0.0,-4.1303,-4.0926,-4.0628,-4.058,-4.0188,-3.9951,-3.9967,-3.983,-3.9671,-3.945,-3.9462,-3.9479,-3.96,-3.9552,-3.8963,-3.7876,-3.7642,-3.748,-3.748,0.0,0.0,0.0,0.0,0.0,0.0,0.0,0.0,0.0,0.0,0.0,0.0,0.0,0.0,0.0,0.0,0.0,0.0,0.0,0.0,0.0,0.0,0.0,0.0,0.0,0.0,0.0,0.0,0.0,-4.5814,-4.58,0.0,0.0,0.0,0.0,-4.569,-4.5693,-4.5676,-4.5603,-4.555,-4.5457,-4.54,-4.54,-4.5359,-4.5297,-4.5297,-4.5297,-4.5297,-4.5297,-4.5297,-4.5297,-4.4695,-4.4308,-4.4087,-4.3493,-4.3123,-4.29,-4.2882,-4.2882,-4.2882,-4.2882,-4.2882,-4.2882,-4.2882,-4.2631,-4.2287,-4.2287,-4.1995,-4.1604,-4.1604,-4.1909,-4.2328,-4.253,-4.2709,0.0,0.0,-4.2882,-4.2806,-4.2338,-4.2555,-4.2788,-4.2338,-4.2198,-4.2198,-4.2157,-4.1803,-4.1481,-4.1525,-4.1185,-4.1019,-4.1455,0.0,-4.0303,-4.0754,-4.0451,-4.007,-3.9935,-4.0036,-3.9967,-3.9571,-3.9637,-3.9601,-3.9342,-3.9308,-3.9132,-3.8764,-3.9226,-3.8921,-3.7571,-3.7539,-3.748,-3.748,-3.748,0.0,0.0,0.0,0.0,0.0,0.0,0.0,0.0,0.0,0.0,0.0,0.0,0.0,0.0,0.0,0.0,0.0,0.0,0.0,0.0,0.0,0.0,0.0,0.0,0.0,0.0,0.0,0.0,-4.5814,-4.58,0.0,-4.5795,-4.5765,-4.5719,-4.5709,-4.5657,-4.5622,-4.5586,-4.5568,-4.5513,-4.54,-4.54,-4.538,-4.5297,-4.5297,-4.5297,-4.5297,-4.5297,-4.5194,-4.4957,-4.472,-4.4337,-4.3881,-4.3523,-4.3267,-4.3012,-4.2938,-4.2882,-4.2882,-4.2882,-4.2882,-4.2844,-4.2631,-4.2432,-4.2246,-4.1934,-4.1736,-4.1604,-4.1604,-4.1805,-4.2061,-4.2145,-4.2192,-4.2315,-4.2613,-4.2555,-4.2418,-4.2239,-4.232,-4.2239,-4.1499,-4.1293,-4.1248,-4.0926,-4.0707,-4.0611,-4.0611,-4.0707,-4.0754,-4.0611,-4.0303,-4.0171,-4.0303,-4.0121,-3.9935,-3.9901,-3.978,-3.964,-3.9501,-3.9481,-3.9412,-3.9325,-3.9308,-3.9132,-3.8731,-3.8633,-3.8238,-3.7555,-3.748,-3.748,-3.748,-3.748,-3.748,0.0,0.0,0.0,0.0,0.0,0.0,0.0,0.0,0.0,0.0,0.0,0.0,0.0,0.0,0.0,0.0,0.0,0.0,0.0,0.0,0.0,0.0,0.0,0.0,0.0,-4.5958,-4.5891,-4.5814,-4.58,-4.5786,-4.5765,-4.5715,-4.5684,-4.5657,-4.5622,-4.5586,-4.5586,-4.5586,-4.555,-4.54,-4.54,-4.538,-4.5297,-4.5297,-4.5297,-4.5297,-4.5297,-4.5109,-4.4751,-4.4624,-4.4252,-4.3707,-4.3474,-4.3232,-4.3049,-4.2938,-4.2882,-4.2882,-4.2882,-4.2882,-4.2844,-4.2512,-4.2369,-4.2246,-4.178,-4.1604,-4.1604,-4.1692,-4.1805,-4.1934,-4.2019,-4.1941,-4.1881,-4.2251,-4.2133,-4.1888,-4.176,-4.1864,-4.176,-4.0972,-4.0802,-4.0707,-4.0385,-4.0221,-4.0087,-4.0037,-4.0303,-4.0402,-4.0121,-4.002,-3.9986,-4.007,-3.9935,-3.9833,-3.9833,-3.9642,-3.9501,-3.9448,-3.9152,-3.9011,-3.9011,-3.9018,-3.8809,-3.831,-3.8212,-3.7982,-3.7539,-3.748,-3.748,-3.748,-3.748,-3.748,-3.748,0.0,0.0,0.0,0.0,0.0,0.0,0.0,0.0,0.0,0.0,0.0,0.0,0.0,0.0,0.0,0.0,0.0,0.0,0.0,0.0,0.0,0.0,0.0,-4.5997,-4.5873,-4.58,-4.58,-4.58,-4.5771,-4.5715,-4.57,-4.5668,-4.5622,-4.5586,-4.5586,-4.5586,-4.5586,-4.555,-4.54,-4.54,-4.538,-4.5297,-4.5297,-4.5297,-4.5297,-4.5297,-4.5065,-4.4676,-4.4402,-4.4004,-4.3471,-4.3196,-4.3012,-4.2882,-4.2882,-4.2882,-4.2882,-4.2882,-4.2882,-4.2862,-4.267,-4.245,-4.2205,-4.178,-4.1604,-4.1648,-4.1849,-4.1892,-4.1917,-4.2205,-4.1984,-4.1692,-4.1839,-4.1604,-4.1213,-4.0879,-4.1139,-4.1348,-4.0896,-4.0802,-4.0802,-4.0802,-4.0451,-4.0087,-3.9952,-3.9901,-3.9952,-4.0087,-3.9884,-3.9781,-4.0037,-3.9884,0.0,-3.9677,-3.959,-3.9432,-3.9325,-3.8767,-3.8417,-3.84,-3.84,-3.8124,-3.7556,-3.8051,-3.8107,-3.7539,-3.748,-3.748,-3.748,-3.748,-3.748,-3.748,0.0,0.0,0.0,0.0,0.0,0.0,0.0,0.0,0.0,0.0,0.0,0.0,0.0,0.0,0.0,0.0,0.0,0.0,0.0,0.0,0.0,-4.5933,-4.5848,-4.5848,-4.5808,-4.58,-4.58,-4.5805,-4.5761,-4.5715,-4.5703,-4.5673,-4.5622,-4.5586,-4.5586,-4.5586,-4.5586,-4.555,-4.54,-4.54,-4.538,-4.5297,-4.5297,-4.5297,-4.5297,-4.5,-4.4695,-4.4383,-4.3924,-4.3523,-4.3196,-4.3013,-4.2938,-4.2882,-4.2882,-4.2882,-4.29,-4.2747,-4.267,-4.2631,-4.2251,-4.1977,-4.178,-4.1648,-4.1604,-4.1604,-4.1675,-4.1631,-4.1613,-4.1917,-4.1445,-4.0908,-4.1561,-4.1276,-4.0767,-4.0672,-4.0832,-4.0879,-4.0385,-4.0303,-4.0303,-4.0303,-4.0171,-4.0087,-3.9952,-3.9833,-3.9781,-3.9781,-3.9729,-3.9729,-3.9781,-3.9677,-3.9537,-3.9537,-3.9432,-3.9325,-3.9325,-3.9169,-3.8804,-3.8231,-3.7945,-3.7697,-3.7498,-3.7648,-3.7642,-3.7539,-3.748,-3.748,-3.748,-3.748,-3.748,0.0,0.0,0.0,0.0,0.0,0.0,0.0,0.0,0.0,0.0,0.0,0.0,0.0,0.0,0.0,0.0,0.0,0.0,0.0,0.0,0.0,0.0,-4.588,-4.5805,-4.5805,-4.58,-4.58,-4.58,-4.5791,-4.5765,-4.5715,-4.5706,-4.5657,-4.5622,-4.5586,-4.5586,-4.5586,-4.5568,-4.5513,-4.54,-4.54,-4.538,-4.5297,-4.5297,-4.5297,-4.5297,-4.491,-4.4572,-4.4194,-4.3767,-4.3389,-4.2994,-4.2938,-4.2882,-4.2882,-4.2882,-4.2882,0.0,0.0,0.0,0.0,0.0,-4.1762,-4.1604,-4.1604,-4.1604,-4.1604,-4.1604,-4.1453,-4.1255,-4.1463,-4.0896,-4.0336,-4.0896,-4.0611,-4.0137,-4.022,-4.0286,-4.0286,-4.002,-3.9918,-3.9918,-3.9918,-3.9918,-3.9884,-3.9746,-3.9694,0.0,-3.952,-3.952,-3.9573,-3.9677,-3.9537,-3.9448,-3.9501,-3.9272,-3.9094,-3.9094,-3.886,-3.8502,-3.8084,-3.7673,0.0,0.0,0.0,-3.7504,-3.748,-3.748,0.0,0.0,0.0,-3.7547,-3.7923,0.0,0.0,0.0,-3.9147,-3.9734,0.0,0.0,0.0,0.0,0.0,0.0,0.0,0.0,0.0,0.0,0.0,0.0,0.0,0.0,0.0,0.0,-4.5827,-4.5781,-4.5781,-4.5791,-4.5786,-4.5786,-4.5795,-4.5785,-4.57,-4.5706,-4.5657,-4.5603,-4.5586,-4.5586,-4.5586,-4.555,0.0,0.0,0.0,-4.5378,-4.5297,-4.5297,-4.5297,-4.5256,-4.491,-4.4501,-4.4087,-4.3754,-4.3355,-4.2882,-4.2882,-4.2882,-4.2862,-4.2862,-4.2844,-4.2768,-4.2631,-4.253,-4.245,-4.2019,-4.1762,-4.1604,-4.1604,0.0,0.0,-4.1542,-4.1209,-4.0884,-4.0931,-4.0419,-3.9849,-4.0037,-3.9781,-3.9554,-3.9642,-3.9677,-3.9677,-3.9677,-3.9677,-3.9677,-3.9677,-3.9677,-3.9677,-3.9554,-3.9501,-3.9448,-3.9325,-3.9272,-3.9379,-3.9625,-3.9415,-3.9272,-3.9395,-3.904,-3.875,-3.875,0.0,0.0,-3.7886,-3.7684,-3.7552,-3.7524,-3.7526,-3.751,-3.7524,-3.748,-3.7405,-3.7329,-3.7134,-3.7402,-3.8168,-3.765,-3.7843,-3.8666,-3.9723,-4.0276,0.0,0.0,0.0,0.0,0.0,0.0,0.0,0.0,0.0,0.0,0.0,0.0,0.0,0.0,0.0,-4.5757,-4.5746,-4.5715,-4.5715,-4.5731,-4.5712,-4.5712,-4.5719,-4.5706,-4.569,-4.5657,-4.5603,-4.5586,-4.5586,-4.5586,-4.5586,-4.555,-4.5476,-4.54,-4.54,-4.5378,-4.5297,-4.5297,-4.5254,-4.5125,-4.4527,0.0,-4.3924,-4.3336,-4.2995,-4.2882,-4.2882,-4.2824,-4.2649,-4.2649,-4.2414,-4.2127,-4.2269,-4.2121,-4.1762,-4.1675,-4.1648,-4.1604,-4.1604,-4.1311,-4.0967,-4.11,-4.0645,-4.0171,-4.0417,-3.9986,0.0,-3.9849,-3.9746,-3.9501,-3.9537,-3.9642,-3.9677,-3.9677,-3.9677,-3.9677,-3.9677,-3.9677,-3.9677,-3.9554,-3.9501,-3.9448,-3.9325,-3.9272,-3.9325,-3.9379,-3.9094,-3.8914,-3.8914,-3.8655,-3.8504,-3.8504,-3.8391,-3.8205,-3.7943,-3.7854,-3.7754,-3.7524,-3.7492,-3.7492,-3.748,-3.7329,-3.6982,-3.6368,-3.6212,-3.6152,-3.6261,-3.703,-3.7714,-3.8361,-3.8925,-3.9395,0.0,0.0,0.0,0.0,0.0,0.0,0.0,0.0,0.0,0.0,0.0,-4.6065,-4.5914,0.0,-4.5814,-4.5719,-4.5687,-4.5687,-4.5687,-4.5687,-4.5703,-4.57,-4.5706,-4.5693,-4.5693,-4.564,-4.5586,-4.5586,-4.5568,-4.555,-4.555,-4.5495,-4.5438,-4.54,-4.5379,-4.5297,-4.5192,-4.5192,-4.5125,-4.4991,-4.4402,-4.4035,-4.3881,-4.3286,-4.2938,-4.2882,-4.2882,-4.2786,-4.2609,-4.249,-4.2228,-4.1917,-4.2061,-4.1892,-4.1604,-4.1604,-4.1604,-4.1604,-4.1604,-4.1178,-4.0654,-4.0908,-4.05,-3.9935,-4.0104,-3.9764,-3.9325,-3.9537,-3.9484,-3.9379,-3.9379,-3.9432,-3.9468,-3.9468,-3.9468,-3.9468,-3.9468,-3.9468,-3.9484,-3.9432,-3.9255,-3.9148,-3.904,-3.8947,-3.8892,-3.904,-3.8821,-3.86,-3.86,-3.8319,-3.8148,-3.8148,-3.8049,-3.7876,-3.7743,-3.761,-3.7433,-3.7241,-3.7241,-3.7241,-3.7241,-3.7165,-3.6754,-3.5993,-3.5834,-3.5914,-3.6178,-3.6421,-3.7095,-3.8091,-3.8426,-3.9139,0.0,0.0,0.0,0.0,0.0,0.0,0.0,-4.5983,-4.6066,-4.6066,-4.6102,-4.6102,-4.5953,-4.5886,-4.5841,-4.5719,-4.569,-4.5693,-4.5693,-4.5693,-4.5673,-4.5684,-4.569,-4.5693,-4.5693,-4.564,-4.5586,-4.5586,-4.555,-4.5495,-4.5495,-4.5438,-4.5398,-4.5398,-4.5338,-4.5254,-4.5103,-4.5103,-4.5014,-4.4846,-4.4327,-4.398,-4.3818,-4.3304,-4.2994,-4.2862,-4.2729,-4.2613,-4.2432,-4.2246,-4.2037,-4.1849,-4.1849,-4.1719,-4.1604,-4.1604,-4.1604,-4.1604,-4.1604,-4.1052,-4.0427,-4.0745,-4.0319,-3.9798,-3.9798,-3.9537,-3.9272,-3.9272,-3.9272,-3.9272,-3.9272,-3.9172,-3.9073,-3.9073,-3.8957,-3.8788,-3.8788,-3.8735,-3.8735,-3.8735,-3.8504,-3.8324,-3.8324,-3.8066,-3.8051,-3.8662,-3.8488,-3.8278,-3.8278,-3.8017,-3.7844,-3.7844,-3.7567,-3.7405,-3.7421,-3.727,-3.7089,-3.7015,-3.7015,-3.7015,-3.7015,-3.68,-3.6399,-3.5657,-3.5305,-3.5451,-3.6141,-3.574,-3.6191,-3.7553,-3.7947,-3.8987,-4.4264,-4.5012,-4.5565,-4.5746,-4.5746,-4.5727,0.0,-4.588,-4.5929,-4.6003,-4.5975,-4.5947,-4.5986,-4.5841,-4.5733,-4.5786,-4.5684,-4.5603,-4.5603,-4.5603,-4.5603,-4.5603,-4.5603,-4.5603,-4.5603,-4.5603,-4.5586,-4.5586,-4.555,-4.5495,-4.5495,-4.5438,-4.5398,-4.5398,-4.5338,-4.5254,-4.5103,-4.5103,-4.4967,-4.4738,-4.4173,-4.3836,-4.3712,-4.3178,-4.2824,-4.2609,-4.2169,-4.2002,-4.1959,-4.1762,-4.1648,-4.1648,-4.1648,-4.1604,-4.1604,-4.1604,-4.1604,-4.1604,-4.1604,-4.1082,-4.038,-4.0178,-3.9784,-3.9379,-3.9379,-3.9325,-3.9272,-3.9272,-3.9272,-3.9272,-3.9272,-3.8808,-3.8328,-3.8328,-3.7659,-3.6973,-3.6973,-3.6816,-3.6657,-3.6657,-3.6604,-3.6604,-3.6604,-3.6303,-3.6612,-3.8197,-3.8205,-3.7943,-3.7943,-3.7743,-3.7524,-3.7524,-3.7389,-3.721,-3.706,-3.706,-3.7015,-3.7015,-3.7015,-3.7015,-3.7015,-3.618,-3.5449,-3.4728,-3.3891,-3.3688,-3.4224,-3.454,-3.5329,-3.6615,-3.74,-3.8428,-4.2633,-4.4287,-4.5626,-4.5113,-4.5404,-4.5794,-4.5814,-4.5848,-4.5917,-4.5991,-4.5975,-4.5966,-4.5997,-4.5933,-4.5866,-4.5859,-4.5794,-4.5731,-4.5731,-4.5654,-4.5586,-4.5586,-4.5586,-4.5586,-4.5586,-4.5586,-4.5586,-4.5531,-4.5476,-4.5438,-4.5438,-4.5379,-4.5317,-4.5213,-4.5192,-4.508,-4.487,-4.487,-4.477,-4.4578,-4.421,-4.3836,-4.3526,-4.3142,-4.275,-4.2409,-4.2044,-4.1874,-4.1874,-4.1675,-4.1604,-4.1604,-4.1515,-4.1471,-4.1471,-4.1471,-4.155,-4.1593,-4.1395,-4.0731,-3.9834,-3.9697,-3.9239,-3.8782,-3.8782,-3.8782,-3.8782,-3.8782,-3.8472,-3.8128,-3.8128,-3.7605,-3.7081,-3.7081,-3.6747,-3.6548,-3.6983,-3.6662,-3.6173,-3.5808,-3.59,-3.6007,-3.6007,-3.5735,-3.5792,-3.6566,-3.6883,-3.7165,-3.7637,-3.7449,-3.7285,-3.7241,-3.7105,-3.6984,-3.6862,-3.68,-3.68,-3.6677,-3.6274,-3.607,-3.607,-3.5305,-3.4499,-3.3768,-3.3422,-3.3248,-3.343,-3.3922,-3.4612,-3.5459,-3.669,-3.7587,-4.1932,-4.3636,-4.4949,-4.4288,-4.4827,-4.5519,-4.5492,-4.5693,-4.5905,-4.596,-4.5997,-4.6037,-4.6047,-4.6047,-4.6008,-4.5969,-4.5669,-4.5454,-4.5446,-4.5349,-4.5271,-4.5257,-4.5451,-4.5586,-4.5586,-4.5586,-4.5531,-4.5476,-4.5438,-4.54,-4.5398,-4.5338,-4.5254,-4.5148,-4.5125,-4.4991,-4.4764,-4.4738,-4.4632,-4.4515,-4.4229,-4.3855,-4.3387,-4.2903,-4.2516,-4.2205,-4.1934,-4.1805,-4.1762,-4.1587,-4.1498,-4.1498,-4.1363,-4.1363,-4.1318,-4.1335,-4.137,-4.144,-4.1224,-4.037,-3.9344,-3.896,-3.8657,-3.8391,-3.8391,-3.8262,-3.8084,-3.8084,-3.7566,-3.7053,-3.7053,-3.6534,-3.6015,-3.6015,-3.5801,-3.5699,-3.6198,-3.5845,-3.531,-3.4814,-3.4936,-3.509,-3.5036,-3.4904,-3.4833,-3.4951,-3.5408,-3.5991,-3.6758,-3.6877,-3.6886,-3.6907,-3.6938,-3.6739,-3.6383,-3.6321,-3.6196,-3.5943,-3.54,-3.5124,-3.5124,-3.438,-3.3768,-3.3213,-3.303,-3.2994,-3.3139,-3.3661,-3.418,-3.4841,-3.6046,-3.6624,-4.3002,-4.3312,-4.3389,-4.3416,-4.4027,-4.4634,-4.464,-4.5286,-4.5887,-4.5905,-4.6008,-4.6115,-4.6169,-4.6137,-4.6098,-4.6098,-4.5278,-4.4602,-4.455,-4.4529,-4.4491,-4.4352,-4.5086,-4.5586,-4.5586,-4.5531,-4.5476,-4.5419,-4.54,-4.5398,-4.5398,-4.5338,-4.5297,-4.5297,-4.517,-4.5014,-4.4914,-4.4745,-4.4632,-4.4515,-4.4229,-4.3855,-4.3371,-4.236,-4.1917,-4.1874,-4.1675,-4.1515,-4.1426,-4.1426,-4.1318,-4.1209,-4.1209,-4.1209,-4.1209,-4.1123,-4.1117,-4.1076,-4.0972,-4.0172,-3.9008,-3.79,-3.7958,-3.8391,-3.8391,-3.789,-3.7361,-3.7361,-3.6875,-3.634,-3.634,-3.5805,-3.5218,-3.5218,-3.4478,-3.3758,-3.3774,-3.3582,-3.3372,-3.334,-3.3356,-3.3319,-3.3212,-3.3175,-3.3341,-3.3873,-3.3982,-3.4304,-3.5153,-3.5712,-3.6206,-3.6646,-3.6723,-3.6383,-3.5529,-3.5464,-3.5124,-3.438,-3.438,-3.4298,-3.4298,-3.363,-3.3213,-3.3213,-3.2574,-3.254,-3.3139,-3.3661,-3.418,-3.4841,-3.5438,-3.571,-4.147,-4.2323,-4.3169,-4.2544,-4.3144,-4.3848,-4.3763,-4.3993,-4.4234,-4.425,-4.4773,-4.5265,-4.5332,-4.5325,-4.5323,-4.5367,-4.4533,-4.3864,-4.383,-4.4219,-4.4481,-4.4438,-4.5115,-4.5568,-4.5476,-4.5495,-4.5457,-4.54,-4.54,-4.5398,-4.5338,-4.5317,-4.5256,-4.5113,-4.5076,-4.4914,-4.4631,-4.4595,-4.4524,-4.4487,-4.3772,-4.3176,-4.2659,-4.2008,-4.1675,-4.1675,-4.156,-4.1426,-4.138,-4.1318,-4.1255,-4.1209,-4.1152,-4.1123,-4.1059,-4.0549,-4.0368,-4.0417,-4.0788,-4.0138,-3.8994,-3.7861,-3.7214,-3.689,-3.7026,-3.6565,-3.6047,-3.6047,-3.5537,-3.4978,-3.4978,-3.4468,-3.3958,-3.3958,-3.3678,-3.345,-3.345,-3.3277,-3.3102,-3.3018,-3.3011,-3.3005,-3.2951,-3.2951,-3.3029,-3.3193,-3.3989,-3.4644,-3.4836,-3.4629,-3.4638,-3.5122,-3.4663,-3.436,-3.447,-3.4365,-3.4163,-3.3945,-3.3492,-3.3241,-3.3241,-3.2561,-3.2141,-3.2141,-3.195,-3.1924,-3.2112,-3.3078,-3.3641,-3.3856,-3.5009,-3.5399,-4.054,-4.135,-4.2196,-4.1641,-4.2241,-4.2946,-4.2912,-4.3144,-4.338,-4.3422,-4.3906,-4.4331,-4.4454,-4.4454,-4.4455,-4.4518,-4.3736,-4.3095,-4.3072,-4.3432,-4.3804,-4.4085,-4.4761,-4.5288,-4.549,-4.5494,-4.5438,-4.538,-4.536,-4.5338,-4.5297,-4.5314,-4.5249,-4.5103,-4.5033,-4.489,-4.4617,-4.4513,-4.4383,-4.4199,-4.3403,-4.2755,-4.2266,-4.177,-4.1515,-4.1515,-4.1363,-4.1318,-4.1307,-4.1198,-4.1134,-4.1088,-4.1029,-4.1047,-4.0935,-4.0269,-3.9834,-3.9682,-4.0595,-4.0062,-3.8804,-3.7815,-3.6878,-3.6058,-3.5875,-3.5417,-3.4999,-3.4999,-3.4494,-3.3941,-3.3941,-3.3571,-3.3256,-3.3303,-3.3234,-3.3165,-3.3165,-3.3112,-3.2973,-3.2926,-3.292,-3.2897,-3.2843,-3.2773,-3.2718,-3.2718,-3.3193,-3.371,-3.3971,-3.3381,-3.3121,-3.3602,-3.315,-3.2939,-3.3164,-3.3069,-3.296,-3.2918,-3.2547,-3.2286,-3.2286,-3.189,-3.1609,-3.1609,-3.1609,-3.1609,-3.1609,-3.2541,-3.3101,-3.3314,-3.446,-3.5035,-4.0339,-4.0485,-4.0615,-4.0742,-4.135,-4.195,-4.2072,-4.2651,-4.3206,-4.3347,-4.3343,-4.3396,-4.3595,-4.3572,-4.3554,-4.3629,-4.2904,-4.2307,-4.2242,-4.2265,-4.2578,-4.3316,-4.4059,-4.4819,-4.5607,-4.5526,-4.5381,-4.5317,-4.5297,-4.5297,-4.5297,-4.5303,-4.5293,-4.5293,-4.5092,-4.49,-4.4787,-4.4515,-4.414,-4.3642,-4.314,-4.2641,-4.2226,-4.1622,-4.138,-4.138,-4.1255,-4.1152,-4.1093,-4.1093,-4.0982,-4.0888,-4.0836,-4.0819,-4.0772,-4.0118,-3.9395,-3.8841,-4.0113,-3.9702,-3.8472,-3.7666,-3.6725,-3.58,-3.4911,-3.4494,-3.4241,-3.4241,-3.3783,-3.3309,-3.3309,-3.3203,-3.3128,-3.326,-3.3152,-3.3013,-3.3013,-3.2959,-3.2944,-3.2912,-3.2843,-3.2773,-3.2594,-3.2468,-3.2398,-3.2398,-3.1721,-3.1528,-3.2479,-3.1898,-3.1594,-3.2104,-3.2176,-3.2031,-3.1723,-3.1709,-3.1635,-3.1516,-3.1482,-3.1569,-3.1609,-3.1535,-3.1535,-3.1535,-3.1535,-3.1535,-3.1535,-3.2182,-3.2754,-3.3314,-3.3927,-3.4526,-4.0,-4.0158,-4.0319,-4.0406,-4.0616,-4.0839,-4.0913,-4.1156,-4.1392,-4.1532,-4.208,-4.2516,-4.2578,-4.2615,-4.263,-4.2648,-4.1973,-4.1435,-4.1404,-4.1915,-4.2598,-4.3381,-4.4122,-4.4866,-4.5621,-4.5607,-4.5491,-4.5379,-4.5317,-4.5314,-4.5303,-4.5297,-4.5308,-4.5309,-4.4871,-4.4617,-4.4572,-4.4154,-4.367,-4.3105,-4.26,-4.2115,-4.164,-4.1391,-4.1255,-4.1272,-4.1152,-4.114,-4.1093,-4.0982,-4.0935,-4.0819,-4.0233,-3.9962,-3.977,-3.8631,-3.7786,-3.7014,-3.6131,-3.7215,-3.8646,-3.6313,-3.4731,-3.3793,-3.4344,-3.3905,-3.3255,-3.3255,-3.313,-3.3005,-3.3005,-3.3036,-3.3052,-3.3083,-3.2998,-3.2928,-3.2928,-3.2742,-3.2571,-3.2501,-3.2453,-3.2373,-3.2302,-3.2206,-3.2094,-3.2094,-3.148,-3.1161,-3.1543,-3.0456,-2.9855,-3.0434,-2.9992,-2.9794,-3.0111,-3.0024,-3.0077,-3.0467,-3.0506,-3.069,-3.1123,-3.1136,-3.1136,-3.1136,-3.1136,-3.1136,-3.1136,-3.1714,-3.2292,-3.2857,-3.3621,-3.4202,-3.9283,-3.9368,-3.9452,-3.9846,-3.9929,-3.9966,-4.0183,-4.0439,-4.0641,-4.0772,-4.1177,-4.1517,-4.1534,-4.1559,-4.1603,-4.1651,-4.1341,-4.1093,-4.111,-4.1484,-4.2225,-4.3441,-4.3902,-4.455,-4.5647,-4.5665,-4.5524,-4.5379,-4.5317,-4.5292,-4.5297,-4.519,-4.5057,-4.4953,-4.4602,-4.4392,-4.4374,-4.411,-4.3603,-4.2848,-4.2418,-4.1934,-4.138,-4.1244,-4.1152,-4.1152,-4.1029,-4.0982,-4.0965,-4.0555,-4.0371,-4.0255,-3.9462,-3.9095,-3.8875,-3.7617,-3.667,-3.5815,-3.4383,-3.4928,-3.5973,-3.4321,-3.3396,-3.2982,-3.3412,-3.3209,-3.2912,-3.2928,-3.2897,-3.2796,-3.2796,-3.2843,-3.2905,-3.2936,-3.2749,-3.2492,-3.2492,-3.2281,-3.2139,-3.2185,-3.1921,-3.1637,-3.1637,-3.1364,-3.1116,-3.1116,-3.045,-2.9936,-3.0029,-2.9442,-2.9104,-2.9384,-2.8665,-2.8392,-2.8913,-2.8976,-2.9307,-2.9805,-3.0064,-3.0348,-3.0735,-3.0748,-3.0761,-3.0836,-3.0836,-3.0911,-3.0986,-3.1237,-3.1733,-3.2553,-3.2958,-3.3463,-3.8424,-3.8398,-3.8401,-3.9095,-3.9196,-3.9212,-3.9577,-3.9739,-3.994,-4.0413,-4.0288,-4.0188,-4.0537,-4.0616,-4.0665,-4.0746,-4.0937,-4.1071,-4.1094,-4.1093,-4.1696,-4.3327,-4.3528,-4.4097,-4.5526,-4.564,-4.5541,-4.5339,-4.5297,-4.529,-4.5312,-4.5038,-4.4758,-4.4489,-4.4318,-4.424,-4.4184,-4.411,-4.3629,-4.2718,-4.2274,-4.1823,-4.1335,-4.1123,-4.0995,-4.0891,-4.0733,-4.0634,-4.0479,-3.979,-3.9422,-3.9213,-3.8442,-3.8013,-3.7797,-3.6687,-3.5703,-3.4843,-3.3928,-3.3017,-3.2358,-3.2404,-3.2585,-3.2812,-3.2517,-3.2579,-3.2858,-3.2905,-3.2773,-3.2641,-3.2656,-3.2664,-3.2686,-3.2733,-3.2388,-3.1972,-3.1972,-3.1875,-3.1849,-3.1981,-3.1422,-3.0911,-3.0911,-3.036,-2.9889,-2.9889,-2.9129,-2.8556,-2.8556,-2.8739,-2.8766,-2.861,-2.7908,-2.7624,-2.7988,-2.8363,-2.8843,-2.9484,-2.9984,-3.0291,-3.0368,-3.0368,-3.0444,-3.0698,-3.0698,-3.0773,-3.0911,-3.0773,-3.128,-3.2393,-3.2166,-3.2675,-3.7878,-3.7925,-3.7907,-3.8054,-3.8068,-3.8112,-3.8372,-3.7314,-3.6908,-3.9092,-3.8346,-3.7863,-3.9769,-4.02,-4.0345,-4.0524,-4.0711,-4.0914,-4.1071,-4.1094,-4.1484,-4.2497,-4.3247,-4.4012,-4.4895,-4.5459,-4.566,-4.54,-4.5237,-4.5175,-4.5309,-4.5048,-4.4734,-4.4346,-4.4138,-4.4106,-4.4184,-4.3767,-4.3122,-4.2312,-4.1801,-4.1402,-4.114,-4.0905,-4.0449,-3.9846,-3.9723,0.0,-3.8751,-3.8614,-3.8278,-3.7761,-3.6986,-3.6334,-3.5712,-3.4772,-3.4024,-3.3372,-3.3083,-3.2545,-3.2094,-3.2302,-3.2468,-3.2453,-3.2422,-3.2437,-3.2484,-3.2505,-3.2465,-3.2465,-3.243,-3.2476,-3.239,-3.2211,-3.2053,-3.1951,-3.189,-3.1921,-3.1981,-3.1996,-3.1233,-3.06,-3.06,-2.9799,-2.9192,-2.9192,-2.9002,-2.8939,-2.8939,-2.8026,-2.7335,-2.7348,-2.7214,-2.7297,-2.7837,-2.7908,-2.8421,-2.9459,-2.9625,-2.9881,-3.0343,-3.0368,-3.0444,-3.0444,-3.0444,-3.0444,-3.052,-3.0444,-3.1035,-3.2166,-3.2085,-3.2675,-3.6359,-3.6399,-3.6457,-3.6902,-3.6417,-3.5878,-3.6178,-3.5798,-3.5745,-3.6966,-3.747,-3.8028,-3.9091,-3.9515,-3.9795,-3.9996,-4.0351,-4.0641,-4.0808,-4.0999,-4.1425,-4.2304,-4.316,-4.398,-4.4689,-4.5394,-4.5664,-4.5379,-4.5094,-4.4971,-4.5023,-4.4829,-4.4524,-4.4154,-4.414,-4.4153,-4.4098,-4.3301,-4.252,-4.1713,-4.0715,-4.0075,-3.979,-3.9576,-3.9247,-3.8905,-3.8858,-3.8623,-3.8247,-3.7792,-3.742,-3.7037,-3.59,-3.52,-3.4708,-3.3726,-3.3182,-3.2841,-3.2492,-3.2191,-3.2053,-3.2135,-3.2308,-3.2354,-3.2221,-3.2308,-3.2384,-3.2374,-3.2196,-3.1946,-3.1936,-3.2144,-3.2307,-3.2083,-3.1375,-3.0807,-3.0571,-3.048,-3.0435,-3.0435,-2.9799,-2.9226,-2.9226,-2.8492,-2.7947,-2.7947,-2.8146,-2.8278,-2.8278,-2.7885,-2.7685,-2.7913,-2.7571,-2.7551,-2.8086,-2.8248,-2.8581,-2.9125,-2.9517,-2.9809,-3.0075,-3.0075,-3.0152,-3.0228,-3.0228,-3.0292,-3.0368,-3.0292,-3.0802,-3.1911,-3.1737,-3.2333,-3.41,-3.412,-3.4189,-3.4885,-3.4146,-3.3359,-3.3799,-3.4021,-3.4364,-3.5119,-3.6498,-3.7765,-3.8354,-3.8856,-3.9231,-3.9437,-3.9915,-4.0347,-4.0538,-4.0822,-4.1316,-4.203,-4.289,-4.3622,-4.4156,-4.487,-4.5131,-4.4781,-4.4391,-4.4327,-4.4718,-4.4515,-4.4277,-4.4004,-4.416,-4.3974,-4.3471,-4.2595,-4.1699,-4.0664,-3.9458,-3.8767,-3.8504,-3.8357,-3.815,-3.7996,-3.795,-3.7865,-3.766,-3.6893,-3.6455,-3.6172,-3.4888,-3.4252,-3.3919,-3.2949,-3.2602,-3.2547,-3.2023,-3.1868,-3.1868,-3.1868,-3.2057,-3.2246,-3.2012,-3.2099,-3.2175,-3.2205,-3.1894,-3.1498,-3.1528,-3.1751,-3.1944,-3.1811,-3.0764,-2.9754,-2.949,-2.9205,-2.9002,-2.9002,-2.8427,-2.792,-2.792,-2.7481,-2.7054,-2.7054,-2.7411,-2.7624,-2.7624,-2.7846,-2.8176,-2.8656,-2.8075,-2.7851,-2.8333,-2.8612,-2.8825,-2.895,-2.9387,-2.9624,-2.9624,-2.9624,-2.9702,-2.9921,-2.9921,-3.0062,-3.0203,-3.0075,-3.058,-3.1655,-3.148,-3.2001,-3.0928,-3.0928,-3.0928,-3.1002,-3.0936,-3.1011,-3.1768,-3.0973,-3.1046,-3.4506,-3.4518,-3.4728,-3.7469,-3.84,-3.8822,-3.902,-3.951,-3.9996,-4.0366,-4.0649,-4.0925,-4.1183,-4.1991,-4.2536,-4.2604,-4.3213,-4.3455,-4.3063,-4.2423,-4.2782,-4.4442,-4.4214,-4.4035,-4.3999,-4.4017,-4.3256,-4.1656,-4.1379,-4.038,-3.8652,-3.8413,-3.8303,-3.8328,-3.8172,-3.775,-3.7092,-3.6874,-3.6363,0.0,-3.5518,-3.5141,-3.4628,-3.3935,-3.3391,-3.2841,-3.2135,-3.1898,-3.1841,-3.1655,-3.1467,-3.1336,-3.1336,-3.161,-3.1849,-3.1834,-3.1702,-3.1585,-3.1562,-3.1562,-3.1504,-3.148,-3.1099,-3.0807,-3.094,-3.0466,-2.9983,-2.995,-2.9442,-2.9002,-2.9002,-2.8298,-2.7736,-2.7736,-2.7464,-2.7276,-2.7276,-2.7551,-2.7766,-2.7766,-2.7644,-2.7755,-2.8274,-2.804,-2.7903,-2.8285,-2.8371,-2.8528,-2.902,-2.9106,-2.9131,-2.9131,-2.9131,-2.9131,-2.9209,-2.9353,-2.9496,-2.9496,-2.9689,-3.0344,-3.1386,-3.1386,-3.2001,-2.9988,-3.0072,-3.0166,-3.0048,-2.9599,-2.9354,-3.0088,-3.0016,-3.0435,-3.2636,-3.3829,-3.4942,-3.6539,-3.7434,-3.8059,-3.8303,-3.8856,-3.9432,-3.997,-4.0301,-4.0634,-4.0992,-4.1799,-4.2361,-4.2399,-4.2935,-4.3021,-4.2421,-4.1976,-4.1845,-4.2075,-4.2607,-4.2205,-4.067,-4.0743,-4.0235,-3.907,-3.9319,-3.8607,-3.6888,-3.7214,-3.7062,-3.6564,-3.6443,-3.6245,-3.5975,-3.5866,-3.5559,0.0,-3.4994,-3.4561,-3.3869,-3.3251,-3.2718,-3.2185,-3.1582,-3.138,-3.138,-3.1307,-3.1249,-3.119,-3.119,-3.1292,-3.1379,-3.1409,-3.1364,-3.1261,-3.1248,-3.1248,-3.1072,-3.0189,-2.9519,-2.8974,-2.8553,-2.8507,-2.8492,-2.8117,-2.7736,-2.7484,-2.7351,-2.704,-2.6883,-2.7063,-2.6976,-2.7036,-2.7371,-2.7817,-2.8087,-2.8087,-2.8295,-2.8488,-2.8619,-2.8332,-2.8309,-2.8762,-2.8811,-2.8909,-2.9118,-2.9131,-2.9131,-2.9131,-2.9131,-2.9131,-2.9131,-2.9197,-2.9197,-2.9197,-2.93,-2.9948,-3.1013,-3.1013,-3.1596,-2.8576,-2.8685,-2.8746,-2.862,-2.8196,-2.8025,-2.8794,-2.9462,-3.0351,-3.1789,-3.3593,-3.5165,-3.5994,-3.69,-3.7542,-3.7791,-3.8365,-3.8988,-3.9534,-3.9938,-4.0372,-4.0804,-4.1481,-4.1931,-4.197,-4.2214,-4.2101,-4.1439,-4.1116,-4.0659,-4.0031,-4.0708,-4.0277,-3.8465,-3.8364,-3.8077,-3.7434,-3.7747,-3.7224,-3.5907,-3.6314,-3.6146,-3.5396,-3.5337,-3.5291,-3.5291,-3.5245,-3.5024,0.0,-3.4513,-3.3969,-3.3271,-3.2664,-3.2185,-3.1834,-3.1278,-3.1087,-3.1087,-3.1014,-3.0895,-3.0821,-3.0762,-3.0702,-3.0657,-3.0686,-3.091,-3.1073,-3.1058,-3.0822,-3.0334,-2.896,-2.8414,-2.8039,-2.734,-2.7341,-2.7338,-2.6824,-2.6508,-2.6258,-2.6131,-2.6268,-2.642,-2.6648,-2.698,-2.7324,-2.7692,-2.8133,-2.8476,-2.8476,-2.8741,-2.8816,-2.8578,-2.8397,-2.848,-2.887,-2.8895,-2.8895,-2.8895,-2.8895,-2.8895,-2.8895,-2.8895,-2.8895,-2.8895,-2.8973,-2.9052,-2.9052,-2.9052,-2.9622,-3.0544,-3.0716,-3.1355,-2.6095,-2.6121,-2.5926,-2.5926,-2.6339,-2.6992,-2.8009,-2.8983,-3.0319,-3.2632,-3.374,-3.47,-3.6054,-3.6917,-3.7431,-3.7577,-3.8168,-3.8715,-3.9052,-3.9618,-4.0114,-4.0463,-4.0809,-4.1018,-4.1019,-4.0655,-4.0223,-3.9754,-3.9331,-3.9054,-3.884,-3.864,-3.8483,-3.8391,-3.7893,-3.746,-3.722,-3.6875,-3.6484,-3.5985,-3.5933,-3.5677,-3.5291,-3.5291,-3.5291,-3.5291,-3.5152,-3.4706,0.0,-3.3836,-3.336,-3.2671,-3.2099,-3.189,-3.1834,-3.1278,-3.1087,-3.1073,-3.0702,-3.0447,-3.0251,-2.9931,-2.9699,-2.9602,-2.9602,-3.028,-3.1073,-3.0925,-3.0245,-2.9223,-2.8085,-2.8147,-2.8427,-2.8233,-2.7511,-2.6921,-2.6921,-2.6358,-2.591,-2.591,-2.634,-2.6709,-2.6709,-2.7594,-2.8307,-2.8319,-2.8607,-2.8791,-2.8791,-2.8657,-2.8351,-2.7973,-2.8271,-2.851,-2.851,-2.851,-2.851,-2.851,-2.851,-2.851,-2.851,-2.851,-2.851,-2.851,-2.8724,-2.8791,-2.8791,-2.8961,-2.9426,-3.0003,-3.0532,-3.1355,-2.5338,-2.5494,-2.5547,-2.5441,-2.6116,-2.6961,-2.7732,-2.8712,-2.9888,-3.1526,-3.2418,-3.3333,-3.4813,-3.5797,-3.6589,-3.723,-3.7931,-3.8579,-3.9163,-3.949,-3.9872,-4.0507,-4.0813,-4.0906,-4.0677,-4.0372,-3.9955,-3.9402,-3.9082,-3.8725,-3.8332,-3.8267,-3.8285,-3.8419,-3.8111,-3.7647,-3.7008,-3.6531,-3.595,-3.5253,-3.4927,-3.4706,-3.4497,-3.4497,-3.4497,-3.4497,-3.4448,-3.4134,-3.361,-3.3114,-3.2439,-3.1607,-3.1013,-3.0629,-3.0297,-3.0144,-3.0097,-3.0036,-2.9974,-2.9837,-2.9775,-2.9713,-2.9665,-2.9602,-2.9602,-2.9789,-3.0097,-3.0007,-2.9178,-2.8217,-2.7801,-2.7206,-2.6688,-2.662,-2.6427,-2.6233,-2.6233,-2.6037,-2.5938,-2.6235,-2.6371,-2.6639,-2.7242,-2.7654,-2.7927,-2.7973,-2.8084,-2.8099,-2.7753,-2.7672,-2.7603,-2.7441,-2.7522,-2.7603,-2.7603,-2.795,-2.795,-2.7592,-2.7603,-2.7603,-2.7603,-2.7603,-2.7603,-2.7603,-2.8018,-2.8191,-2.8191,-2.8498,-2.8947,-2.9561,-3.0094,-3.0531,-2.5493,-2.5709,-2.5808,-2.5772,-2.6485,-2.7415,-2.8068,-2.8965,-2.9999,-3.1341,-3.2022,-3.28,-3.4353,-3.533,-3.6156,-3.7026,-3.7721,-3.8396,-3.899,-3.9283,-3.9749,-4.0544,-4.0855,-4.0851,-4.05,-4.0319,-3.9902,-3.9144,-3.8836,-3.8473,-3.7966,-3.7897,-3.7879,-3.8034,-3.7897,-3.7377,-3.6487,-3.6061,-3.5442,-3.4594,-3.4349,-3.4201,-3.4101,-3.4101,-3.4101,-3.4101,-3.405,-3.3729,0.0,-3.247,-3.1675,-3.0881,-3.0283,-2.9884,-2.9602,-2.9602,-2.9602,-2.9602,-2.9477,-2.9415,-2.9415,-2.9289,-2.9099,-2.8881,-2.8739,-2.8994,-2.9198,-2.8739,-2.7999,-2.7338,-2.7082,-2.6427,-2.5758,-2.5758,-2.5758,-2.5676,-2.5676,-2.5705,-2.5804,-2.6057,-2.6208,-2.6534,-2.712,-2.7404,-2.7561,-2.7649,-2.7626,-2.7534,-2.7267,-2.7185,-2.7103,-2.694,-2.7103,-2.7103,-2.6704,-2.729,-2.7534,-2.7185,-2.7185,-2.7185,-2.7185,-2.7185,-2.7185,-2.7185,-2.7452,-2.7626,-2.7626,-2.7857,-2.8279,-2.8799,-2.9118,-2.9378,0.0,-2.6499,-2.6546,-2.6532,-2.7245,-2.8167,-2.8817,-2.9584,0.0,-3.1797,-3.2335,-3.3034,-3.4559,-3.537,-3.6078,-3.6967,-3.7577,-3.8168,-3.864,-3.9149,-3.9749,-4.059,-4.0858,-4.0828,-4.0433,-4.0383,-3.9953,-3.898,-3.8626,-3.8209,-3.765,-3.7468,-3.7339,-3.7301,-3.7319,-3.6843,-3.5778,-3.5576,-3.4971,-3.405,-3.405,-3.4,-3.4,-3.4,-3.4,-3.4,-3.3899,-3.3403,-3.2734,-3.186,-3.113,-3.0464,-2.9775,-2.954,-2.954,-2.954,-2.954,-2.9477,-2.9162,-2.9035,-2.8972,-2.8587,-2.8118,-2.763,-2.7191,-2.7789,-2.8403,-2.7191,-2.6786,-2.6595,-2.6025,-2.5688,-2.5465,-2.5465,-2.5382,-2.5253,-2.5277,-2.5396,-2.548,-2.555,-2.6028,-2.6439,-2.6473,-2.6875,-2.7185,-2.7185,-2.7185,-2.7185,-2.7103,-2.7103,-2.694,-2.6528,-2.6857,-2.6787,-2.5979,-2.6704,-2.7103,-2.7103,-2.7103,-2.7103,-2.7103,-2.7103,-2.7103,-2.7103,-2.7103,-2.7185,-2.7185,-2.7185,-2.7426,-2.7969,-2.7969,-2.8234,-2.6217,0.0,-2.619,-2.6231,-2.6982,-2.7839,0.0,0.0,0.0,0.0,0.0,-3.2722,-3.3898,-3.5022,-3.6019,-3.6929,-3.7485,-3.8016,-3.8752,-3.951,-4.0138,-4.0492,-4.068,-4.0688,-4.0499,-4.0148,-3.964,-3.8941,-3.8431,-3.7826,-3.7132,-3.6995,-3.6816,-3.6574,-3.6574,-3.6308,-3.5725,-3.5323,-3.4609,-3.3658,-3.345,-3.3309,-3.3203,-3.3203,-3.3203,-3.3203,-3.315,-3.2973,-3.2563,-3.1362,-3.0733,-3.0404,-2.9261,-2.8844,-2.8844,-2.8844,-2.8766,-2.861,-2.8495,-2.8444,-2.8197,-2.7564,-2.7204,-2.6934,-2.5824,-2.6158,-2.6841,-2.6227,-2.5755,-2.5429,-2.5229,-2.4886,-2.455,-2.455,-2.4478,-2.4583,-2.4955,-2.5055,-2.5292,-2.6,-2.6267,-2.6554,-2.6944,-2.7105,-2.7103,-2.6693,-2.6682,-2.6528,-2.6218,-2.6218,-2.6146,-2.6052,-2.6135,-2.6063,-2.5728,-2.629,-2.6528,-2.6218,-2.6218,-2.6218,-2.6218,-2.6218,-2.6218,-2.6218,-2.6528,-2.6857,-2.7185,-2.7185,-2.7242,-2.7357,-2.7357,-2.7426,-2.6692,-2.6721,-2.6698,-2.6683,-2.7342,-2.8125,-2.867,0.0,0.0,0.0,0.0,-3.3199,-3.4254,-3.5183,-3.6095,-3.6907,-3.7504,-3.8147,-3.899,-3.9622,-4.0101,-4.0336,-4.053,-4.0582,-4.0387,-3.9855,-3.925,-3.8628,-3.7887,-3.719,-3.6615,-3.6492,-3.6343,-3.6105,-3.5837,-3.5537,-3.5186,-3.4955,-3.4252,-3.3102,-3.2958,-3.2796,-3.2648,-3.2648,-3.2648,-3.2648,-3.2609,-3.2342,-3.1849,-3.0852,-3.0119,-2.9704,-2.8753,-2.8406,-2.8406,-2.8406,-2.8327,-2.8183,-2.8183,-2.7908,-2.743,-2.6514,-2.6089,-2.5685,-2.4767,-2.4696,-2.4981,-2.5075,-2.4874,-2.4599,-2.4599,-2.4394,-2.42,-2.42,-2.4361,-2.4602,-2.4855,-2.5139,-2.5474,-2.6018,-2.6152,-2.6225,-2.6577,-2.6622,-2.6456,-2.5863,-2.5589,-2.5253,-2.4669,-2.4392,-2.4296,-2.4296,-2.4296,-2.4211,-2.4125,-2.4457,-2.4893,-2.5549,-2.5549,-2.5549,-2.5549,-2.52,-2.485,-2.4584,-2.4999,-2.5411,-2.5652,-2.5652,-2.5652,-2.5652,-2.5652,-2.5652,-2.7414,-2.753,-2.7625,-2.7625,-2.8091,-2.8826,-2.955,0.0,0.0,0.0,0.0,-3.4089,-3.5029,-3.5645,-3.6292,-3.6943,-3.7685,-3.8405,-3.9133,-3.9529,-3.9878,-4.012,-4.0377,-4.0296,-3.9705,-3.9332,-3.8746,-3.7734,-3.711,-3.6545,-3.6165,-3.5975,-3.5844,-3.5728,-3.5191,-3.4783,-3.4431,-3.4431,-3.3786,-3.2547,-3.2547,-3.2437,-3.2342,-3.2342,-3.2342,-3.2342,0.0,0.0,-3.1115,-3.024,-2.9504,-2.8939,-2.8314,-2.8079,-2.8079,-2.8079,-2.8079,-2.8013,-2.7802,-2.7297,-2.6582,-2.5521,-2.4898,-2.4409,-2.3756,-2.3412,-2.3298,-2.3751,-2.397,-2.4043,-2.4043,-2.4043,-2.4043,-2.4043,-2.442,-2.471,-2.4789,-2.5239,-2.5683,-2.5761,-2.5777,-2.5812,-2.5812,-2.5812,-2.5549,-2.4861,-2.4327,-2.379,-2.3086,-2.2629,-2.2444,-2.2444,-2.2444,-2.2356,-2.2356,-2.2356,-2.2979,-2.4584,-2.4754,-2.4754,-2.4754,-2.4059,-2.3531,-2.3096,-2.3531,-2.38,-2.38,-2.38,-2.38,-2.38,-2.38,-2.38,-2.8094,-2.8496,-2.8795,-2.8559,-2.8858,-2.9478,-3.0749,-3.1374,-3.2026,0.0,-3.4182,-3.4995,-3.554,-3.5943,-3.6493,-3.7206,-3.7966,-3.8535,-3.8828,-3.9294,-3.9717,-3.9916,-4.0139,-3.9441,-3.7358,-3.8197,-3.7851,-3.5409,-3.5989,-3.6291,-3.5905,-3.5622,-3.5441,-3.5383,-3.4785,-3.4252,-3.3735,-3.3547,-3.3039,-3.2247,-3.2247,-3.2191,-3.2038,-3.2038,-3.2038,-3.2038,0.0,-3.116,-3.0911,-2.9676,-2.9066,-2.8939,-2.8314,-2.8079,-2.8079,-2.8079,-2.7868,-2.7456,-2.6458,-2.6102,-2.5742,-2.4302,-2.3734,-2.3526,-2.283,-2.2553,-2.2553,-2.2628,-2.2927,-2.315,-2.315,-2.315,-2.315,-2.315,-2.3523,-2.3996,-2.4425,-2.4781,-2.5109,-2.5782,-2.5579,-2.538,-2.5644,-2.5464,-2.502,-2.4059,-2.3887,-2.3521,-2.262,-2.2444,-2.2444,-2.2444,-2.2444,-2.2277,-2.212,-2.2031,-2.212,-2.2217,-2.2639,-2.2795,-2.2795,-2.3086,-2.3183,-2.3096,-2.3531,-2.38,-2.38,-2.38,-2.38,-2.38,-2.38,-2.38,-2.9134,-2.9739,-3.0287,-3.036,-3.0242,-3.0384,-3.1155,-3.2199,-3.3232,-3.4117,-3.501,-3.5759,-3.6252,-3.665,-3.715,-3.7879,-3.8267,-3.8615,-3.8923,-3.9253,-3.9502,-3.9575,-3.9064,-3.8467,-3.7757,-3.6988,-3.6262,-3.5626,-3.5522,-3.5436,-3.5304,-3.5211,-3.5071,-3.4994,-3.3697,-3.287,-3.2629,-3.1519,-3.1317,-3.1996,-3.1996,-3.1687,-3.1099,-3.1099,-3.0848,-3.0391,0.0,-2.9421,-2.907,-2.8158,-2.7556,-2.7143,-2.6865,-2.6673,-2.6608,-2.6608,-2.6466,-2.6128,-2.4817,-2.441,-2.4136,-2.2517,-2.1966,-2.1894,-2.1491,-2.1418,-2.1491,-2.1491,-2.2083,-2.2703,-2.2703,-2.2703,-2.2767,-2.295,-2.3048,-2.3095,-2.3656,-2.3586,-2.3604,-2.3902,-2.3856,-2.377,-2.3867,-2.377,-2.3424,-2.2561,-2.2199,-2.1756,-2.0953,-2.0593,-2.0413,-2.0413,-2.0413,-2.0421,-2.0249,-2.0257,-2.0701,-2.1606,-2.1863,-2.1756,-2.1311,-2.1686,-2.1686,-2.1239,-2.1686,-2.1872,-2.1872,-2.1872,-2.1872,-2.1872,-2.2129,-2.2306,-3.0315,-3.11,-3.1878,-3.21,-3.1808,-3.1577,-3.2006,-3.3245,-3.4442,-3.5062,-3.5668,-3.6259,-3.6838,-3.7321,-3.7791,-3.8281,-3.8491,-3.8707,-3.9073,-3.9264,-3.9324,-3.9298,-3.8198,-3.7438,-3.7404,-3.5705,-3.4729,-3.5057,-3.4742,-3.4529,-3.4444,-3.4427,-3.4297,-3.4037,-3.239,-3.1509,-3.1472,-2.9868,-2.9837,-3.1261,-3.1204,-3.075,-3.0018,-3.0018,-2.9681,-2.9042,-2.8453,-2.7924,-2.7353,-2.6742,-2.6083,-2.551,-2.551,-2.5447,-2.5294,-2.5231,-2.5167,-2.4834,-2.349,-2.2954,-2.2616,-2.1118,-2.0634,-2.0634,-2.042,-2.0492,-2.0634,-2.0634,-2.1292,-2.1945,-2.22,-2.2402,-2.2658,-2.303,-2.2804,-2.2621,-2.3046,-2.2687,-2.2356,-2.2356,-2.2268,-2.2277,-2.2277,-2.2277,-2.1933,-2.115,-2.0782,-2.024,-1.9546,-1.9004,-1.8827,-1.8827,-1.8827,-1.8827,-1.8827,-1.8827,-1.9455,-2.0889,-2.0979,-2.0709,-1.9985,-2.0447,-2.0357,-1.9637,-2.0102,-2.0292,-2.0292,-2.0292,-2.0292,-2.0292,-2.0645,-2.0817,-3.1674,-3.253,-3.3396,-3.3237,-3.3169,-3.3338,-3.4081,-3.4653,-3.5231,-3.5959,-3.6199,-3.6451,-3.6974,-3.7703,-3.8162,-3.798,-3.8387,-3.8894,-3.9137,-3.921,-3.9237,-3.9298,-3.8129,-3.6426,-3.4084,-3.4313,-3.3694,-3.1513,-3.2998,-3.3693,-3.3194,-3.2999,-3.266,-3.2045,-3.1139,-3.0618,-3.05,-2.9589,-2.9267,-2.955,-2.9356,-2.9271,-2.9171,-2.9171,-2.9142,-2.9042,-2.7794,-2.7266,-2.7148,-2.5897,-2.5358,-2.5307,-2.5307,-2.5294,-2.5294,-2.518,-2.473,-2.4067,-2.301,-2.2207,-2.1538,-2.0705,-2.042,-2.042,-2.042,-2.042,-2.042,-2.042,-2.0472,-2.0761,-2.1564,-2.2402,-2.3073,-2.3105,-2.3041,-2.3086,-2.3116,-2.2524,-2.211,-2.2356,-2.2022,-2.1774,-2.2031,-2.1863,-2.1418,-2.052,-2.0339,-1.9985,-1.9004,-1.8827,-1.8827,-1.8827,-1.8827,-1.8827,-1.8827,-1.8827,-1.8827,-1.9012,-1.9004,-1.9012,-1.892,-1.9463,-1.9646,-1.9637,-2.0102,-2.0292,-2.0292,-2.0292,-2.0292,-2.0292,-2.0292,-2.0382,-3.2841,-3.3592,-3.4295,-3.427,-3.4797,0.0,0.0,-3.5359,-3.6121,-3.635,-3.655,-3.6838,-3.7356,-3.8147,-3.8609,-3.8296,-3.8789,-3.9119,-3.896,-3.9129,-3.9137,-3.8778,-3.6756,-3.5251,-3.4846,-3.317,-3.1977,-3.1667,-3.208,-3.2195,-3.1884,-3.1457,-3.1181,-3.1193,-2.9565,-2.8793,-2.9034,-2.7744,-2.7299,-2.7623,-2.8605,-2.8851,-2.8414,-2.7987,-2.7535,-2.7026,-2.5917,-2.5396,-2.5338,-2.4546,-2.4195,-2.4086,-2.4012,-2.3938,-2.3876,-2.3418,-2.3042,-2.2651,-2.1348,-2.0698,-2.0307,-1.9514,-1.9249,-1.9249,-1.9249,-1.9249,-1.9249,-1.9249,-1.9164,-1.9392,-2.032,-2.0838,-2.1145,-2.1124,-2.0882,-2.0692,-2.093,-2.0509,-2.0076,-2.0158,-1.9985,-1.9903,-1.9994,-1.9994,-1.9812,-1.9455,-1.9363,-1.9271,-1.8827,-1.8827,-1.8827,-1.8827,-1.8827,-1.8827,-1.8827,-1.8827,-1.8827,-1.8827,-1.8827,-1.8827,-1.8827,-1.9004,-1.9096,-1.9096,-1.9279,-1.9379,-1.9379,-1.9379,-1.9379,-1.9379,-1.9737,-1.9828,-3.393,-3.4559,-3.5207,-3.5309,0.0,0.0,-3.5411,-3.5987,-3.6736,-3.6673,-3.6816,-3.717,-3.7808,-3.8436,-3.8836,-3.8718,-3.9091,-3.9272,-3.8989,-3.9055,-3.882,-3.7902,-3.5847,-3.4444,-3.4262,-3.1974,-3.0678,-3.1137,-3.099,-3.0819,-3.0595,-2.9997,-2.9684,-2.9739,-2.8083,-2.7345,-2.7574,-2.6472,-2.6056,-2.6312,-2.7512,-2.7879,-2.7418,-2.6761,-2.6203,-2.5715,-2.4694,-2.4176,-2.4105,-2.3662,-2.339,-2.3271,-2.3078,-2.2884,-2.2628,-2.2113,-2.1667,-2.1152,-2.0085,-1.9573,-1.932,-1.8674,-1.8482,-1.8482,-1.8482,-1.8337,-1.8124,-1.8124,-1.8014,-1.7993,-1.8611,-1.9212,-1.9822,-1.9956,-1.9525,-1.9213,-1.9374,-1.8848,-1.8443,-1.8553,-1.8577,-1.8609,-1.8812,-1.8827,-1.8827,-1.8827,-1.8827,-1.8827,-1.8827,-1.8743,-1.8743,-1.8743,-1.8743,-1.8827,-1.8827,-1.8827,-1.8827,-1.8827,-1.8827,-1.8827,-1.8827,-1.8827,-1.8827,-1.8827,-1.8827,-1.8827,-1.8827,-1.8827,-1.8827,-1.8827,-1.9188,-1.9371,-3.489,-3.548,-3.6259,-3.6208,-3.6402,-3.655,-3.6343,-3.669,-3.7009,-3.7108,-3.7108,-3.7395,-3.835,-3.8487,-3.8656,-3.9119,-3.9272,-3.9298,-3.9298,-3.899,-3.8222,-3.6679,-3.5585,-3.3991,-3.1535,-3.0684,-3.0002,-2.935,-2.9574,-2.9622,-2.921,-2.871,-2.8188,-2.753,-2.6864,-2.6457,-2.6283,-2.6042,-2.5893,-2.5893,-2.5893,-2.6042,-2.6297,-2.5673,-2.5398,-2.5342,-2.4452,-2.4002,-2.3741,-2.3305,-2.3078,-2.3078,-2.2969,-2.2457,-2.1877,-2.1678,-2.0719,-1.9628,-1.9562,-1.9121,-1.8482,-1.8482,-1.8482,-1.8482,-1.8482,-1.7978,-1.7404,-1.7404,-1.7076,-1.6689,-1.6321,-1.7735,-1.9454,-1.985,-1.96,-1.9127,-1.8939,-1.811,-1.7634,-1.7889,-1.7959,-1.8151,-1.8664,-1.8819,-1.8819,-1.8819,-1.8827,-1.8827,-1.8827,-1.8658,-1.8481,-1.8481,-1.8651,-1.8827,-1.8827,-1.8827,-1.8827,-1.8827,-1.8827,-1.8827,-1.8827,-1.8827,-1.8827,-1.8827,-1.8827,-1.8827,-1.8827,-1.8827,-1.8827,-1.8827,-1.8827,-1.8827,-3.5608,-3.5691,-3.5993,-3.6182,-3.6276,-3.6426,-3.6544,-3.6851,-3.7167,-3.7505,-3.7809,-3.8117,-3.8423,-3.8828,-3.9045,-3.8748,-3.9119,-3.9136,-3.8237,-3.7571,-3.6787,-3.57,-3.375,-3.2069,-3.1042,-2.9916,-2.8933,-2.824,-2.8459,-2.851,-2.8223,-2.7675,-2.7247,-2.6953,-2.6283,-2.5825,-2.555,-2.5328,-2.5411,-2.5592,-2.5411,-2.555,-2.5988,-2.5077,-2.4624,-2.4567,-2.3543,-2.309,-2.3017,-2.2848,-2.2531,-2.2063,-2.2002,-2.1553,-2.091,-2.0398,-1.9944,-1.9497,-1.8921,-1.8529,-1.8347,-1.8212,-1.8144,-1.8144,-1.8144,-1.7647,-1.707,-1.707,-1.6439,-1.5815,-1.5959,-1.6398,-1.6838,-1.7204,-1.7319,-1.7328,-1.7328,-1.7258,-1.7285,-1.7578,-1.7689,-1.7721,-1.7822,-1.8034,-1.8099,-1.8001,-1.8118,-1.8272,-1.8272,-1.828,-1.828,-1.8481,-1.8566,-1.8658,-1.8827,-1.8827,-1.8827,-1.8827,-1.8827,-1.8827,-1.8827,-1.8827,-1.8827,-1.8827,-1.8827,-1.8827,-1.8827,-1.8827,-1.8827,-1.8827,-1.8827,-1.8827,-3.6131,-3.6131,-3.6284,-3.6509,-3.6468,-3.6426,-3.6609,-3.7013,-3.7505,-3.8013,-3.8263,-3.8517,-3.8905,-3.9027,-3.9027,-3.8923,-3.8849,-3.8426,-3.7327,-3.6292,-3.5136,-3.3827,-3.2281,-3.0836,-2.9569,-2.9017,-2.8298,-2.7287,-2.7491,-2.7646,-2.767,-2.7137,-2.6707,-2.6481,-2.5906,-2.5384,-2.4948,-2.4948,-2.4896,-2.486,-2.4953,-2.4995,-2.4915,-2.4346,-2.3989,-2.3767,-2.2957,-2.2616,-2.2678,-2.2616,-2.2347,-2.2013,-2.1639,-2.1112,-2.0398,-1.9628,-1.9177,-1.8921,-1.8327,-1.8212,-1.8134,-1.8008,-1.7794,-1.7579,-1.7579,-1.6793,-1.6018,-1.6018,-1.5551,-1.5117,-1.5319,-1.5423,-1.5591,-1.6041,-1.6247,-1.6392,-1.6308,-1.6367,-1.6627,-1.6952,-1.6975,-1.7108,-1.7327,-1.7513,-1.7563,-1.7377,-1.7667,-1.7934,-1.7978,-1.8094,-1.8288,-1.8195,-1.8473,-1.8658,-1.8651,-1.8735,-1.8827,-1.8827,-1.8827,-1.8827,-1.8827,-1.8827,-1.8827,-1.8827,-1.8827,-1.8827,-1.8827,-1.8827,-1.8827,-1.8827,-1.8827,-1.8827,-3.6492,-3.6516,-3.686,-3.6974,-3.6678,-3.6433,-3.6574,-3.7228,-3.7911,-3.8423,-3.8468,-3.8663,-3.9464,-3.9026,-3.8726,-3.9242,-3.8365,-3.7274,-3.6365,-3.4955,-3.3318,-3.1459,-3.1072,-2.9997,-2.7602,-2.8062,-2.7943,-2.6606,-2.6817,-2.7107,-2.735,-2.6959,-2.651,-2.6068,-2.5631,-2.512,-2.4483,-2.4641,-2.4428,-2.3918,-2.4622,-2.4426,-2.3358,-2.3638,-2.3518,-2.3017,-2.2543,-2.2494,-2.2629,-2.2494,-2.242,-2.2482,-2.1714,-2.0858,-2.0074,-1.9299,-1.8596,-1.8008,-1.8008,-1.8008,-1.8008,-1.8008,-1.751,-1.6932,-1.6932,-1.5807,-1.4601,-1.4601,-1.4538,-1.4472,-1.4472,-1.4948,-1.5514,-1.5922,-1.6012,-1.6004,-1.5741,-1.565,-1.5831,-1.6137,-1.6282,-1.6372,-1.6927,-1.7003,-1.7033,-1.7064,-1.7331,-1.7561,-1.7632,-1.8056,-1.8164,-1.7721,-1.828,-1.8651,-1.8481,-1.8651,-1.8735,-1.8735,-1.8735,-1.8735,-1.8735,-1.8827,-1.8827,-1.8827,-1.8827,-1.8827,-1.8827,-1.8827,-1.8827,-1.8827,-1.8827,-1.8827,-3.6259,-3.6131,-3.6216,-3.636,-3.6343,-3.6409,-3.6759,-3.719,-3.7667,-3.7962,-3.8231,-3.8491,-3.8778,-3.8456,-3.8099,-3.8023,-3.6912,-3.563,-3.4317,-3.2841,-3.1398,-3.0055,-2.9428,-2.8595,-2.7362,-2.7607,-2.7402,-2.6404,-2.6765,-2.7003,-2.7107,-2.7078,-2.6669,-2.5728,-2.532,-2.4653,-2.3771,-2.3883,-2.3914,-2.3918,-2.4552,-2.4226,-2.3149,-2.3513,-2.3173,-2.2371,-2.2309,-2.2247,-2.2321,-2.2247,-2.1925,-2.1451,-2.1262,-2.0409,-1.9233,-1.9044,-1.8596,-1.8008,-1.8008,-1.8008,-1.8008,-1.8008,-1.751,-1.6932,-1.6932,-1.5807,-1.4601,-1.4601,-1.4538,-1.4472,-1.4472,-1.4948,-1.5431,-1.5514,-1.5514,-1.5506,-1.5506,-1.5423,-1.5529,-1.5747,-1.5845,-1.5868,-1.6019,-1.6252,-1.6421,-1.6507,-1.6603,-1.6766,-1.7014,-1.7143,-1.7338,-1.7692,-1.7815,-1.8001,-1.8179,-1.8272,-1.8272,-1.8272,-1.8272,-1.8365,-1.8574,-1.8743,-1.8827,-1.8827,-1.8827,-1.8827,-1.8827,-1.8827,-1.8827,-1.8827,-1.8827,-1.8827,-3.6597,-3.6433,-3.6409,-3.6276,-3.6259,-3.6326,-3.6557,-3.6781,-3.7017,-3.736,-3.7841,-3.8241,-3.8287,-3.7869,-3.7238,-3.6339,-3.5307,-3.3972,-3.2223,-3.0818,-2.9715,-2.9104,-2.8456,-2.7789,-2.7035,-2.7195,-2.7034,-2.619,-2.6418,-2.6765,-2.7003,-2.6803,-2.6283,-2.5508,-2.5094,-2.4461,-2.3725,-2.387,-2.3894,-2.3683,-2.4028,-2.3636,-2.2543,-2.2482,-2.2261,-2.1987,-2.1987,-2.2061,-2.2197,-2.2197,-2.18,-2.106,-2.0741,-1.9955,-1.8977,-1.8654,-1.8269,-1.8008,-1.8008,-1.8008,-1.794,-1.7579,-1.6941,-1.6237,-1.5877,-1.4966,-1.4049,-1.4049,-1.4253,-1.4472,-1.4472,-1.4948,-1.5431,-1.5431,-1.5431,-1.5431,-1.5431,-1.5431,-1.5423,-1.5499,-1.5582,-1.5582,-1.5582,-1.5723,-1.5867,-1.6104,-1.6148,-1.6265,-1.6587,-1.6853,-1.7106,-1.7283,-1.7624,-1.7908,-1.7908,-1.7994,-1.8087,-1.8087,-1.7606,-1.7412,-1.7613,-1.721,-1.7584,-1.8735,-1.8827,-1.8827,-1.8827,-1.8827,-1.8827,-1.8827,-1.845,-1.8257,-3.6681,-3.6603,-3.662,-3.6259,-3.6174,-3.6216,-3.6259,-3.6259,-3.6367,-3.6626,-3.7216,-3.7679,-3.7679,-3.6893,-3.5854,-3.4582,-3.3482,-3.2171,-3.0377,-2.931,-2.8644,-2.8425,-2.8092,-2.7602,-2.6938,-2.7079,-2.6987,-2.6327,-2.6418,-2.663,-2.7112,-2.6422,-2.5851,-2.5398,-2.4799,-2.4275,-2.3735,-2.3987,-2.3853,-2.3448,-2.3366,-2.2847,-2.1815,-2.1273,-2.1221,-2.1588,-2.1588,-2.1788,-2.1999,-2.2061,-2.1726,-2.1123,-2.0549,-1.9835,-1.911,-1.8395,-1.8076,-1.794,-1.794,-1.7862,-1.7579,-1.701,-1.6167,-1.5321,-1.4752,-1.4049,-1.3492,-1.3492,-1.3923,-1.4399,-1.445,-1.4904,-1.5357,-1.5416,-1.5431,-1.5431,-1.5431,-1.5431,-1.5431,-1.5431,-1.5257,-1.5173,-1.5173,-1.4999,-1.5,-1.5348,-1.539,-1.5497,-1.5796,-1.6246,-1.6433,-1.6392,-1.6955,-1.7338,-1.7066,-1.7296,-1.7412,-1.7412,-1.6648,-1.6264,-1.6264,-1.5399,-1.5961,-1.8064,-1.8257,-1.8257,-1.8257,-1.8357,-1.8458,-1.8458,-1.7785,-1.7505,-3.5326,-3.5369,-3.5888,-3.5756,-3.5711,-3.5783,-3.6071,-3.6156,-3.6062,-3.5882,-3.6101,-3.6365,-3.6365,-3.4726,-3.3277,-3.3086,-3.1367,-2.9882,-2.9489,-2.9296,-2.889,-2.8085,-2.8589,-2.8569,-2.7583,-2.7755,-2.794,-2.7897,-2.7384,-2.725,-2.7607,-2.6517,-2.5701,-2.5231,-2.4129,-2.3441,-2.3114,-2.3171,-2.3302,-2.3474,-2.2824,-2.2101,-2.1451,-2.0646,-2.0593,-2.1285,-2.1285,-2.1285,-2.136,-2.1663,-2.1714,-2.1588,-2.1135,-2.0549,-1.9835,-1.911,-1.8385,-1.7716,-1.7716,-1.7217,-1.6515,-1.6376,-1.5534,-1.4482,-1.4338,-1.3912,-1.3492,-1.3492,-1.3762,-1.4114,-1.4399,-1.4735,-1.5079,-1.5357,-1.5431,-1.5431,-1.5431,-1.5431,-1.5431,-1.5431,-1.4824,-1.4314,-1.4314,-1.362,-1.3118,-1.3155,-1.3155,-1.3255,-1.3623,-1.3693,-1.3806,-1.4134,-1.4419,-1.4496,-1.4496,-1.471,-1.4841,-1.4841,-1.4651,-1.4651,-1.4841,-1.4746,-1.4924,-1.5488,-1.5974,-1.6177,-1.6177,-1.6669,-1.6864,-1.6864,-1.677,-1.677,-3.4351,-3.4414,-3.4975,-3.4657,-3.4544,-3.4544,-3.4655,-3.4622,-3.4493,-3.4396,-3.417,-3.4153,-3.4818,-3.3746,-3.2455,-3.1665,-3.059,-2.9641,-2.8906,-2.864,-2.8442,-2.8268,-2.8419,-2.8268,-2.7544,-2.7706,-2.7681,-2.7414,-2.7131,-2.7056,-2.7161,-2.6075,-2.53,-2.5063,-2.3997,-2.3373,-2.3257,-2.3315,-2.3068,-2.263,-2.2116,-2.1491,-2.0646,-2.0194,-2.0324,-2.0828,-2.0828,-2.0828,-2.0741,-2.0996,-2.0666,-2.0074,-1.9879,-1.9365,-1.87,-1.8327,-1.793,-1.7588,-1.7588,-1.7314,-1.6821,-1.5965,-1.533,-1.4832,-1.3977,-1.3637,-1.3492,-1.3492,-1.3733,-1.4011,-1.4157,-1.4435,-1.4757,-1.5079,-1.516,-1.5204,-1.5387,-1.4999,-1.4482,-1.3964,-1.362,-1.336,-1.336,-1.293,-1.2674,-1.2674,-1.2674,-1.2717,-1.2924,-1.3069,-1.3297,-1.3413,-1.3676,-1.3903,-1.3969,-1.4084,-1.4212,-1.4256,-1.3788,-1.3403,-1.3499,-1.3022,-1.2732,-1.2915,-1.4543,-1.5305,-1.5305,-1.5893,-1.619,-1.619,-1.6008,-1.5913,-3.3928,-3.3799,-3.3893,-3.3304,-3.3141,-3.3137,-3.3276,-3.3187,-3.3066,-3.2908,-3.2493,-3.2369,-3.3008,-3.2453,-3.1546,-3.0425,-2.9966,-2.9475,-2.8703,-2.8439,-2.8399,-2.8597,-2.8392,-2.8096,-2.7597,-2.7552,-2.7454,-2.7211,-2.6932,-2.6833,-2.6934,-2.5716,-2.5007,-2.5007,-2.3897,-2.333,-2.3403,-2.3509,-2.2992,-2.1815,-2.1753,-2.1123,-2.0074,-2.0009,-2.0129,-2.0453,-2.0453,-2.0377,-2.0279,-2.0344,-1.989,-1.9034,-1.8834,-1.8365,-1.7842,-1.7598,-1.747,-1.7392,-1.7392,-1.7107,-1.6612,-1.548,-1.4974,-1.4609,-1.355,-1.3346,-1.3492,-1.3492,-1.3667,-1.3879,-1.396,-1.4165,-1.4428,-1.4743,-1.4823,-1.4852,-1.5004,-1.4573,-1.3795,-1.2845,-1.2504,-1.2339,-1.2339,-1.2163,-1.1997,-1.1997,-1.1997,-1.1997,-1.1997,-1.2244,-1.2365,-1.2365,-1.2684,-1.2916,-1.3026,-1.3159,-1.3308,-1.3397,-1.27,-1.2349,-1.2349,-1.158,-1.1194,-1.1194,-1.3108,-1.4058,-1.4256,-1.4937,-1.5235,-1.5235,-1.5146,-1.5153,-3.4311,-3.3622,-3.2726,-3.1694,-3.1607,-3.1935,-3.2446,-3.2532,-3.2384,-3.189,-3.1736,-3.1522,-3.0896,-3.0207,-2.9668,-2.9493,-2.8927,-2.8658,-2.9101,-2.9311,-2.9333,-2.9094,-2.901,-2.8743,-2.8103,-2.7645,-2.761,-2.8105,-2.7307,-2.6961,-2.7281,-2.5841,-2.5007,-2.5007,-2.3754,-2.321,-2.3403,-2.3509,-2.2932,-2.1616,-2.1815,-2.1187,-1.9933,-2.0009,-2.0085,-2.0151,-2.0151,-2.014,-2.0074,-1.9922,-1.977,-1.9639,-1.8834,-1.8499,-1.8375,-1.7725,-1.7392,-1.7235,-1.7235,-1.6097,-1.4752,-1.4895,-1.4042,-1.3039,-1.3193,-1.3346,-1.3492,-1.3492,-1.3506,-1.3594,-1.3901,-1.3996,-1.4092,-1.4414,-1.4494,-1.4417,-1.4185,-1.4139,-1.3795,-1.2845,-1.2003,-1.1408,-1.1408,-1.0722,-1.012,-1.012,-1.012,-1.012,-1.012,-1.0135,-1.0139,-1.0139,-1.0336,-1.0471,-1.0481,-1.0851,-1.1091,-1.1101,-1.1182,-1.1292,-1.1292,-1.1194,-1.1194,-1.1194,-1.1292,-1.1683,-1.217,-1.3147,-1.363,-1.3636,-1.4106,-1.4394,-3.3581,-3.2872,-3.2316,-3.0679,-3.0555,-3.0773,-3.0684,-3.0877,-3.1028,-3.0822,-3.0718,-3.0553,-3.019,-3.0018,-2.9956,-2.9982,-2.9701,-2.9627,-3.0028,-2.9583,-2.926,-2.9233,-2.8334,-2.7608,-2.752,-2.7113,-2.6898,-2.6982,-2.6888,-2.6736,-2.6654,-2.5578,-2.5007,-2.5007,-2.3754,-2.3138,-2.321,-2.2811,-2.2249,-2.1439,-2.0996,-2.0431,-1.9868,-1.9813,-1.9878,-2.0074,-1.9726,-1.9386,-1.9054,-1.8731,-1.8452,-1.8104,-1.7774,-1.7706,-1.7638,-1.7245,-1.7047,-1.6968,-1.6464,-1.5895,-1.5259,-1.4474,-1.3977,-1.3622,-1.3273,-1.3346,-1.3492,-1.3492,-1.3492,-1.3521,-1.3638,-1.3667,-1.3748,-1.4077,-1.3924,-1.3539,-1.3029,-1.2572,-1.2009,-1.1149,-1.0722,-1.0467,-1.0467,-1.0212,-1.0038,-1.0038,-1.0038,-1.0038,-1.0038,-1.0038,-1.0038,-1.0038,-1.0022,-1.0121,-1.0263,-1.0409,-1.0551,-1.0679,-1.0886,-1.1005,-1.1005,-1.1127,-1.1194,-1.1194,-1.1194,-1.1487,-1.198,-1.2662,-1.3249,-1.3539,-1.401,-1.4298,-3.3625,-3.2793,-3.2244,-3.0152,-2.9918,-3.0075,-2.979,-3.0042,-3.0225,-2.9999,-3.0068,-2.9987,-2.9334,-2.9499,-2.9837,-3.0088,-3.0114,-3.0101,-3.0179,-2.9537,-2.8953,-2.8656,-2.7528,-2.6852,-2.6807,-2.6436,-2.6155,-2.6089,-2.6285,-2.6273,-2.6071,-2.5245,-2.4681,-2.4381,-2.3531,-2.3078,-2.3078,-2.2433,-2.1803,-2.1262,-2.0549,-2.0042,-1.9802,-1.9736,-1.9781,-1.9835,-1.9295,-1.8882,-1.8553,-1.7917,-1.7427,-1.6949,-1.6756,-1.6689,-1.6708,-1.672,-1.6707,-1.6656,-1.6289,-1.5903,-1.533,-1.4553,-1.4057,-1.3768,-1.3419,-1.3419,-1.3492,-1.3492,-1.3492,-1.3492,-1.3492,-1.3492,-1.355,-1.377,-1.3446,-1.2936,-1.2073,-1.156,-1.0968,-1.0197,-1.0038,-1.0038,-1.0038,-1.0038,-1.0038,-1.0038,-1.0038,-1.0038,-1.0038,-1.0038,-1.0038,-1.0038,-1.0038,-1.0008,-1.0154,-1.023,-1.0334,-1.0461,-1.074,-1.0896,-1.0896,-1.109,-1.1194,-1.1194,-1.1394,-1.1683,-1.198,-1.257,-1.3055,-1.3539,-1.401,-1.4298,0.0,0.0,0.0,-3.0132,-2.9745,-2.9943,-2.9987,-3.0138,-3.0097,-2.9428,-2.9804,-2.9805,-2.8313,-2.8617,-2.9238,-2.9718,-2.9928,-2.9877,-2.9355,-2.9169,-2.8598,-2.7367,-2.6892,-2.6527,-2.6149,-2.5627,-2.5461,-2.5684,-2.5529,-2.5494,-2.5494,-2.4821,-2.406,-2.3138,-2.3078,-2.3078,-2.3078,-2.2433,-2.1741,-2.106,-2.0624,-2.0107,-1.9605,-1.9791,-1.9727,-1.9356,-1.8829,-1.8606,-1.8585,-1.752,-1.6821,-1.6437,-1.5872,-1.5689,-1.5735,-1.6147,-1.6303,-1.6291,-1.6665,-1.5948,-1.4887,-1.5037,-1.4258,-1.3273,-1.3419,-1.3492,-1.3492,-1.3492,-1.3492,-1.3492,-1.3492,-1.3492,-1.3492,-1.3492,-1.3131,-1.2496,-1.1569,-1.1175,-1.0763,-1.0072,-1.0033,-1.0038,-1.0038,-1.0038,-1.0038,-1.0038,-1.0038,-1.0038,-1.0038,-1.0038,-1.0038,-1.0038,-1.0038,-1.0038,-1.0038,-1.0145,-1.0263,-1.0263,-1.065,-1.0882,-1.0886,-1.108,-1.1189,-1.1194,-1.1683,-1.1975,-1.198,-1.2565,-1.3055,-1.3539,-1.401,-1.4298,-3.5193,0.0,0.0,0.0,0.0,0.0,-2.998,-2.9741,-2.9609,-2.9235,-2.9115,-2.9015,-2.8838,-2.8838,-2.8972,-2.9251,-2.9003,-2.8872,-2.9076,-2.831,-2.7665,-2.7552,-2.6303,-2.5489,-2.5574,-2.5149,-2.4905,0.0,-2.503,-2.4921,-2.4921,-2.4337,-2.3695,-2.3138,-2.3078,-2.3078,-2.3078,-2.1939,-2.1313,-2.106,-1.9977,-1.9396,-1.9396,-1.9254,-1.9233,-1.923,-1.8416,-1.776,-1.7175,-1.6748,-1.6296,-1.5936,-1.5753,-1.5689,-1.5707,-1.5817,-1.5537,-1.5085,-1.4647,-1.4167,-1.3676,-1.3338,-1.3222,-1.3273,-1.3419,-1.3492,-1.3492,-1.3492,-1.3492,-1.3492,-1.3492,-1.3492,-1.3492,-1.3492,-1.2513,-1.157,-1.1455,-1.0437,-0.9619,-0.9663,-0.9852,-1.0038,-1.0038,-1.0038,-1.0038,-1.0038,-1.0038,-1.0038,-1.0038,-1.0038,-1.0038,-1.0038,-1.0038,-1.0038,-1.0038,-1.0095,-1.0041,-1.0041,-1.0296,-1.0508,-1.066,-1.0868,-1.1047,-1.1194,-1.1389,-1.159,-1.198,-1.2856,-1.3346,-1.3539,-1.401,-1.4298,-3.5861,-3.5198,-3.4387,-3.2729,0.0,0.0,-3.0775,-3.0465,-3.0222,-2.9518,-2.9403,-2.9278,-2.8737,-2.8818,-2.883,-2.8497,-2.817,-2.8075,-2.8284,-2.7741,-2.7099,-2.6666,-2.572,-2.511,-2.5095,-2.482,-2.4721,-2.4892,-2.4694,-2.4394,-2.4047,-2.3695,-2.3352,-2.2969,-2.2957,-2.3017,-2.3017,-2.2002,-2.1376,-2.106,-2.0031,-1.9367,-1.9057,-1.8966,-1.8826,-1.8574,-1.8162,-1.734,-1.6286,-1.6236,-1.5794,-1.5194,-1.5194,-1.5194,-1.5221,-1.5386,-1.5051,-1.4427,-1.4123,-1.3711,-1.3218,-1.302,-1.3062,-1.3165,-1.3455,-1.3492,-1.3492,-1.3492,-1.3492,-1.3492,-1.3492,-1.3492,-1.3492,-1.3492,-1.2526,-1.1527,-1.1298,-1.0346,-0.9513,-0.9445,-0.9682,-0.9823,-0.9823,-0.9894,-1.0038,-1.0038,-1.0038,-1.0038,-1.0038,-1.0038,-1.0038,-1.0038,-1.0038,-1.0038,-1.0038,-1.0038,-1.0038,-1.0038,-1.0154,-1.0324,-1.0442,-1.065,-1.0858,-1.1066,-1.1264,-1.1696,-1.237,-1.2662,-1.3055,-1.3539,-1.401,-1.4298,-3.6559,-3.6164,-3.5612,-3.4191,-3.359,0.0,-3.2116,-3.1765,-3.1377,-3.0162,-3.0251,-3.004,-2.8441,-2.8675,-2.8766,-2.7656,-2.7471,-2.7446,-2.7367,-2.7296,-2.6703,-2.5295,-2.5123,-2.5017,-2.4673,-2.4734,-2.4778,-2.4721,-2.435,-2.3826,-2.3078,-2.3017,-2.2909,-2.2678,-2.286,-2.2909,-2.2909,-2.231,-2.1678,-2.106,-2.0355,-1.9544,-1.8669,-1.8797,-1.8411,-1.7755,-1.7886,-1.7143,-1.5874,-1.5874,-1.5371,-1.4515,-1.4515,-1.4515,-1.4552,-1.4909,-1.4577,-1.3979,-1.4328,-1.3811,-1.2967,-1.3271,-1.3192,-1.3016,-1.3338,-1.344,-1.3448,-1.3484,-1.3492,-1.3492,-1.3492,-1.3492,-1.3492,-1.3492,-1.2826,-1.2003,-1.126,-1.0532,-0.9891,-0.9299,-0.9445,-0.9536,-0.9555,-0.9795,-0.9927,-1.0038,-1.0038,-1.0038,-1.0038,-1.0038,-1.0038,-1.0038,-1.0038,-1.0038,-1.0038,-1.0038,-1.0038,-1.0038,-1.013,-1.0249,-1.0272,-1.0447,-1.0641,-1.0858,-1.1357,-1.1955,-1.2662,-1.2175,-1.2565,-1.3539,-1.4016,-1.4202,-3.6742,-3.6469,-3.6067,-3.5375,-3.4935,0.0,-3.3105,-3.2354,-3.1671,-3.0704,-3.03,-2.986,-2.9002,-2.9156,-2.9058,-2.759,-2.7262,-2.7178,-2.6995,-2.6559,-2.6065,-2.5449,-2.4957,-2.474,-2.4734,-2.4778,-2.4664,-2.4421,-2.3662,-2.3017,-2.2531,-2.2543,-2.2604,-2.269,-2.286,-2.2909,-2.2909,-2.1827,-2.125,-2.106,-1.9846,-1.9023,-1.8446,-1.8343,-1.8052,-1.7557,-1.747,-1.6835,-1.5874,-1.5874,-1.5371,-1.4515,-1.4515,-1.4515,-1.4524,-1.4598,-1.3865,-1.2808,-1.2881,-1.2465,-1.181,-1.1867,-1.22,-1.2672,-1.3001,-1.3104,-1.3155,-1.3418,-1.3492,-1.3492,-1.3492,-1.3492,-1.3492,-1.3492,-1.2378,-1.126,-1.1111,-1.0019,-0.8928,-0.8817,-0.9129,-0.9441,-0.9531,-0.9677,-0.9762,-0.9927,-1.0038,-1.0038,-1.0038,-1.0038,-1.0038,-1.0038,-1.0038,-1.0038,-1.0038,-1.0038,-1.0038,-1.0038,-1.0081,-1.0093,-1.0267,-1.031,-1.0428,-1.0631,-1.0901,-1.1187,-1.1487,-1.1883,-1.2565,-1.3539,-1.3636,-1.3919,-3.6326,-3.6011,-3.5677,-3.5362,-3.4991,0.0,0.0,-3.271,-3.2069,-3.116,-3.0703,-3.0147,-2.9421,-2.9435,-2.9101,-2.7615,-2.7373,-2.705,-2.6139,-2.5612,-2.5145,-2.4807,-2.4386,-2.4144,-2.4292,-2.4234,-2.4002,-2.3662,-2.3198,-2.2726,-2.2309,-2.2309,-2.2371,-2.2445,-2.2604,-2.2531,-2.2261,-2.1753,-2.1187,-2.0613,-1.9911,-1.9028,-1.805,-1.8071,-1.7708,-1.7158,-1.6914,-1.6457,-1.5874,-1.5642,-1.5137,-1.4515,-1.4515,-1.4515,-1.4515,-1.4515,-1.3881,-1.2948,-1.2634,-1.2196,-1.1688,-1.153,-1.1817,-1.2372,-1.2855,-1.3126,-1.3287,-1.3448,-1.3492,-1.3492,-1.3492,-1.32,-1.29,-1.29,-1.2003,-1.0962,-1.0588,-0.9836,-0.916,-0.878,-0.8869,-0.9082,-0.9299,-0.9428,-0.9682,-0.9786,-0.9885,-1.0038,-1.0038,-1.0038,-1.0038,-1.0038,-1.0038,-1.0038,-1.0038,-1.0038,-1.0038,-1.0038,-1.0038,-1.009,-1.0107,-0.9753,-0.9669,-0.9862,-1.0543,-1.0948,-1.1047,-1.1439,-1.198,-1.2759,-1.3055,-1.3437,-3.5898,-3.5588,-3.527,-3.5131,-3.4754,-3.4267,0.0,0.0,0.0,-3.1796,-3.1336,-3.0851,-2.996,-2.9737,-2.9251,-2.7773,-2.7377,-2.6768,-2.5382,-2.4784,-2.4356,-2.4125,-2.3852,-2.3721,-2.3872,-2.3741,-2.3471,-2.2969,-2.2909,-2.2678,-2.2259,-2.2197,-2.2197,-2.2197,-2.2297,-2.2149,-2.1616,-2.169,-2.1187,-2.0096,-1.9977,-1.9105,-1.7668,-1.7832,-1.7511,-1.6751,-1.6467,-1.6171,-1.5874,-1.54,-1.4893,-1.4515,-1.4515,-1.4515,-1.4515,-1.4515,-1.407,-1.3381,-1.2757,-1.2274,-1.1964,-1.1539,-1.166,-1.208,-1.2738,-1.314,-1.3411,-1.3477,-1.3492,-1.3492,-1.3346,-1.2826,-1.2224,-1.2077,-1.1484,-1.0663,-1.0067,-0.9765,-0.9463,-0.8856,-0.8703,-0.877,-0.8987,-0.9304,-0.947,-0.955,-0.9786,-0.9904,-1.0033,-1.0038,-1.0038,-1.0038,-1.0038,-1.0038,-1.0038,-0.9859,-0.9772,-0.9772,-0.9685,-0.9598,-0.9598,-0.8978,-0.8802,-0.8993,-0.9943,-1.0432,-1.0414,-1.0665,-1.1053,-1.178,-1.237,-1.2856,-3.6174,-3.5985,-3.5677,-3.5424,-3.5131,-3.4785,-3.4284,0.0,-3.3539,-3.2881,0.0,-3.1864,-3.0793,0.0,0.0,-2.7996,-2.7056,-2.6212,-2.5415,-2.4596,-2.4138,-2.4073,-2.4073,-2.4073,-2.406,-2.3872,-2.3577,-2.3138,-2.2969,-2.2678,-2.2259,-2.2197,-2.2197,-2.2197,-2.2297,-2.2149,-2.1616,-2.1198,-2.07,-2.0107,-1.9518,-1.8664,-1.7668,-1.7832,-1.7511,-1.6751,-1.6467,-1.6171,-1.5874,-1.54,-1.4893,-1.4515,-1.4515,-1.4515,-1.4515,-1.4515,-1.407,-1.3381,-1.2757,-1.2274,-1.1934,-1.1353,-1.1553,-1.2036,-1.2467,-1.2804,-1.3126,-1.3411,-1.3492,-1.3346,-1.2599,-1.2378,-1.215,-1.1409,-1.0588,-0.9992,-0.9916,-0.9311,-0.8775,-0.8703,-0.8703,-0.877,-0.8987,-0.9063,-0.9219,-0.9508,-0.9667,-0.9743,-0.9927,-1.0038,-1.0038,-1.0038,-1.0038,-1.0038,-1.0038,-0.9419,-0.9065,-0.9065,-0.8448,-0.8009,-0.8009,-0.8009,-0.8004,-0.8268,-0.8401,-0.866,-0.8864,-0.8883,-0.9643,-1.0979,-1.1775,-1.197,-3.5622,-3.5379,-3.5102,-3.4913,-3.4675,-3.4431,-3.4134,-3.3797,-3.333,-3.2617,0.0,0.0,0.0,0.0,0.0,0.0,-2.619,-2.5295,-2.4419,-2.3935,-2.3747,-2.3982,-2.3806,-2.3556,-2.3318,-2.3305,-2.3125,-2.2909,-2.2726,-2.2543,-2.2297,-2.2247,-2.2197,-2.2197,-2.2247,-2.1851,-2.1008,-2.0828,-2.0313,-1.9518,-1.8992,-1.834,-1.7657,-1.7511,-1.7141,-1.6694,-1.6343,-1.5999,-1.57,-1.5352,-1.4893,-1.4515,-1.4515,-1.4515,-1.4515,-1.4515,-1.407,-1.3381,-1.2757,-1.2274,-1.1926,-1.1498,-1.1652,-1.2058,-1.2197,-1.2599,-1.3038,-1.3177,-1.3353,-1.3346,-1.2526,-1.1929,-1.1409,-1.0594,-0.9765,-0.9236,-0.9236,-0.8932,-0.8703,-0.8703,-0.8703,-0.8732,-0.8822,-0.8944,-0.9082,-0.9256,-0.9493,-0.9677,-0.9762,-0.9875,-1.0038,-1.0038,-1.0038,-1.0038,-1.0038,-0.9685,-0.9331,-0.889,-0.8185,-0.7654,-0.7217,-0.757,-0.769,-0.7406,-0.7948,-0.8249,-0.8385,-0.8482,-0.8702,-0.8867,-0.9755,-1.0297,-3.493,-3.4787,-3.4707,-3.4448,-3.4201,-3.3899,-3.3678,-3.333,-3.285,-3.2216,-3.158,0.0,0.0,0.0,-2.7792,-2.6693,0.0,-2.4807,-2.4138,-2.3793,-2.3628,-2.3641,-2.3463,-2.3223,-2.3042,-2.3103,-2.3103,-2.286,-2.2739,-2.2604,-2.2482,-2.2371,-2.2247,-2.2247,-2.2185,-2.1675,-2.0571,-2.0571,-2.0053,-1.8998,-1.8599,-1.8154,-1.7657,-1.7193,-1.6846,-1.657,-1.6228,-1.5941,-1.5594,-1.5294,-1.4893,-1.4515,-1.4515,-1.4515,-1.4455,-1.4258,-1.3941,-1.3381,-1.252,-1.2035,-1.174,-1.1622,-1.1721,-1.1919,-1.2006,-1.2431,-1.2892,-1.2987,-1.3093,-1.2973,-1.215,-1.1335,-1.0588,-0.9765,-0.9155,-0.8703,-0.8703,-0.8703,-0.8703,-0.8703,-0.8703,-0.8703,-0.8703,-0.8831,-0.8954,-0.9015,-0.9285,-0.9433,-0.9545,-0.9776,-0.9889,-1.0033,-1.0038,-1.0038,-1.0038,-0.9772,-0.9331,-0.8364,-0.7661,-0.7044,-0.6517,-0.6959,-0.6956,-0.6517,-0.7158,-0.7504,-0.7542,-0.7764,-0.7627,-0.723,-0.8255,-0.892,-3.4301,-3.4561,-3.4756,-3.425,-3.3899,-3.3591,-3.2964,-3.2641,-3.2342,-3.2038,-3.1811,-3.13,-3.0088,-2.9116,-2.8139,-2.7229,-2.605,0.0,0.0,-2.4637,-2.3943,-2.303,-2.303,-2.333,-2.3832,-2.3891,-2.3641,-2.3138,-2.3271,-2.3163,-2.2678,-2.2482,-2.242,-2.242,-2.2247,-2.16,-2.0431,-2.0571,-1.9987,-1.8808,-1.8534,-1.8154,-1.7657,-1.7193,-1.6846,-1.657,-1.6228,-1.5941,-1.5594,-1.5294,-1.4893,-1.4515,-1.4515,-1.4515,-1.4446,-1.3761,-1.3511,-1.3321,-1.1973,-1.1365,-1.1185,-1.1498,-1.163,-1.1633,-1.1941,-1.227,-1.2599,-1.2921,-1.2662,-1.215,-1.1335,-1.0519,-0.9765,-0.8927,-0.8703,-0.8703,-0.8703,-0.8703,-0.8703,-0.8703,-0.8703,-0.8703,-0.8703,-0.8708,-0.8784,-0.8992,-0.9034,-0.919,-0.9508,-0.9569,-0.9734,-0.9932,-1.0038,-1.0038,-1.0038,-0.9331,-0.8364,-0.6953,-0.6169,-0.5733,-0.5733,-0.5733,-0.5733,-0.5733,-0.5735,-0.5882,-0.5996,-0.6001,-0.6131,-0.6368,-0.8062,-0.8425,0.0,0.0,-3.3818,-3.3578,-3.3423,-3.3319,-3.3093,-3.2841,-3.2532,-3.216,-3.1637,-3.0924,-2.977,-2.8611,-2.7523,-2.6563,-2.5613,-2.4835,0.0,-2.4189,-2.3793,-2.3582,-2.37,-2.3688,-2.3582,-2.3819,-2.3819,-2.333,-2.3271,-2.309,-2.286,-2.2665,-2.2555,-2.242,-2.2359,-2.1714,-2.042,-2.0495,-1.9977,-1.8798,-1.8181,-1.7874,-1.7709,-1.6953,-1.6576,-1.642,-1.6239,-1.5884,-1.5468,-1.5284,-1.4893,-1.4515,-1.4515,-1.4515,-1.4446,-1.3761,-1.3199,-1.2704,-1.1608,-1.1185,-1.1185,-1.1498,-1.1622,-1.1645,-1.1684,-1.2094,-1.2548,-1.2658,-1.2855,-1.2826,-1.1484,-1.0887,-1.0363,-0.9003,-0.8703,-0.8703,-0.8703,-0.8703,-0.8703,-0.8703,-0.8703,-0.8703,-0.8703,-0.8703,-0.8727,-0.8803,-0.893,-0.9072,-0.9214,-0.9474,-0.9672,-0.9743,-0.9434,-0.9244,-0.9244,-0.8189,-0.7305,-0.6864,-0.6083,-0.5733,-0.5733,-0.5733,-0.5733,-0.5733,-0.5733,-0.5752,-0.5793,-0.5866,-0.5945,-0.6032,-0.681,-0.7054,-3.3287,-3.3287,0.0,-3.2986,-3.2895,0.0,-3.2625,-3.2461,-3.2201,-3.1823,-3.117,-3.0353,-2.9204,-2.7935,-2.6782,-2.5772,-2.5064,-2.4536,0.0,-2.3767,-2.3556,-2.3891,-2.3891,-2.376,-2.3522,-2.3747,-2.376,-2.3403,-2.3271,-2.315,-2.309,-2.286,-2.2678,-2.2482,-2.242,-2.1839,-2.0677,-2.056,-2.0053,-1.9065,-1.8101,-1.7668,-1.7637,-1.6798,-1.6259,-1.6019,-1.5931,-1.5517,-1.4883,-1.5001,-1.4775,-1.4327,-1.4446,-1.4515,-1.4387,-1.3511,-1.2581,-1.1717,-1.124,-1.1122,-1.1185,-1.1498,-1.1622,-1.1622,-1.1622,-1.1926,-1.235,-1.235,-1.2603,-1.2587,-1.1261,-1.0816,-1.0363,-0.9003,-0.8703,-0.8703,-0.8703,-0.8703,-0.8703,-0.8703,-0.8703,-0.8703,-0.8703,-0.8703,-0.8703,-0.8703,-0.8822,-0.8862,-0.8699,-0.8932,-0.9063,-0.895,-0.8639,-0.8475,-0.8532,-0.7482,-0.6779,-0.6779,-0.6083,-0.5733,-0.5733,-0.5733,-0.5733,-0.5733,-0.5733,-0.5733,-0.5733,-0.5806,-0.5863,-0.5907,-0.6064,-0.6225]},{"header":{"parameterUnit":"m.s-1","parameterCategory":1,"la1":30.6,"la2":29.2853,"lo1":-89.7004,"lo2":-87.6739,"dy":0.0162,"dx":0.0183,"nx":112,"ny":82,"refTime":"2023-07-28T06:00:00:Z","depth":0,"parameterNumber":3,"parameterNumberName":"V-component_of_WINDS"},"data":[0.0,0.0,0.0,0.0,0.0,0.0,0.0,0.0,0.0,0.0,0.0,0.0,0.0,0.0,0.0,0.0,0.0,0.0,0.0,0.0,0.0,0.0,0.0,0.0,0.0,0.0,0.0,0.0,0.0,0.0,0.0,0.0,0.0,0.0,0.0,0.0,0.0,0.0,0.0,0.0,0.0,0.0,0.0,0.0,0.0,0.0,0.0,0.0,0.0,0.0,0.0,0.0,0.0,0.0,0.0,0.0,0.0,0.0,0.0,0.0,0.0,0.0,0.0,0.0,0.0,0.0,0.0,0.0,0.0,0.0,0.0,0.0,0.0,0.0,0.0,0.0,0.0,0.0,0.0,0.0,0.0,0.0,0.0,0.0,0.0,0.0,0.0,0.0,0.0,0.0,-1.4469,-1.3835,-1.392,-1.4586,-1.5798,-1.6445,-1.7289,-1.8241,0.0,0.0,0.0,0.0,0.0,0.0,0.0,0.0,0.0,0.0,0.0,0.0,0.0,0.0,0.0,0.0,0.0,0.0,0.0,0.0,0.0,0.0,0.0,0.0,0.0,0.0,0.0,0.0,0.0,0.0,0.0,0.0,0.0,0.0,0.0,0.0,0.0,0.0,0.0,0.0,0.0,0.0,0.0,0.0,0.0,0.0,0.0,0.0,0.0,0.0,0.0,0.0,0.0,0.0,0.0,0.0,0.0,0.0,0.0,0.0,0.0,0.0,0.0,0.0,0.0,0.0,0.0,0.0,0.0,0.0,0.0,0.0,0.0,0.0,0.0,0.0,0.0,0.0,0.0,0.0,0.0,0.0,0.0,0.0,0.0,0.0,0.0,0.0,0.0,0.0,0.0,0.0,0.0,0.0,0.0,0.0,0.0,0.0,0.0,0.0,0.0,0.0,0.0,0.0,-1.4142,-1.4714,-1.4766,-1.5235,-1.6089,-1.7576,-1.8319,-1.8041,0.0,0.0,0.0,0.0,0.0,0.0,0.0,0.0,0.0,0.0,0.0,0.0,0.0,0.0,0.0,0.0,0.0,0.0,0.0,0.0,0.0,0.0,0.0,0.0,0.0,0.0,0.0,0.0,0.0,0.0,0.0,0.0,0.0,0.0,0.0,0.0,0.0,0.0,0.0,0.0,0.0,0.0,0.0,0.0,0.0,0.0,0.0,0.0,0.0,0.0,0.0,0.0,0.0,0.0,0.0,0.0,0.0,0.0,0.0,0.0,0.0,0.0,0.0,0.0,0.0,0.0,0.0,0.0,0.0,0.0,0.0,0.0,0.0,0.0,0.0,0.0,0.0,0.0,0.0,0.0,0.0,0.0,0.0,0.0,0.0,0.0,0.0,0.0,0.0,0.0,0.0,0.0,0.0,0.0,0.0,0.0,0.0,0.0,0.0,0.0,0.0,0.0,0.0,-1.4336,-1.4199,-1.495,-1.5032,-1.5544,-1.6929,-1.7963,-1.8888,-1.9438,-2.0447,0.0,0.0,0.0,0.0,0.0,0.0,0.0,0.0,0.0,0.0,0.0,0.0,0.0,0.0,0.0,0.0,0.0,0.0,0.0,0.0,0.0,0.0,0.0,0.0,0.0,0.0,0.0,0.0,0.0,0.0,0.0,0.0,0.0,0.0,0.0,0.0,0.0,0.0,0.0,0.0,0.0,0.0,0.0,0.0,0.0,0.0,0.0,0.0,0.0,0.0,0.0,0.0,0.0,0.0,0.0,0.0,0.0,0.0,0.0,0.0,0.0,0.0,0.0,0.0,0.0,0.0,0.0,0.0,0.0,0.0,0.0,0.0,0.0,0.0,0.0,0.0,0.0,0.0,0.0,0.0,0.0,0.0,0.0,0.0,0.0,0.0,0.0,0.0,0.0,0.0,0.0,0.0,0.0,0.0,0.0,0.0,0.0,0.0,0.0,0.0,0.0,0.0,-1.4549,-1.4615,-1.5217,-1.5337,-1.6047,-1.7855,-1.8434,-1.9263,-2.0654,-2.1114,0.0,0.0,0.0,0.0,0.0,0.0,0.0,0.0,0.0,0.0,0.0,0.0,0.0,0.0,0.0,0.0,0.0,0.0,0.0,0.0,0.0,0.0,0.0,0.0,0.0,0.0,0.0,0.0,0.0,0.0,0.0,0.0,0.0,0.0,0.0,0.0,0.0,0.0,0.0,0.0,0.0,0.0,0.0,0.0,0.0,0.0,0.0,0.0,0.0,0.0,0.0,0.0,0.0,0.0,0.0,0.0,0.0,0.0,0.0,0.0,0.0,0.0,0.0,0.0,0.0,0.0,0.0,0.0,0.0,0.0,0.0,0.0,0.0,0.0,0.0,0.0,0.0,0.0,0.0,0.0,0.0,0.0,0.0,0.0,0.0,0.0,0.0,0.0,0.0,0.0,0.0,0.0,0.0,0.0,0.0,0.0,0.0,0.0,0.0,0.0,0.0,0.0,-1.4928,-1.5583,-1.6271,-1.6389,-1.7059,-1.8611,-1.9188,-1.982,-2.0654,-2.0916,0.0,0.0,0.0,0.0,0.0,0.0,0.0,0.0,0.0,0.0,0.0,0.0,0.0,0.0,0.0,0.0,0.0,0.0,0.0,0.0,0.0,0.0,0.0,0.0,0.0,0.0,0.0,0.0,0.0,0.0,0.0,0.0,0.0,0.0,0.0,0.0,0.0,0.0,0.0,0.0,0.0,0.0,0.0,0.0,0.0,0.0,0.0,0.0,0.0,0.0,0.0,0.0,0.0,0.0,0.0,0.0,0.0,0.0,0.0,0.0,0.0,0.0,0.0,0.0,0.0,0.0,0.0,0.0,0.0,0.0,0.0,0.0,0.0,0.0,0.0,0.0,0.0,0.0,0.0,0.0,0.0,0.0,0.0,0.0,0.0,0.0,0.0,0.0,0.0,0.0,0.0,0.0,0.0,0.0,0.0,0.0,0.0,0.0,0.0,0.0,0.0,0.0,-1.5267,-1.5626,-1.6316,-1.6381,-1.6943,-1.8218,-1.8827,-1.9371,-2.0011,0.0,0.0,0.0,0.0,0.0,0.0,0.0,0.0,0.0,0.0,0.0,0.0,0.0,0.0,0.0,0.0,0.0,0.0,0.0,0.0,0.0,0.0,0.0,0.0,0.0,0.0,0.0,0.0,0.0,0.0,0.0,0.0,0.0,0.0,0.0,0.0,0.0,0.0,0.0,0.0,0.0,0.0,0.0,0.0,0.0,0.0,0.0,0.0,0.0,0.0,0.0,0.0,0.0,0.0,0.0,0.0,0.0,0.0,0.0,0.0,0.0,0.0,0.0,0.0,0.0,0.0,0.0,0.0,0.0,0.0,0.0,0.0,0.0,0.0,0.0,0.0,0.0,0.0,0.0,0.0,0.0,0.0,0.0,0.0,0.0,0.0,0.0,0.0,0.0,0.0,0.0,0.0,0.0,0.0,0.0,0.0,0.0,0.0,0.0,0.0,0.0,0.0,-1.5347,-1.5606,-1.5928,-1.6462,-1.6704,-1.7286,-1.8396,-1.8808,-1.9273,-2.0012,0.0,0.0,0.0,0.0,0.0,0.0,0.0,0.0,0.0,0.0,0.0,0.0,0.0,0.0,0.0,0.0,0.0,0.0,0.0,0.0,0.0,0.0,0.0,0.0,0.0,0.0,0.0,0.0,0.0,0.0,0.0,0.0,0.0,0.0,0.0,0.0,0.0,0.0,0.0,0.0,0.0,0.0,0.0,0.0,0.0,0.0,0.0,0.0,0.0,0.0,0.0,0.0,0.0,0.0,0.0,0.0,0.0,0.0,0.0,0.0,0.0,0.0,0.0,0.0,0.0,0.0,0.0,0.0,0.0,0.0,0.0,0.0,0.0,0.0,0.0,0.0,0.0,0.0,0.0,0.0,0.0,0.0,0.0,0.0,0.0,0.0,0.0,0.0,0.0,0.0,0.0,0.0,0.0,0.0,0.0,0.0,0.0,0.0,0.0,0.0,0.0,0.0,-1.5438,-1.5987,-1.6491,-1.6828,-1.7428,-1.82,-1.917,-1.9265,-1.9738,0.0,0.0,0.0,0.0,0.0,0.0,0.0,0.0,0.0,0.0,0.0,0.0,0.0,0.0,0.0,0.0,0.0,0.0,0.0,0.0,0.0,0.0,0.0,0.0,0.0,0.0,0.0,0.0,0.0,0.0,0.0,0.0,0.0,0.0,0.0,0.0,0.0,0.0,0.0,0.0,0.0,0.0,0.0,0.0,0.0,0.0,0.0,0.0,0.0,0.0,0.0,0.0,0.0,0.0,0.0,0.0,0.0,0.0,0.0,0.0,0.0,0.0,0.0,0.0,0.0,0.0,0.0,0.0,0.0,0.0,0.0,0.0,0.0,0.0,0.0,0.0,0.0,0.0,0.0,0.0,0.0,0.0,0.0,0.0,0.0,0.0,0.0,0.0,0.0,0.0,0.0,0.0,0.0,0.0,0.0,0.0,0.0,0.0,0.0,0.0,0.0,0.0,0.0,-1.5814,-1.6169,-1.6579,-1.7128,-1.7355,-1.794,-1.9082,-1.9757,-2.0481,-2.1501,0.0,0.0,0.0,0.0,0.0,0.0,0.0,0.0,0.0,0.0,0.0,0.0,0.0,0.0,0.0,0.0,0.0,0.0,0.0,0.0,0.0,0.0,0.0,0.0,0.0,0.0,0.0,0.0,0.0,0.0,0.0,0.0,0.0,0.0,0.0,0.0,0.0,0.0,0.0,0.0,0.0,0.0,0.0,0.0,0.0,0.0,0.0,0.0,0.0,0.0,0.0,0.0,0.0,0.0,0.0,0.0,0.0,0.0,0.0,0.0,0.0,0.0,0.0,0.0,0.0,0.0,0.0,0.0,0.0,0.0,0.0,0.0,0.0,0.0,0.0,0.0,0.0,0.0,0.0,0.0,0.0,0.0,0.0,0.0,0.0,0.0,0.0,0.0,0.0,0.0,0.0,0.0,0.0,0.0,0.0,0.0,0.0,0.0,0.0,0.0,0.0,0.0,-1.6176,-1.6504,-1.6901,-1.7289,-1.8043,-1.8862,-1.9812,-2.0824,-2.1777,-2.2528,0.0,0.0,0.0,0.0,0.0,0.0,0.0,0.0,0.0,0.0,0.0,0.0,0.0,0.0,0.0,0.0,0.0,0.0,0.0,0.0,0.0,0.0,0.0,0.0,0.0,0.0,0.0,0.0,0.0,0.0,0.0,0.0,0.0,0.0,0.0,0.0,0.0,0.0,0.0,0.0,0.0,0.0,0.0,0.0,0.0,0.0,0.0,0.0,0.0,0.0,0.0,0.0,0.0,0.0,0.0,0.0,0.0,0.0,0.0,0.0,0.0,0.0,0.0,0.0,0.0,0.0,0.0,0.0,0.0,0.0,0.0,0.0,0.0,0.0,0.0,0.0,0.0,0.0,0.0,0.0,0.0,0.0,0.0,0.0,0.0,0.0,0.0,0.0,0.0,0.0,0.0,0.0,0.0,0.0,0.0,0.0,0.0,0.0,0.0,0.0,0.0,0.0,-1.6536,-1.7051,-1.752,-1.7643,-1.9307,-2.0647,-2.1159,-2.2381,-2.3308,-2.3851,0.0,0.0,0.0,0.0,0.0,0.0,0.0,0.0,0.0,0.0,0.0,0.0,0.0,0.0,0.0,0.0,0.0,0.0,0.0,0.0,0.0,0.0,0.0,0.0,0.0,0.0,0.0,0.0,0.0,0.0,0.0,0.0,0.0,0.0,0.0,0.0,0.0,0.0,0.0,0.0,0.0,0.0,0.0,0.0,0.0,0.0,0.0,0.0,0.0,0.0,0.0,0.0,0.0,0.0,0.0,0.0,0.0,0.0,0.0,0.0,-1.1685,-1.2123,0.0,0.0,0.0,0.0,0.0,0.0,0.0,0.0,0.0,0.0,0.0,0.0,0.0,0.0,0.0,0.0,0.0,0.0,0.0,0.0,0.0,0.0,0.0,0.0,0.0,0.0,0.0,0.0,0.0,0.0,0.0,0.0,0.0,0.0,0.0,0.0,0.0,0.0,0.0,0.0,-1.7613,-1.8141,-1.8891,-1.9909,-2.0337,-2.1156,-2.2549,-2.3162,-2.3984,-2.4996,-2.555,0.0,0.0,0.0,0.0,0.0,0.0,0.0,0.0,0.0,0.0,0.0,0.0,0.0,0.0,0.0,0.0,0.0,0.0,0.0,0.0,0.0,0.0,0.0,0.0,0.0,0.0,0.0,0.0,0.0,0.0,0.0,0.0,0.0,0.0,0.0,0.0,0.0,0.0,0.0,0.0,0.0,0.0,0.0,0.0,0.0,0.0,0.0,0.0,0.0,0.0,0.0,0.0,0.0,0.0,0.0,0.0,0.0,0.0,0.0,-1.201,-1.2363,0.0,0.0,0.0,0.0,0.0,0.0,0.0,0.0,0.0,0.0,0.0,0.0,0.0,0.0,0.0,0.0,0.0,0.0,0.0,0.0,0.0,0.0,0.0,0.0,0.0,0.0,0.0,0.0,0.0,0.0,0.0,0.0,0.0,0.0,0.0,0.0,0.0,0.0,0.0,0.0,-1.8303,-1.9055,-1.977,-2.0414,-2.1064,-2.1973,-2.3352,-2.4154,-2.4913,-2.5583,-2.618,0.0,0.0,0.0,0.0,0.0,0.0,0.0,0.0,0.0,0.0,0.0,0.0,0.0,0.0,0.0,0.0,0.0,0.0,0.0,0.0,0.0,0.0,0.0,0.0,0.0,0.0,0.0,0.0,0.0,0.0,0.0,0.0,0.0,0.0,0.0,0.0,0.0,0.0,0.0,0.0,0.0,0.0,0.0,0.0,0.0,0.0,0.0,0.0,0.0,0.0,0.0,0.0,0.0,-1.0083,-1.0067,-1.0067,-1.0269,-1.1198,-1.2532,-1.2427,-1.2811,-1.3794,-1.5121,0.0,0.0,0.0,0.0,0.0,0.0,0.0,0.0,0.0,0.0,0.0,0.0,0.0,0.0,0.0,0.0,0.0,0.0,0.0,0.0,0.0,0.0,-1.7326,-1.7326,-1.7153,-1.7066,-1.7239,0.0,0.0,0.0,0.0,0.0,0.0,0.0,0.0,0.0,0.0,0.0,-1.9147,-1.996,-2.0503,-2.0773,-2.1798,-2.2903,-2.389,-2.5079,-2.5798,-2.5882,-2.6732,-2.685,0.0,0.0,0.0,0.0,0.0,0.0,0.0,0.0,0.0,0.0,0.0,0.0,0.0,0.0,0.0,0.0,0.0,0.0,0.0,0.0,0.0,0.0,0.0,0.0,0.0,0.0,0.0,0.0,0.0,0.0,0.0,0.0,-0.3123,-0.3527,0.0,0.0,0.0,0.0,0.0,0.0,0.0,0.0,0.0,0.0,0.0,0.0,0.0,-0.9534,-0.9583,-0.9662,-0.9774,-0.992,-0.977,-0.9697,-0.9697,-1.0672,-1.1531,-1.2386,-1.3937,0.0,-1.59,-1.6662,0.0,0.0,0.0,0.0,0.0,0.0,0.0,0.0,0.0,0.0,0.0,0.0,0.0,0.0,0.0,0.0,0.0,0.0,0.0,0.0,0.0,0.0,-1.7326,-1.7326,-1.7232,-1.7239,-1.7326,-1.6958,-1.6683,-1.6676,-1.7318,-1.7684,0.0,0.0,0.0,0.0,0.0,0.0,-2.0845,-2.132,-2.1872,-2.296,-2.3193,-2.3761,-2.4654,-2.5289,-2.5712,-2.5855,-2.6678,-2.6846,-2.5939,-2.6712,0.0,0.0,0.0,0.0,0.0,0.0,0.0,0.0,0.0,0.0,0.0,0.0,0.0,0.0,0.0,0.0,0.0,0.0,0.0,0.0,0.0,0.0,0.0,0.0,0.0,0.0,0.0,0.0,0.0,-0.2416,-0.3323,-0.5031,-0.5632,-0.5934,0.0,0.0,0.0,0.0,0.0,0.0,0.0,0.0,0.0,-0.863,-0.8928,-0.9264,-0.9542,-0.9565,-0.9665,-0.9738,-0.9665,-0.9628,-0.9628,-1.0113,-1.1179,-1.2823,-1.3782,-1.5134,-1.6683,-1.7145,-1.7326,-1.7326,0.0,0.0,0.0,0.0,-1.8172,-1.8827,-1.9188,-1.9737,-2.0292,-2.0011,0.0,0.0,0.0,0.0,0.0,0.0,0.0,-1.7326,-1.7326,-1.7326,-1.7419,-1.7971,-1.8149,-1.8334,-1.878,-1.878,-1.8503,-1.7963,-1.8141,-1.8503,-1.8788,-1.9513,0.0,0.0,0.0,-2.1141,-2.1498,-2.2227,-2.2882,-2.3456,-2.362,-2.3971,-2.4846,-2.5063,-2.542,-2.5913,-2.6541,-2.6691,-2.624,-2.6891,-2.7056,0.0,0.0,0.0,0.0,0.0,0.0,0.0,0.0,0.0,0.0,0.0,0.0,0.0,0.0,0.0,0.0,0.0,0.0,0.0,0.0,0.0,0.0,0.0,0.0,0.0,0.0,0.0,0.0,-0.3019,-0.4123,-0.6134,-0.6437,-0.6437,0.0,0.0,0.0,0.0,0.0,0.0,-0.8038,-0.8038,-0.8333,-0.8825,-0.8825,-0.9126,-0.9628,-0.9628,-0.9628,-0.9628,-0.9628,-0.9628,-0.9628,-1.0113,-1.1375,-1.321,-1.3974,-1.5324,-1.7066,-1.7239,-1.7326,-1.7326,-1.7326,-1.7326,-1.7326,-1.7707,-1.8272,-1.8827,-1.9279,-1.9828,-2.0201,-1.992,-1.9646,-1.9279,-1.8827,0.0,0.0,0.0,0.0,-1.7326,-1.7598,-1.7512,-1.7505,-1.8519,-1.8788,-1.8972,-1.9687,-2.0051,-1.996,-1.933,-1.933,-1.9695,-2.0141,-2.0593,0.0,-2.0593,-2.1418,-2.2059,-2.2148,-2.2969,-2.3533,-2.366,-2.3814,-2.4191,-2.4771,-2.4898,-2.5272,-2.584,-2.6303,-2.6653,-2.6644,-2.6974,-2.7231,-2.7231,0.0,0.0,0.0,0.0,0.0,0.0,0.0,0.0,0.0,0.0,0.0,0.0,0.0,0.0,0.0,0.0,0.0,0.0,0.0,0.0,0.0,0.0,0.0,0.0,0.0,0.0,0.0,0.0,0.0,-0.6337,-0.6437,0.0,0.0,0.0,0.0,-0.7543,-0.7646,-0.7746,-0.7939,-0.8237,-0.8528,-0.8825,-0.9031,-0.9331,-0.9628,-0.9628,-0.9628,-0.9628,-0.9628,-0.9628,-0.9628,-1.1663,-1.2915,-1.3584,-1.5615,-1.677,-1.7333,-1.7326,-1.7326,-1.7326,-1.7326,-1.7326,-1.7326,-1.7326,-1.7986,-1.8827,-1.8827,-1.9471,-2.0292,-2.0292,-1.9654,-1.8735,-1.8272,-1.78,0.0,0.0,-1.7326,-1.7512,-1.8519,-1.8064,-1.7505,-1.8519,-1.8788,-1.8788,-1.888,-1.9604,-2.0232,-2.0141,-2.0872,-2.1239,-2.0331,0.0,-2.2687,-2.1784,-2.2422,-2.3135,-2.3406,-2.3466,-2.366,-2.413,-2.4171,-2.4268,-2.4464,-2.4922,-2.5413,-2.5901,-2.6334,-2.6749,-2.7172,-2.7149,-2.7231,-2.7231,-2.7231,0.0,0.0,0.0,0.0,0.0,0.0,0.0,0.0,0.0,0.0,0.0,0.0,0.0,0.0,0.0,0.0,0.0,0.0,0.0,0.0,0.0,0.0,0.0,0.0,0.0,0.0,0.0,0.0,-0.6337,-0.6437,0.0,-0.6742,-0.6942,-0.7241,-0.7547,-0.7743,-0.7942,-0.8038,-0.8137,-0.8333,-0.8825,-0.8928,-0.913,-0.9628,-0.9628,-0.9628,-0.9628,-0.9628,-0.9916,-1.069,-1.1565,-1.2818,-1.4364,-1.5412,-1.6285,-1.716,-1.7239,-1.7326,-1.7326,-1.7326,-1.7326,-1.7419,-1.7986,-1.845,-1.892,-1.9554,-2.0019,-2.0292,-2.0292,-1.9828,-1.9279,-1.9096,-1.8896,-1.8619,-1.7978,-1.8064,-1.8334,-1.8696,-1.8511,-1.8696,-2.024,-2.0701,-2.0791,-2.1418,-2.1872,-2.205,-2.205,-2.1872,-2.1784,-2.205,-2.2687,-2.296,-2.2687,-2.3047,-2.3406,-2.3503,-2.3784,-2.4054,-2.4206,-2.4313,-2.4389,-2.4454,-2.4922,-2.5413,-2.588,-2.6304,-2.6774,-2.7161,-2.7231,-2.7231,-2.7231,-2.7231,-2.7231,0.0,0.0,0.0,0.0,0.0,0.0,0.0,0.0,0.0,0.0,0.0,0.0,0.0,0.0,0.0,0.0,0.0,0.0,0.0,0.0,0.0,0.0,0.0,0.0,0.0,-0.483,-0.5432,-0.6337,-0.6437,-0.6537,-0.6942,-0.7138,-0.7338,-0.7743,-0.7942,-0.8038,-0.8038,-0.8038,-0.8237,-0.8825,-0.8825,-0.9027,-0.9628,-0.9628,-0.9628,-0.9628,-0.9628,-1.0207,-1.1365,-1.1853,-1.3108,-1.4943,-1.5609,-1.6379,-1.7066,-1.7239,-1.7326,-1.7326,-1.7326,-1.7326,-1.7419,-1.8265,-1.8643,-1.892,-1.9928,-2.0292,-2.0292,-2.011,-1.9828,-1.9554,-1.9371,-1.9446,-1.953,-1.8812,-1.898,-1.9422,-1.9695,-1.9521,-1.9695,-2.1329,-2.1695,-2.1872,-2.2501,-2.2872,-2.3144,-2.3232,-2.2687,-2.2511,-2.3047,-2.3222,-2.3319,-2.3135,-2.3406,-2.358,-2.358,-2.3937,-2.4206,-2.4292,-2.4584,-2.4734,-2.4734,-2.4977,-2.5444,-2.6085,-2.6263,-2.6595,-2.7149,-2.7231,-2.7231,-2.7231,-2.7231,-2.7231,-2.7231,0.0,0.0,0.0,0.0,0.0,0.0,0.0,0.0,0.0,0.0,0.0,0.0,0.0,0.0,0.0,0.0,0.0,0.0,0.0,0.0,0.0,0.0,0.0,-0.4834,-0.5734,-0.6437,-0.6437,-0.6437,-0.6637,-0.7138,-0.7238,-0.7437,-0.7942,-0.8038,-0.8038,-0.8038,-0.8038,-0.8237,-0.8825,-0.8825,-0.9027,-0.9628,-0.9628,-0.9628,-0.9628,-0.9628,-1.0404,-1.1658,-1.2732,-1.398,-1.5501,-1.6581,-1.716,-1.7326,-1.7326,-1.7326,-1.7326,-1.7326,-1.7326,-1.7426,-1.7893,-1.8458,-1.9012,-1.9928,-2.0292,-2.0201,-1.9737,-1.9646,-1.9546,-1.9012,-1.9355,-1.9886,-1.9621,-2.0068,-2.0773,-2.1507,-2.0962,-2.0503,-2.1516,-2.1695,-2.1695,-2.1695,-2.2422,-2.3144,-2.3416,-2.3503,-2.3416,-2.3144,-2.3493,-2.3667,-2.3232,-2.3493,0.0,-2.3841,-2.4024,-2.4282,-2.4454,-2.4935,-2.5187,-2.5176,-2.5176,-2.5594,-2.6419,-2.6152,-2.6313,-2.7149,-2.7231,-2.7231,-2.7231,-2.7231,-2.7231,-2.7231,0.0,0.0,0.0,0.0,0.0,0.0,0.0,0.0,0.0,0.0,0.0,0.0,0.0,0.0,0.0,0.0,0.0,0.0,0.0,0.0,0.0,-0.5233,-0.5934,-0.5934,-0.6234,-0.6437,-0.6437,-0.6539,-0.6839,-0.7138,-0.7341,-0.7643,-0.7942,-0.8038,-0.8038,-0.8038,-0.8038,-0.8237,-0.8825,-0.8825,-0.9027,-0.9628,-0.9628,-0.9628,-0.9628,-1.0596,-1.1663,-1.2727,-1.4166,-1.5412,-1.6581,-1.7052,-1.7239,-1.7326,-1.7326,-1.7326,-1.7333,-1.7707,-1.7893,-1.7986,-1.8812,-1.9463,-1.9928,-2.0201,-2.0292,-2.0292,-2.0102,-2.0192,-2.0184,-1.9546,-2.0439,-2.1409,-2.0158,-2.0692,-2.1676,-2.1854,-2.1596,-2.1507,-2.2501,-2.2687,-2.2687,-2.2687,-2.296,-2.3144,-2.3416,-2.358,-2.3667,-2.3667,-2.3754,-2.3754,-2.3667,-2.3841,-2.411,-2.411,-2.4282,-2.4454,-2.4454,-2.4594,-2.484,-2.5185,-2.5474,-2.5909,-2.6501,-2.673,-2.6974,-2.7149,-2.7231,-2.7231,-2.7231,-2.7231,-2.7231,0.0,0.0,0.0,0.0,0.0,0.0,0.0,0.0,0.0,0.0,0.0,0.0,0.0,0.0,0.0,0.0,0.0,0.0,0.0,0.0,0.0,0.0,-0.5837,-0.6539,-0.6539,-0.6437,-0.6437,-0.6437,-0.6639,-0.6942,-0.7138,-0.7444,-0.7743,-0.7942,-0.8038,-0.8038,-0.8038,-0.8137,-0.8333,-0.8825,-0.8928,-0.913,-0.9628,-0.9628,-0.9628,-0.9628,-1.0886,-1.2047,-1.3301,-1.4644,-1.59,-1.7153,-1.7239,-1.7326,-1.7326,-1.7326,-1.7326,0.0,0.0,0.0,0.0,0.0,-1.992,-2.0292,-2.0292,-2.0292,-2.0292,-2.0292,-2.0555,-2.0907,-2.0447,-2.1516,-2.2589,-2.1516,-2.205,-2.294,-2.2755,-2.2677,-2.2677,-2.3222,-2.3396,-2.3396,-2.3396,-2.3396,-2.3493,-2.3764,-2.3851,0.0,-2.41,-2.41,-2.4013,-2.3841,-2.411,-2.4292,-2.4206,-2.454,-2.4786,-2.4786,-2.5115,-2.5484,-2.5688,-2.6013,0.0,0.0,0.0,-2.6999,-2.7231,-2.7231,0.0,0.0,0.0,-2.7405,-2.7552,0.0,0.0,0.0,-2.7924,-2.7565,0.0,0.0,0.0,0.0,0.0,0.0,0.0,0.0,0.0,0.0,0.0,0.0,0.0,0.0,0.0,0.0,-0.6237,-0.6842,-0.6842,-0.6639,-0.6537,-0.6537,-0.6742,-0.6945,-0.7238,-0.7444,-0.7743,-0.7939,-0.8038,-0.8038,-0.8038,-0.8237,0.0,0.0,0.0,-0.9335,-0.9628,-0.9628,-0.9628,-0.9723,-1.0886,-1.2237,-1.3584,-1.4746,-1.5994,-1.7326,-1.7326,-1.7326,-1.7426,-1.7426,-1.7419,-1.7606,-1.7986,-1.8272,-1.8458,-1.9371,-1.992,-2.0292,-2.0292,0.0,0.0,-2.0374,-2.0997,-2.1624,-2.1535,-2.252,-2.359,-2.3232,-2.3667,-2.412,-2.3937,-2.3841,-2.3841,-2.3841,-2.3841,-2.3841,-2.3841,-2.3841,-2.3841,-2.412,-2.4206,-2.4292,-2.4454,-2.454,-2.4368,-2.3927,-2.4272,-2.454,-2.4378,-2.4871,-2.5285,-2.5285,0.0,0.0,-2.6528,-2.6509,-2.6662,-2.7138,-2.6767,-2.6755,-2.7138,-2.7231,-2.7301,-2.7371,-2.7603,-2.793,-2.8372,-2.9152,-2.9699,-3.0073,-2.8596,-2.7811,0.0,0.0,0.0,0.0,0.0,0.0,0.0,0.0,0.0,0.0,0.0,0.0,0.0,0.0,0.0,-0.6736,-0.6939,-0.7138,-0.7138,-0.7039,-0.7036,-0.7036,-0.7241,-0.7444,-0.7543,-0.7743,-0.7939,-0.8038,-0.8038,-0.8038,-0.8038,-0.8237,-0.8531,-0.8825,-0.9031,-0.9335,-0.9628,-0.9628,-0.9826,-1.0314,-1.2139,0.0,-1.4166,-1.5988,-1.7044,-1.7326,-1.7326,-1.752,-1.7994,-1.7994,-1.8442,-1.9088,-1.8819,-1.9196,-1.992,-2.0102,-2.0201,-2.0292,-2.0292,-2.0709,-2.1212,-2.1168,-2.2069,-2.296,-2.2403,-2.3202,0.0,-2.359,-2.3764,-2.4206,-2.411,-2.3937,-2.3841,-2.3841,-2.3841,-2.3841,-2.3841,-2.3841,-2.3841,-2.412,-2.4206,-2.4292,-2.4454,-2.454,-2.4454,-2.4368,-2.4786,-2.5031,-2.5031,-2.5464,-2.5728,-2.5728,-2.5895,-2.6135,-2.6445,-2.6505,-2.6682,-2.7138,-2.7115,-2.7115,-2.7231,-2.7371,-2.7742,-2.8414,-2.8676,-2.9406,-3.0561,-3.0798,-3.1228,-3.1763,-3.1101,-3.0503,0.0,0.0,0.0,0.0,0.0,0.0,0.0,0.0,0.0,0.0,0.0,-0.4131,-0.5231,0.0,-0.6337,-0.7241,-0.7441,-0.7441,-0.7441,-0.7441,-0.7341,-0.7238,-0.7444,-0.7646,-0.7646,-0.7842,-0.8038,-0.8038,-0.8137,-0.8237,-0.8237,-0.8535,-0.8832,-0.9031,-0.9232,-0.9628,-1.0019,-1.0019,-1.0314,-1.0801,-1.2732,-1.3884,-1.4364,-1.6292,-1.7239,-1.7326,-1.7326,-1.7613,-1.8087,-1.8365,-1.8912,-1.9546,-1.9279,-1.9646,-2.0292,-2.0292,-2.0292,-2.0292,-2.0292,-2.0755,-2.1389,-2.1409,-2.2334,-2.3406,-2.3038,-2.3657,-2.4454,-2.411,-2.4196,-2.4368,-2.4368,-2.4282,-2.4186,-2.4186,-2.4186,-2.4186,-2.4186,-2.4186,-2.4196,-2.4282,-2.4529,-2.47,-2.4871,-2.5052,-2.5137,-2.4871,-2.5211,-2.5549,-2.5549,-2.5968,-2.6218,-2.6218,-2.6396,-2.6644,-2.6798,-2.6951,-2.7196,-2.7557,-2.7557,-2.7557,-2.7557,-2.7626,-2.8075,-2.8888,-2.9147,-3.0002,-3.1588,-3.2081,-3.2675,-3.3405,-3.311,-3.2264,0.0,0.0,0.0,0.0,0.0,0.0,0.0,-0.5138,-0.4537,-0.4334,-0.3932,-0.3932,-0.5236,-0.5634,-0.6137,-0.7241,-0.7543,-0.7646,-0.7646,-0.7646,-0.7643,-0.7338,-0.7543,-0.7646,-0.7646,-0.7842,-0.8038,-0.8038,-0.8237,-0.8432,-0.8432,-0.8935,-0.9236,-0.9236,-0.943,-0.9826,-1.0413,-1.0413,-1.0703,-1.1389,-1.313,-1.4184,-1.4555,-1.6298,-1.7153,-1.7426,-1.7699,-1.7978,-1.845,-1.892,-1.9379,-1.9737,-1.9737,-2.0011,-2.0292,-2.0292,-2.0292,-2.0292,-2.0292,-2.0917,-2.1609,-2.1551,-2.258,-2.3677,-2.3677,-2.411,-2.454,-2.454,-2.454,-2.454,-2.454,-2.4478,-2.4416,-2.4416,-2.4343,-2.4355,-2.4355,-2.444,-2.444,-2.444,-2.4766,-2.5007,-2.5007,-2.5435,-2.5666,-2.5348,-2.5717,-2.6063,-2.6063,-2.6373,-2.6622,-2.6622,-2.7044,-2.7301,-2.7313,-2.7452,-2.7696,-2.7893,-2.7893,-2.7893,-2.7893,-2.8111,-2.8566,-2.9394,-2.9756,-3.0817,-3.2542,-3.3183,-3.4045,-3.5019,-3.462,-3.3445,-0.7308,-0.7331,-0.7217,-0.6939,-0.6939,-0.6936,0.0,-0.5837,-0.5436,-0.514,-0.5035,-0.4931,-0.4935,-0.5832,-0.6631,-0.6537,-0.7338,-0.7939,-0.7939,-0.7939,-0.7939,-0.7939,-0.7939,-0.7939,-0.7939,-0.7939,-0.8038,-0.8038,-0.8237,-0.8432,-0.8432,-0.8935,-0.9236,-0.9236,-0.943,-0.9826,-1.0413,-1.0413,-1.09,-1.1883,-1.3505,-1.4561,-1.5051,-1.6574,-1.752,-1.8087,-1.8996,-1.9363,-1.9455,-1.992,-2.0201,-2.0201,-2.0201,-2.0292,-2.0292,-2.0292,-2.0292,-2.0292,-2.0292,-2.1159,-2.2268,-2.2271,-2.3201,-2.4368,-2.4368,-2.4454,-2.454,-2.454,-2.454,-2.454,-2.454,-2.425,-2.395,-2.395,-2.3876,-2.3896,-2.3896,-2.4138,-2.4378,-2.4378,-2.4458,-2.4458,-2.4458,-2.4834,-2.5281,-2.5764,-2.6135,-2.6445,-2.6445,-2.6798,-2.7138,-2.7138,-2.729,-2.7534,-2.78,-2.78,-2.7893,-2.7893,-2.7893,-2.7893,-2.7893,-2.8779,-2.9614,-3.0456,-3.1328,-3.2818,-3.4827,-3.454,-3.5022,-3.6138,-3.5182,-3.3998,-0.723,-0.6915,-0.6819,-0.6944,-0.6583,-0.6334,-0.6337,-0.5934,-0.5536,-0.524,-0.5035,-0.4933,-0.4834,-0.5233,-0.5632,-0.5529,-0.6334,-0.7039,-0.7039,-0.764,-0.8038,-0.8038,-0.8038,-0.8038,-0.8038,-0.8038,-0.8038,-0.8233,-0.8531,-0.873,-0.8832,-0.9232,-0.9529,-0.992,-1.0019,-1.0511,-1.1292,-1.1292,-1.1683,-1.2467,-1.3516,-1.4561,-1.552,-1.656,-1.7598,-1.855,-1.9271,-1.9637,-1.9637,-2.0102,-2.0292,-2.0292,-2.0473,-2.0564,-2.0564,-2.0564,-2.049,-2.0624,-2.132,-2.2115,-2.3114,-2.3617,-2.4519,-2.5306,-2.5306,-2.5306,-2.5306,-2.5306,-2.5103,-2.4879,-2.4879,-2.4538,-2.4196,-2.4196,-2.4207,-2.419,-2.4132,-2.4266,-2.4399,-2.4381,-2.4558,-2.4747,-2.4747,-2.5138,-2.553,-2.5723,-2.6187,-2.6632,-2.6846,-2.7208,-2.7464,-2.7557,-2.7708,-2.7869,-2.803,-2.8111,-2.8111,-2.8271,-2.8724,-2.8949,-2.8949,-2.9756,-3.0657,-3.1489,-3.1856,-3.2959,-3.4618,-3.4822,-3.5376,-3.6241,-3.5586,-3.4897,-0.6923,-0.6521,-0.6317,-0.652,-0.62,-0.5892,-0.609,-0.5914,-0.5636,-0.5338,-0.4834,-0.4433,-0.4332,-0.4332,-0.4329,-0.4325,-0.5304,-0.6085,-0.6286,-0.7081,-0.7677,-0.7878,-0.8014,-0.8038,-0.8038,-0.8038,-0.8233,-0.8531,-0.873,-0.9031,-0.9236,-0.943,-0.9826,-1.0216,-1.0314,-1.0801,-1.1785,-1.1883,-1.2273,-1.2764,-1.3522,-1.4567,-1.5792,-1.7117,-1.8156,-1.9012,-1.9554,-1.9828,-1.992,-2.0283,-2.0464,-2.0464,-2.0736,-2.0736,-2.0826,-2.0835,-2.0852,-2.0887,-2.1689,-2.2608,-2.3523,-2.4227,-2.5104,-2.5895,-2.5895,-2.5808,-2.5688,-2.5688,-2.5338,-2.4875,-2.4875,-2.4527,-2.4179,-2.4179,-2.4148,-2.4193,-2.4187,-2.4292,-2.4382,-2.4377,-2.4576,-2.4799,-2.4876,-2.5127,-2.5424,-2.5627,-2.5962,-2.6389,-2.6829,-2.7163,-2.7544,-2.7938,-2.7962,-2.8191,-2.8554,-2.8633,-2.8791,-2.9106,-2.9704,-2.9999,-2.9999,-3.082,-3.1489,-3.2074,-3.2318,-3.2994,-3.4167,-3.4857,-3.555,-3.6079,-3.6046,-3.599,-0.5852,-0.5894,-0.5905,-0.5235,-0.5699,-0.6174,-0.5679,-0.5862,-0.5939,-0.5636,-0.4531,-0.3528,-0.333,-0.3226,-0.3224,-0.3224,-0.416,-0.518,-0.6063,-0.6357,-0.6748,-0.7721,-0.795,-0.8038,-0.8038,-0.8233,-0.8531,-0.8726,-0.9031,-0.9236,-0.9236,-0.943,-0.9628,-0.9628,-1.0117,-1.0703,-1.1198,-1.178,-1.2273,-1.2764,-1.3522,-1.4567,-1.5893,-1.8419,-1.9546,-1.9637,-2.0102,-2.0473,-2.0654,-2.0654,-2.0826,-2.0997,-2.0997,-2.0997,-2.0997,-2.1293,-2.1177,-2.1042,-2.0989,-2.2039,-2.3438,-2.3453,-2.4532,-2.5895,-2.5895,-2.5557,-2.5082,-2.5082,-2.4756,-2.4396,-2.4396,-2.4037,-2.3755,-2.3755,-2.3696,-2.3638,-2.3649,-2.3954,-2.4246,-2.4223,-2.4235,-2.4319,-2.4464,-2.4548,-2.4783,-2.5409,-2.5491,-2.5616,-2.6012,-2.6667,-2.7408,-2.8119,-2.8179,-2.8554,-2.9549,-2.9626,-2.9999,-3.082,-3.082,-3.0882,-3.0882,-3.1636,-3.2074,-3.2074,-3.286,-3.355,-3.4167,-3.4857,-3.555,-3.6079,-3.6697,-3.6978,-0.6847,-0.6325,-0.5779,-0.5885,-0.5202,-0.4899,-0.5761,-0.5499,-0.5138,-0.5335,-0.4706,-0.3861,-0.2971,-0.2772,-0.2474,-0.1981,-0.2919,-0.3741,-0.4124,-0.5429,-0.6549,-0.684,-0.755,-0.8137,-0.8531,-0.8432,-0.8528,-0.8825,-0.9031,-0.9236,-0.943,-0.9529,-0.9723,-1.0105,-1.0614,-1.1198,-1.175,-1.2262,-1.2662,-1.2861,-1.4752,-1.625,-1.7561,-1.9255,-2.0102,-2.0102,-2.0382,-2.0654,-2.0744,-2.0826,-2.0907,-2.0997,-2.1195,-2.1293,-2.1374,-2.2246,-2.2492,-2.2403,-2.2377,-2.3174,-2.4248,-2.4823,-2.5577,-2.6313,-2.6289,-2.5961,-2.5475,-2.5475,-2.5115,-2.472,-2.472,-2.436,-2.3999,-2.3999,-2.4022,-2.397,-2.397,-2.4177,-2.4383,-2.4432,-2.4539,-2.4646,-2.4718,-2.4718,-2.4776,-2.5013,-2.5612,-2.6106,-2.637,-2.7055,-2.78,-2.8568,-2.9214,-2.9869,-3.0631,-3.0807,-3.1031,-3.1241,-3.1783,-3.2101,-3.2101,-3.2846,-3.3283,-3.3283,-3.3521,-3.3788,-3.3987,-3.5009,-3.5605,-3.5833,-3.6731,-3.7303,-0.7514,-0.6734,-0.5836,-0.5852,-0.5187,-0.4703,-0.5174,-0.5202,-0.5038,-0.466,-0.3938,-0.3294,-0.2622,-0.1844,-0.1261,-0.1069,-0.1718,-0.2447,-0.2823,-0.4182,-0.5281,-0.5706,-0.6789,-0.7579,-0.8021,-0.8329,-0.873,-0.9027,-0.9229,-0.943,-0.9628,-0.9735,-1.0031,-1.0413,-1.1124,-1.1609,-1.1955,-1.2554,-1.3147,-1.3619,-1.569,-1.7274,-1.8488,-1.9812,-2.0473,-2.0473,-2.0736,-2.0826,-2.0934,-2.1105,-2.1186,-2.1275,-2.1472,-2.1482,-2.1651,-2.2668,-2.2998,-2.3026,-2.3437,-2.4072,-2.484,-2.5387,-2.5822,-2.6198,-2.6184,-2.585,-2.5429,-2.5429,-2.5061,-2.4659,-2.4659,-2.4503,-2.4273,-2.4307,-2.4368,-2.4429,-2.4429,-2.4502,-2.4622,-2.4587,-2.4694,-2.479,-2.4861,-2.4921,-2.4992,-2.4992,-2.5817,-2.6456,-2.6661,-2.7395,-2.8164,-2.8953,-2.9587,-3.0315,-3.1334,-3.1519,-3.1829,-3.2349,-3.2832,-3.3143,-3.3143,-3.3605,-3.3896,-3.3896,-3.3896,-3.3896,-3.3896,-3.4896,-3.5496,-3.5725,-3.6632,-3.7244,-0.7841,-0.7048,-0.6251,-0.5364,-0.5536,-0.5616,-0.4236,-0.5048,-0.5497,-0.3602,-0.2556,-0.1895,-0.1808,-0.0475,0.0285,-0.0571,-0.0749,-0.12,-0.2306,-0.2585,-0.3164,-0.4362,-0.5605,-0.6399,-0.6816,-0.7925,-0.8924,-0.9529,-0.9628,-0.9628,-0.9628,-1.0147,-1.0457,-1.0457,-1.1452,-1.2031,-1.2001,-1.2764,-1.3811,-1.5134,-1.6344,-1.7554,-1.858,-2.0076,-2.0744,-2.0744,-2.0907,-2.1195,-2.1392,-2.1392,-2.1562,-2.1741,-2.1713,-2.1704,-2.1793,-2.2698,-2.2859,-2.2879,-2.4102,-2.4809,-2.5103,-2.5049,-2.5358,-2.5654,-2.5715,-2.5292,-2.4877,-2.4877,-2.4545,-2.42,-2.42,-2.4345,-2.4513,-2.4499,-2.4644,-2.4765,-2.4765,-2.4837,-2.4825,-2.4801,-2.4861,-2.4921,-2.5123,-2.5253,-2.5312,-2.5312,-2.6032,-2.669,-2.6893,-2.7729,-2.8572,-2.9289,-2.9355,-3.0001,-3.1585,-3.1709,-3.2332,-3.3796,-3.3908,-3.3854,-3.3896,-3.3965,-3.3965,-3.3965,-3.3965,-3.3965,-3.3965,-3.4511,-3.5125,-3.5725,-3.6382,-3.7025,-0.9419,-0.8719,-0.7837,-0.7489,-0.6979,-0.6468,-0.6114,-0.551,-0.4716,-0.3725,-0.2021,-0.0557,0.0186,0.0465,0.0744,0.0837,0.0,-0.0904,-0.1355,-0.2197,-0.2885,-0.3414,-0.454,-0.5608,-0.6716,-0.7325,-0.8124,-0.9232,-0.9529,-0.9735,-1.0147,-1.0353,-1.0564,-1.0982,-1.1605,-1.1955,-1.2047,-1.3499,-1.493,-1.6438,-1.7755,-1.8972,-2.0085,-2.0637,-2.0907,-2.0916,-2.1195,-2.1302,-2.1392,-2.1562,-2.1651,-2.1704,-2.1392,-2.136,-2.1593,-2.2191,-2.2817,-2.358,-2.4601,-2.4984,-2.4978,-2.4957,-2.5233,-2.558,-2.5529,-2.5203,-2.4833,-2.4833,-2.4739,-2.4646,-2.4646,-2.4669,-2.4681,-2.4704,-2.4753,-2.4813,-2.4813,-2.4897,-2.4992,-2.5052,-2.5241,-2.5407,-2.5465,-2.5618,-2.5758,-2.5758,-2.6414,-2.685,-2.6703,-2.7908,-2.9084,-2.9777,-3.0387,-3.1124,-3.2008,-3.2197,-3.268,-3.3541,-3.3584,-3.3787,-3.4264,-3.4278,-3.4278,-3.4278,-3.4278,-3.4278,-3.4278,-3.4915,-3.5551,-3.6172,-3.6691,-3.7325,-1.145,-1.101,-1.0479,-0.9474,-0.8943,-0.8404,-0.772,-0.6495,-0.508,-0.3209,-0.1078,0.0725,0.1995,0.2269,0.218,0.2001,0.0722,-0.0269,-0.0538,-0.1267,-0.1844,-0.2182,-0.3263,-0.4584,-0.6111,-0.6825,-0.7822,-0.9232,-0.9529,-0.9834,-1.0353,-1.0641,-1.1025,-1.1521,-1.216,-1.2624,-1.2829,-1.4226,-1.5655,-1.7095,-1.8334,-1.9554,-2.0744,-2.1015,-2.1195,-2.1195,-2.1472,-2.1562,-2.1553,-2.145,-2.1465,-2.1517,-2.1093,-2.1117,-2.1438,-2.2491,-2.3137,-2.3705,-2.4981,-2.5261,-2.5072,-2.5165,-2.5166,-2.5194,-2.5177,-2.5025,-2.4801,-2.4813,-2.479,-2.4826,-2.4826,-2.4861,-2.4908,-2.4932,-2.5016,-2.5158,-2.5158,-2.5334,-2.5451,-2.5487,-2.5849,-2.6195,-2.6195,-2.6552,-2.6812,-2.6812,-2.7537,-2.8038,-2.788,-2.8556,-2.9232,-2.9642,-3.0472,-3.1257,-3.1971,-3.2465,-3.2981,-3.3688,-3.3981,-3.4303,-3.4587,-3.4601,-3.4616,-3.4549,-3.4549,-3.4481,-3.4414,-3.4845,-3.5554,-3.6472,-3.6765,-3.7492,-1.3607,-1.3503,-1.3316,-1.1673,-1.1332,-1.1059,-0.9593,-0.7545,-0.517,-0.2472,0.0615,0.3163,0.4082,0.4448,0.4364,0.3296,0.1787,0.0538,0.009,-0.0179,-0.0546,-0.104,-0.1996,-0.3277,-0.5187,-0.6313,-0.7723,-0.9327,-0.9628,-0.9937,-1.0461,-1.1021,-1.1575,-1.2129,-1.2813,-1.342,-1.3931,-1.4973,-1.6096,-1.7368,-1.8711,-1.9837,-2.0835,-2.1293,-2.1454,-2.14,-2.1658,-2.1719,-2.1636,-2.1268,-2.1293,-2.1513,-2.109,-2.118,-2.1603,-2.3036,-2.352,-2.3612,-2.5106,-2.5565,-2.5394,-2.5431,-2.523,-2.4838,-2.4838,-2.4886,-2.4873,-2.4908,-2.4921,-2.4933,-2.4945,-2.5064,-2.5195,-2.523,-2.5419,-2.566,-2.566,-2.5812,-2.5906,-2.5898,-2.6483,-2.6989,-2.6989,-2.7577,-2.8117,-2.8117,-2.8876,-2.9442,-2.9442,-2.9373,-2.9401,-2.9498,-3.019,-3.095,-3.1775,-3.2485,-3.3181,-3.3918,-3.4493,-3.4846,-3.4935,-3.4935,-3.4868,-3.4698,-3.4698,-3.4631,-3.4481,-3.4631,-3.5356,-3.6614,-3.684,-3.7588,-1.5112,-1.4939,-1.4932,-1.4608,-1.4518,-1.4345,-1.34,-0.6916,-0.1369,-0.2305,0.4538,1.0145,0.8001,0.7088,0.621,0.5066,0.3472,0.1876,0.0538,0.009,-0.0181,-0.0464,-0.1132,-0.2114,-0.3829,-0.5079,-0.6722,-0.8825,-0.9719,-1.0533,-1.0982,-1.1545,-1.2196,-1.2926,-1.3284,-1.359,-1.3931,-1.507,-1.6337,-1.7634,-1.905,-2.0305,-2.1302,-2.175,-2.1734,-2.141,-2.168,0.0,-2.1259,-2.1184,-2.1547,-2.2132,-2.1678,-2.2048,-2.2861,-2.3015,-2.3494,-2.4246,-2.4704,-2.5313,-2.5758,-2.5465,-2.5253,-2.5241,-2.5217,-2.5229,-2.5265,-2.5396,-2.5479,-2.5479,-2.5681,-2.5717,-2.5764,-2.5737,-2.584,-2.5873,-2.5824,-2.5849,-2.5898,-2.591,-2.6676,-2.7311,-2.7311,-2.8155,-2.8812,-2.8812,-2.9002,-2.9066,-2.9066,-3.0054,-3.0762,-3.0776,-3.0895,-3.1264,-3.1882,-3.2105,-3.2694,-3.3888,-3.408,-3.4375,-3.4905,-3.4935,-3.4868,-3.4868,-3.4868,-3.4868,-3.4802,-3.4868,-3.5545,-3.684,-3.691,-3.7588,-1.8426,-1.8347,-1.8276,-1.7404,-1.3525,-0.9781,-0.902,-0.172,0.4865,0.4867,0.8393,1.1355,1.0841,0.9761,0.864,0.7865,0.5491,0.3377,0.2407,0.1163,0.0181,-0.0185,-0.0565,-0.144,-0.3223,-0.4771,-0.6418,-0.8411,-1.01,-1.1212,-1.1644,-1.2222,-1.2872,-1.3499,-1.3811,-1.4027,-1.4328,-1.6082,-1.7179,-1.7599,-1.9529,-2.064,-2.0934,-2.1376,-2.1532,-2.1344,-2.1429,-2.1409,-2.1201,-2.1056,-2.1279,-2.1708,-2.1784,-2.221,-2.2864,-2.3615,-2.4108,-2.4636,-2.5158,-2.5606,-2.584,-2.5676,-2.5584,-2.562,-2.563,-2.5584,-2.5645,-2.5752,-2.5725,-2.5755,-2.5861,-2.5914,-2.5929,-2.5865,-2.6327,-2.678,-2.7285,-2.7445,-2.7524,-2.7524,-2.8155,-2.8721,-2.8721,-2.9504,-3.0101,-3.0101,-3.0448,-3.0725,-3.0725,-3.1657,-3.1988,-3.1137,-3.1439,-3.1974,-3.2596,-3.3075,-3.3612,-3.4252,-3.456,-3.4901,-3.5213,-3.5213,-3.5148,-3.5082,-3.5082,-3.5001,-3.4935,-3.5001,-3.5748,-3.7035,-3.7159,-3.7857,-1.5271,-1.537,-1.5311,-1.3918,-0.8119,-0.2552,-0.2141,0.4781,1.1166,1.1496,1.2301,1.3004,1.3394,1.2251,1.1064,1.0383,0.7668,0.5222,0.4261,0.2497,0.0992,0.0275,-0.0094,-0.0952,-0.2701,-0.4321,-0.6142,-0.8098,-1.0453,-1.1981,-1.2402,-1.2975,-1.3431,-1.398,-1.4136,-1.4394,-1.4545,-1.6457,-1.7379,-1.747,-1.9566,-2.0613,-2.0689,-2.1043,-2.1256,-2.117,-2.1253,-2.1205,-2.1091,-2.098,-2.1154,-2.152,-2.2119,-2.2563,-2.3095,-2.4492,-2.5016,-2.5087,-2.5816,-2.6037,-2.6037,-2.6037,-2.5959,-2.588,-2.5923,-2.5877,-2.5938,-2.5963,-2.5943,-2.5965,-2.599,-2.6057,-2.6099,-2.6107,-2.686,-2.7746,-2.8478,-2.8826,-2.9002,-2.9002,-2.9566,-3.0072,-3.0072,-3.0789,-3.1397,-3.1397,-3.2094,-3.2631,-3.2631,-3.3185,-3.3136,-3.1965,-3.2296,-3.2899,-3.3617,-3.425,-3.4658,-3.4808,-3.5334,-3.5619,-3.5619,-3.5619,-3.5554,-3.5344,-3.5344,-3.5198,-3.5052,-3.5213,-3.5963,-3.7228,-3.7351,-3.8138,0.3387,0.3387,0.3387,0.3601,0.4279,0.4842,0.4535,1.0892,1.5733,1.1546,1.6188,1.9849,1.6098,1.4357,1.299,1.1651,0.9943,0.7865,0.5225,0.3735,0.2413,0.0809,0.0275,-0.0464,-0.1674,-0.3306,-0.5239,-0.7496,-1.0774,-1.2978,-1.3693,-1.3835,-1.3884,-1.419,-1.4196,-1.4264,-1.4242,-1.4856,-1.6008,-1.7717,-1.8322,-1.9516,-2.1136,-2.1377,-2.125,-2.0986,-2.1289,-2.1313,0.0,-2.1131,-2.164,-2.238,-2.3106,-2.3818,-2.4636,-2.5676,-2.6062,-2.6131,-2.6327,-2.6521,-2.6645,-2.6645,-2.6289,-2.5906,-2.5894,-2.5901,-2.5921,-2.6133,-2.6133,-2.6202,-2.6414,-2.6561,-2.6662,-2.6896,-2.7432,-2.7959,-2.8051,-2.8556,-2.9002,-2.9002,-2.969,-3.0269,-3.0269,-3.1455,-3.2363,-3.2363,-3.3126,-3.3683,-3.3683,-3.3834,-3.4122,-3.4606,-3.4015,-3.4,-3.4773,-3.4879,-3.523,-3.5837,-3.5943,-3.5973,-3.5973,-3.5973,-3.5973,-3.591,-3.5767,-3.5623,-3.5623,-3.5539,-3.6163,-3.7404,-3.7404,-3.8138,0.4683,0.4898,0.5048,0.5163,0.9332,1.33,1.2694,1.8304,2.2831,2.0195,2.0528,2.0685,1.8417,1.6667,1.5184,1.4226,1.2251,1.0014,0.7588,0.5843,0.4092,0.1879,0.1186,0.0462,-0.0555,-0.3096,-0.6142,-0.9696,-1.1838,-1.3294,-1.4283,-1.405,-1.4019,-1.4402,-1.4428,-1.4744,-1.539,-1.6387,-1.7391,-1.8593,-1.9579,-2.0438,-2.1004,-2.1253,-2.1243,-2.1085,-2.1232,-2.1366,0.0,-2.1655,-2.2231,-2.3169,-2.4047,-2.4767,-2.5487,-2.6383,-2.6683,-2.6683,-2.6739,-2.6807,-2.6875,-2.6875,-2.6726,-2.6564,-2.6589,-2.6552,-2.6582,-2.6688,-2.6688,-2.6773,-2.7302,-2.7769,-2.8225,-2.8678,-2.9136,-2.9504,-2.9889,-3.0269,-3.0524,-3.0644,-3.097,-3.1338,-3.1827,-3.2435,-3.2943,-3.3351,-3.4046,-3.4531,-3.4531,-3.4941,-3.5337,-3.5658,-3.4987,-3.4804,-3.5518,-3.5579,-3.57,-3.5958,-3.5973,-3.5973,-3.5973,-3.5973,-3.5973,-3.5973,-3.5894,-3.5894,-3.5894,-3.5861,-3.6491,-3.779,-3.779,-3.8499,1.2056,1.2398,1.2649,1.2742,1.7533,2.1994,2.1209,2.4503,2.7209,2.5514,2.3088,2.0921,1.9747,1.7997,1.6617,1.6041,1.4058,1.1827,0.9765,0.7854,0.5764,0.3301,0.2265,0.1373,0.0458,-0.3044,-0.6857,-1.091,-1.2277,-1.3407,-1.4274,-1.4116,-1.4164,-1.4573,-1.4727,-1.5191,-1.618,-1.7302,-1.8357,-1.9293,-2.0337,-2.0869,-2.0954,-2.1128,-2.1205,-2.1205,-2.1282,-2.1568,0.0,-2.2306,-2.3021,-2.3952,-2.4838,-2.5487,-2.5894,-2.6714,-2.7024,-2.7024,-2.7079,-2.7214,-2.7268,-2.7335,-2.7403,-2.7482,-2.7509,-2.7227,-2.7011,-2.6998,-2.7149,-2.7433,-2.8211,-2.8788,-2.929,-2.9837,-3.0232,-3.0629,-3.1131,-3.1452,-3.1712,-3.1841,-3.2007,-3.2337,-3.2907,-3.3317,-3.3742,-3.4197,-3.4896,-3.5322,-3.5322,-3.5811,-3.6226,-3.6414,-3.586,-3.5644,-3.6133,-3.6163,-3.6163,-3.6163,-3.6163,-3.6163,-3.6163,-3.6163,-3.6163,-3.6163,-3.61,-3.6037,-3.6037,-3.6037,-3.658,-3.7719,-3.7931,-3.8721,3.1237,3.1546,3.1732,3.1732,3.139,3.0778,2.9775,2.8856,2.7419,2.459,2.308,2.1683,1.9678,1.8006,1.696,1.673,1.5228,1.3425,1.1475,0.942,0.7344,0.5237,0.3481,0.215,0.1164,-0.32,-0.7183,-1.0096,-1.1837,-1.2973,-1.3659,-1.4159,-1.458,-1.4929,-1.5022,-1.5517,-1.628,-1.7,-1.8091,-1.964,-1.9816,-2.0391,-2.1205,-2.1205,-2.1205,-2.1205,-2.1436,-2.2004,0.0,-2.3147,-2.3795,-2.4732,-2.5533,-2.5824,-2.5894,-2.6714,-2.7024,-2.7011,-2.7403,-2.7656,-2.7842,-2.8157,-2.843,-2.8587,-2.8587,-2.7868,-2.7011,-2.7002,-2.7472,-2.822,-2.9083,-2.9402,-2.9566,-2.9752,-3.0421,-3.097,-3.097,-3.1552,-3.1996,-3.1996,-3.2528,-3.2983,-3.2983,-3.4076,-3.4956,-3.4971,-3.5643,-3.6196,-3.6196,-3.6352,-3.6616,-3.6954,-3.6677,-3.6492,-3.6492,-3.6492,-3.6492,-3.6492,-3.6492,-3.6492,-3.6492,-3.6492,-3.6492,-3.6492,-3.6274,-3.6196,-3.6196,-3.6085,-3.6338,-3.7051,-3.7704,-3.8721,3.0063,2.9982,2.9911,3.0052,2.9389,2.8535,2.7732,2.6658,2.5302,2.3328,2.2072,2.1032,1.9897,1.8239,1.7062,1.7163,1.5809,1.4041,1.1787,1.0489,0.8839,0.6054,0.366,0.0982,-0.231,-0.4868,-0.7767,-1.1391,-1.2699,-1.3808,-1.481,-1.4977,-1.4985,-1.4748,-1.5108,-1.598,-1.7454,-1.8214,-1.9418,-2.1078,-2.1614,-2.2004,-2.2402,-2.2402,-2.2402,-2.2402,-2.2478,-2.2916,-2.3644,-2.4169,-2.5004,-2.6171,-2.6841,-2.7338,-2.7762,-2.7987,-2.8066,-2.8131,-2.8197,-2.8314,-2.8379,-2.8444,-2.8522,-2.8587,-2.8587,-2.8392,-2.8066,-2.8105,-2.8798,-2.9605,-2.9943,-3.0616,-3.1248,-3.1306,-3.1495,-3.1682,-3.1682,-3.1868,-3.2175,-3.2688,-3.3005,-3.349,-3.4557,-3.5078,-3.5584,-3.6291,-3.66,-3.6785,-3.6997,-3.7058,-3.7134,-3.7254,-3.7194,-3.7134,-3.7134,-3.6923,-3.6923,-3.7118,-3.7134,-3.7134,-3.7134,-3.7134,-3.7134,-3.7134,-3.6846,-3.6739,-3.6739,-3.6476,-3.672,-3.733,-3.8004,-3.8555,2.8688,2.8679,2.8537,2.8623,2.791,2.6941,2.6174,2.5179,2.3969,2.2252,2.1296,2.0596,1.9834,1.8294,1.7246,1.7463,1.6304,1.4643,1.2668,1.145,0.9543,0.6331,0.3844,0.0802,-0.3187,-0.5129,-0.7937,-1.2248,-1.3372,-1.4384,-1.5726,-1.5891,-1.5884,-1.556,-1.5891,-1.6935,-1.8691,-1.9376,-2.0566,-2.2252,-2.2628,-2.2852,-2.3001,-2.3001,-2.3001,-2.3001,-2.3075,-2.3508,0.0,-2.5028,-2.5995,-2.7082,-2.7749,-2.8235,-2.8587,-2.8587,-2.8587,-2.8587,-2.8716,-2.878,-2.878,-2.8908,-2.9099,-2.9261,-2.9373,-2.9121,-2.8944,-2.9373,-3.0025,-3.0629,-3.0881,-3.1495,-3.2094,-3.2094,-3.2094,-3.2135,-3.2135,-3.2461,-3.288,-3.3352,-3.4001,-3.4736,-3.5665,-3.6038,-3.6409,-3.7027,-3.7165,-3.721,-3.7358,-3.7417,-3.7476,-3.7594,-3.7476,-3.7476,-3.7786,-3.7389,-3.721,-3.7417,-3.7417,-3.7417,-3.7417,-3.7417,-3.7417,-3.7417,-3.727,-3.7165,-3.7165,-3.6968,-3.7188,-3.7872,-3.8292,-3.8634,0.0,2.7681,2.7609,2.7595,2.6891,2.5924,2.5051,2.4171,0.0,2.1246,2.06,2.0144,1.9354,1.8217,1.7499,1.7632,1.6632,1.5228,1.3873,1.1969,0.9543,0.6157,0.4204,0.1604,-0.2119,-0.4423,-0.7676,-1.2571,-1.3678,-1.4859,-1.6468,-1.6878,-1.7115,-1.7196,-1.7204,-1.8069,-1.9934,-2.0333,-2.1431,-2.3075,-2.3075,-2.315,-2.315,-2.315,-2.315,-2.315,-2.3298,-2.3936,-2.4779,-2.58,-2.6705,-2.755,-2.8379,-2.8651,-2.8651,-2.8651,-2.8651,-2.8716,-2.9035,-2.9162,-2.9226,-2.9602,-3.0021,-3.0418,-3.0733,-3.0194,-2.967,-3.0733,-3.1087,-3.1276,-3.1853,-3.215,-3.2302,-3.2302,-3.2342,-3.2468,-3.2499,-3.3246,-3.3966,-3.406,-3.5335,-3.639,-3.6437,-3.699,-3.7417,-3.7417,-3.7417,-3.7417,-3.7476,-3.7476,-3.7594,-3.7886,-3.7653,-3.7727,-3.8335,-3.7786,-3.7476,-3.7476,-3.7476,-3.7476,-3.7476,-3.7476,-3.7476,-3.7476,-3.7476,-3.7417,-3.7417,-3.7417,-3.7749,-3.832,-3.832,-3.8683,2.5317,0.0,2.5513,2.5442,2.4616,2.3672,0.0,0.0,0.0,0.0,0.0,1.8987,1.8693,1.8038,1.7665,1.7713,1.6886,1.5553,1.3438,1.0864,0.8532,0.6776,0.5536,0.3024,-0.1503,-0.4043,-0.7436,-1.2372,-1.4273,-1.5959,-1.7513,-1.7844,-1.8256,-1.8736,-1.8736,-1.9204,-2.011,-2.0807,-2.2048,-2.3677,-2.397,-2.42,-2.4345,-2.4345,-2.4345,-2.4345,-2.4418,-2.4622,-2.5099,-2.6433,-2.7191,-2.7617,-2.8881,-2.9352,-2.9352,-2.9352,-2.9401,-2.9498,-2.9637,-2.9713,-2.9974,-3.0478,-3.0748,-3.0984,-3.189,-3.1592,-3.1013,-3.1534,-3.1946,-3.2256,-3.2437,-3.2726,-3.3027,-3.3027,-3.3081,-3.3222,-3.3724,-3.4014,-3.4494,-3.5622,-3.6153,-3.6548,-3.7085,-3.7306,-3.7476,-3.777,-3.7754,-3.7886,-3.8148,-3.8148,-3.8221,-3.8262,-3.8205,-3.8278,-3.8504,-3.8075,-3.7886,-3.8148,-3.8148,-3.8148,-3.8148,-3.8148,-3.8148,-3.8148,-3.7886,-3.7653,-3.7417,-3.7417,-3.7496,-3.7654,-3.7654,-3.7749,2.4034,2.406,2.4144,2.4131,2.3352,2.2372,2.1604,0.0,0.0,0.0,0.0,1.8783,1.8695,1.8024,1.7507,1.7802,1.6796,1.5123,1.2668,1.0524,0.8798,0.7749,0.6419,0.3818,-0.0529,-0.3838,-0.7807,-1.2831,-1.5403,-1.7342,-1.8656,-1.8895,-1.9222,-1.9706,-2.007,-2.0518,-2.1038,-2.142,-2.2563,-2.4383,-2.4611,-2.4826,-2.5052,-2.5052,-2.5052,-2.5052,-2.5135,-2.5382,-2.5906,-2.7056,-2.7841,-2.8312,-2.9387,-2.9803,-2.9803,-2.9803,-2.9851,-2.996,-2.996,-3.019,-3.0598,-3.1319,-3.1649,-3.2003,-3.2718,-3.2772,-3.2555,-3.2532,-3.2711,-3.2942,-3.2942,-3.3118,-3.3309,-3.3309,-3.353,-3.3862,-3.4209,-3.492,-3.5713,-3.6476,-3.7004,-3.7454,-3.778,-3.7844,-3.796,-3.8343,-3.8479,-3.8701,-3.9098,-3.9226,-3.9262,-3.9262,-3.9262,-3.9315,-3.9368,-3.9139,-3.8887,-3.86,-3.86,-3.86,-3.86,-3.8805,-3.9007,-3.9152,-3.8865,-3.8574,-3.839,-3.839,-3.839,-3.839,-3.839,-3.839,2.3207,2.31,2.3078,2.3078,2.2445,2.1526,2.0691,0.0,0.0,0.0,0.0,1.8993,1.8822,1.8064,1.7505,1.7819,1.6386,1.4455,1.2151,1.0869,0.9758,0.8894,0.721,0.4324,-0.0347,-0.3961,-0.8412,-1.4296,-1.6815,-1.8621,-1.9636,-1.9942,-2.0177,-2.042,-2.1145,-2.1735,-2.2253,-2.2253,-2.322,-2.5087,-2.5087,-2.5229,-2.5382,-2.5382,-2.5382,-2.5382,0.0,0.0,-2.6693,-2.771,-2.8492,-2.9066,-2.9837,-3.0111,-3.0111,-3.0111,-3.0111,-3.0172,-3.0341,-3.0718,-3.1261,-3.2084,-3.2594,-3.2986,-3.3459,-3.3748,-3.3899,-3.3607,-3.345,-3.3398,-3.3398,-3.3398,-3.3398,-3.3398,-3.3921,-3.4482,-3.4594,-3.5879,-3.7022,-3.7135,-3.7858,-3.8448,-3.8448,-3.8448,-3.86,-3.9023,-3.9312,-3.9594,-3.9986,-4.0201,-4.0283,-4.0283,-4.0283,-4.0331,-4.0331,-4.0331,-4.0002,-3.9152,-3.9044,-3.9044,-3.9044,-3.9454,-3.9749,-4.0003,-3.9749,-3.961,-3.961,-3.961,-3.961,-3.961,-3.961,-3.961,2.2347,2.1865,2.1502,2.1815,2.1451,2.0929,2.0353,1.9891,1.9434,0.0,1.8947,1.8803,1.8011,1.8512,1.8594,1.7448,1.5726,1.4216,1.3275,1.1826,1.0549,0.9767,0.8715,0.4755,-0.3679,-0.4944,-0.8913,-1.7751,-1.8635,-1.9195,-2.0108,-2.0566,-2.0876,-2.1051,-2.1842,-2.2563,-2.3294,-2.3599,-2.4337,-2.5535,-2.5535,-2.5606,-2.5828,-2.5828,-2.5828,-2.5828,0.0,-2.6731,-2.6989,-2.8285,-2.8939,-2.9066,-2.9837,-3.0111,-3.0111,-3.0111,-3.028,-3.0628,-3.1392,-3.1664,-3.1931,-3.2992,-3.3427,-3.3598,-3.4168,-3.4399,-3.4399,-3.4349,-3.4151,-3.4,-3.4,-3.4,-3.4,-3.4,-3.4549,-3.5243,-3.5873,-3.674,-3.7578,-3.8044,-3.8463,-3.8711,-3.856,-3.8655,-3.8898,-3.9454,-3.9558,-3.9732,-4.0184,-4.0283,-4.0283,-4.0283,-4.0283,-4.0397,-4.0528,-4.0577,-4.0528,-4.0497,-4.0218,-4.0085,-4.0085,-3.9986,-3.9952,-4.0003,-3.9749,-3.961,-3.961,-3.961,-3.961,-3.961,-3.961,-3.961,2.0974,2.0727,2.0621,2.0478,2.0688,2.0687,2.0232,2.012,1.9968,1.9303,1.9307,1.9114,1.8074,1.7974,1.7521,1.5884,1.4977,1.4055,1.3118,1.2095,1.1327,1.1068,1.1294,0.7739,-0.1649,-0.3236,-0.7791,-1.7666,-1.9792,-2.0769,-2.1108,-2.1262,-2.1492,-2.1655,-2.2622,-2.3338,-2.3707,-2.4405,-2.5135,-2.591,-2.591,-2.5889,-2.5865,-2.5865,-2.577,-2.5615,0.0,-2.6607,-2.699,-2.7913,-2.8535,-2.8981,-2.9318,-2.9493,-2.9552,-2.9552,-2.9653,-2.9925,-3.0921,-3.1243,-3.1455,-3.261,-3.3031,-3.3078,-3.3412,-3.3458,-3.3412,-3.3412,-3.3843,-3.43,-3.43,-3.43,-3.4398,-3.4839,-3.5661,-3.6604,-3.7312,-3.8301,-3.909,-3.9389,-3.9508,-3.956,-3.9525,-3.956,-3.9766,-4.0285,-4.0463,-4.0703,-4.1122,-4.1303,-4.1393,-4.1393,-4.1393,-4.141,-4.1516,-4.1534,-4.1293,-4.0849,-4.0689,-4.0703,-4.0938,-4.0784,-4.0784,-4.1019,-4.0784,-4.0707,-4.0707,-4.0707,-4.0707,-4.0707,-4.0546,-4.0449,1.9876,1.9813,1.9823,1.9575,1.9972,2.0408,2.0097,2.0173,2.0187,1.9535,1.9568,1.9381,1.8167,1.7107,1.6041,1.4887,1.4391,1.3802,1.279,1.2192,1.1929,1.2015,1.3246,0.9769,-0.1143,-0.234,-0.7303,-1.8935,-2.1394,-2.2209,-2.1943,-2.1933,-2.1955,-2.1999,-2.3103,-2.3743,-2.3824,-2.4841,-2.5483,-2.5884,-2.5952,-2.5917,-2.5752,-2.5752,-2.5575,-2.5358,-2.5959,-2.6499,-2.7116,-2.7692,-2.834,-2.8961,-2.8961,-2.9016,-2.9098,-2.9153,-2.9208,-2.9465,-3.0474,-3.088,-3.1128,-3.221,-3.2545,-3.2545,-3.268,-3.2635,-3.2545,-3.2545,-3.3261,-3.4118,-3.4186,-3.4497,-3.489,-3.5463,-3.6672,-3.7835,-3.8355,-3.9494,-4.0331,-4.0331,-4.038,-4.0397,-4.0397,-4.0397,-4.0607,-4.1065,-4.123,-4.1499,-4.1917,-4.2187,-4.2287,-4.2287,-4.2287,-4.2287,-4.2287,-4.2287,-4.1959,-4.122,-4.1174,-4.1311,-4.1666,-4.1463,-4.1507,-4.1874,-4.1675,-4.1604,-4.1604,-4.1604,-4.1604,-4.1604,-4.1408,-4.13,1.941,1.9162,1.8991,1.9383,1.9538,1.9637,1.9875,1.9506,1.9228,1.9524,1.945,1.8975,1.7934,1.6198,1.5032,1.5538,1.4448,1.3203,1.2528,1.2363,1.2277,1.2015,1.3502,0.8577,-0.6548,-0.467,-0.9028,-2.4731,-2.4195,-2.2941,-2.2179,-2.2363,-2.2237,-2.1717,-2.2832,-2.3494,-2.3616,-2.4718,-2.5218,-2.5127,-2.5294,-2.5333,-2.5358,-2.5358,-2.5333,-2.5358,-2.6607,-2.7148,-2.7266,-2.851,-2.9042,-2.9112,-2.9112,-2.9098,-2.9098,-2.9222,-2.9604,-3.0121,-3.0814,-3.1421,-3.1931,-3.25,-3.268,-3.268,-3.268,-3.268,-3.268,-3.268,-3.2762,-3.2904,-3.3365,-3.4497,-3.5529,-3.5578,-3.7053,-3.8422,-3.8472,-3.961,-4.0511,-4.0331,-4.0559,-4.0737,-4.0577,-4.0689,-4.0926,-4.1383,-4.1472,-4.1666,-4.2187,-4.2287,-4.2287,-4.2287,-4.2287,-4.2287,-4.2287,-4.2287,-4.2287,-4.2205,-4.2187,-4.2205,-4.2246,-4.1977,-4.1892,-4.1874,-4.1675,-4.1604,-4.1604,-4.1604,-4.1604,-4.1604,-4.1604,-4.156,1.9249,1.9199,1.9305,1.9389,1.9288,0.0,0.0,1.9198,1.8804,1.9125,1.8825,1.8167,1.7123,1.5123,1.3957,1.4796,1.3451,1.2522,1.313,1.2619,1.2528,1.3542,1.6461,1.1966,-0.4356,-0.2465,-0.7089,-2.3433,-2.4284,-2.3606,-2.2533,-2.296,-2.3073,-2.2559,-2.3729,-2.4268,-2.4041,-2.4762,-2.4906,-2.4546,-2.5086,-2.5191,-2.4919,-2.531,-2.5342,-2.5202,-2.6259,-2.6762,-2.6818,-2.7623,-2.7956,-2.8077,-2.8114,-2.8152,-2.8204,-2.8535,-2.8839,-2.9123,-3.0067,-3.0542,-3.0826,-3.1381,-3.1566,-3.1566,-3.1566,-3.1566,-3.1566,-3.1566,-3.2052,-3.2757,-3.3818,-3.4509,-3.5191,-3.6405,-3.7866,-3.9122,-3.9571,-4.069,-4.1622,-4.1561,-4.1666,-4.1727,-4.1683,-4.1683,-4.177,-4.1959,-4.2002,-4.2044,-4.2287,-4.2287,-4.2287,-4.2287,-4.2287,-4.2287,-4.2287,-4.2287,-4.2287,-4.2287,-4.2287,-4.2287,-4.2287,-4.2187,-4.2145,-4.2145,-4.2061,-4.2037,-4.2037,-4.2037,-4.2037,-4.2037,-4.1849,-4.1805,1.9197,1.9354,1.9515,1.9371,0.0,0.0,1.9427,1.8934,1.8416,1.8585,1.8256,1.7432,1.5951,1.4371,1.3372,1.3711,1.2607,1.21,1.3045,1.2784,1.3178,1.5313,1.6054,1.1109,-0.2246,-0.3149,-0.8797,-2.2935,-2.4321,-2.397,-2.2846,-2.3436,-2.3612,-2.3131,-2.4198,-2.4622,-2.4395,-2.4794,-2.4835,-2.4536,-2.499,-2.4992,-2.4687,-2.5284,-2.5415,-2.516,-2.6136,-2.6616,-2.6654,-2.71,-2.7386,-2.7488,-2.7625,-2.776,-2.7944,-2.8304,-2.8622,-2.898,-2.9777,-3.014,-3.0326,-3.0773,-3.0912,-3.0912,-3.0912,-3.0975,-3.1078,-3.1078,-3.1839,-3.2968,-3.4277,-3.4839,-3.5394,-3.6947,-3.832,-3.9392,-3.9944,-4.0884,-4.1667,-4.1917,-4.1971,-4.2042,-4.2251,-4.2287,-4.2287,-4.2287,-4.2287,-4.2287,-4.2287,-4.2346,-4.2346,-4.2346,-4.2346,-4.2287,-4.2287,-4.2287,-4.2287,-4.2287,-4.2287,-4.2287,-4.2287,-4.2287,-4.2287,-4.2287,-4.2287,-4.2287,-4.2287,-4.2287,-4.2287,-4.2287,-4.2103,-4.2019,1.9241,1.9465,1.9381,1.9557,1.9152,1.8825,1.9222,1.8594,1.7951,1.77,1.77,1.6944,1.4434,1.4008,1.3594,1.2522,1.21,1.2015,1.2015,1.2857,1.4386,1.7006,1.1391,0.4853,-0.1308,-0.7722,-1.5287,-2.4302,-2.4705,-2.4094,-2.3235,-2.3667,-2.3653,-2.31,-2.3872,-2.435,-2.4509,-2.4821,-2.5005,-2.5005,-2.5005,-2.4821,-2.4523,-2.5119,-2.5398,-2.5453,-2.6336,-2.6774,-2.6953,-2.7408,-2.7625,-2.7625,-2.774,-2.8107,-2.8511,-2.8638,-2.9316,-3.0081,-3.0123,-3.0452,-3.0912,-3.0912,-3.0912,-3.0912,-3.0912,-3.114,-3.1397,-3.1397,-3.2286,-3.3473,-3.4606,-3.557,-3.6396,-3.7137,-3.826,-3.9217,-3.9265,-3.974,-4.0316,-4.1142,-4.1303,-4.1497,-4.2167,-4.2269,-4.2269,-4.2269,-4.2287,-4.2287,-4.2287,-4.2405,-4.2503,-4.2503,-4.2387,-4.2287,-4.2287,-4.2287,-4.2287,-4.2287,-4.2287,-4.2287,-4.2287,-4.2287,-4.2287,-4.2287,-4.2287,-4.2287,-4.2287,-4.2287,-4.2287,-4.2287,-4.2287,-4.2287,1.9839,2.009,1.9951,1.9645,1.939,1.9063,1.8922,1.8273,1.7529,1.6698,1.6049,1.5304,1.4461,1.3275,1.2687,1.3626,1.2522,1.2339,1.4678,1.5658,1.6959,1.9182,1.4413,0.7478,-0.1423,-0.7807,-1.5142,-2.4226,-2.463,-2.4029,-2.3059,-2.3533,-2.379,-2.3741,-2.4509,-2.5048,-2.5328,-2.555,-2.5522,-2.5369,-2.5522,-2.5328,-2.4878,-2.5742,-2.6176,-2.6229,-2.7203,-2.764,-2.7675,-2.784,-2.8073,-2.8367,-2.8415,-2.8732,-2.918,-2.954,-2.9848,-3.0166,-3.0576,-3.0838,-3.0992,-3.1072,-3.1112,-3.1112,-3.1112,-3.1351,-3.1603,-3.1603,-3.2615,-3.3916,-3.4817,-3.5776,-3.6735,-3.7534,-3.8447,-3.9149,-3.9149,-3.9691,-4.0233,-4.0426,-4.0441,-4.0513,-4.0745,-4.1228,-4.1626,-4.1647,-4.2171,-4.253,-4.253,-4.2548,-4.2548,-4.2503,-4.2445,-4.2405,-4.2287,-4.2287,-4.2287,-4.2287,-4.2287,-4.2287,-4.2287,-4.2287,-4.2287,-4.2287,-4.2287,-4.2287,-4.2287,-4.2287,-4.2287,-4.2287,-4.2287,-4.2287,1.9618,1.9618,1.9292,1.8904,1.8984,1.9063,1.8754,1.7853,1.6698,1.5455,1.488,1.421,1.3112,1.2681,1.2681,1.3118,1.3093,1.3891,1.6327,1.7505,1.7902,1.7329,1.1115,0.3513,-0.4948,-1.2168,-1.8642,-2.4248,-2.4429,-2.3927,-2.3115,-2.359,-2.4047,-2.4266,-2.4908,-2.5495,-2.5948,-2.5948,-2.5781,-2.5408,-2.5727,-2.5658,-2.5244,-2.6222,-2.6759,-2.6982,-2.7725,-2.8054,-2.8005,-2.8054,-2.822,-2.8431,-2.8716,-2.9058,-2.954,-3.0081,-3.0393,-3.0576,-3.0958,-3.1072,-3.1095,-3.119,-3.1291,-3.1389,-3.1389,-3.175,-3.2127,-3.2127,-3.3349,-3.4766,-3.5232,-3.6335,-3.7408,-3.7791,-3.8276,-3.8618,-3.8654,-3.9031,-3.9409,-3.9696,-3.975,-3.982,-4.0088,-4.0518,-4.0879,-4.0937,-4.162,-4.225,-4.2613,-4.2627,-4.2566,-4.2606,-4.2486,-4.2405,-4.2387,-4.2328,-4.2287,-4.2287,-4.2287,-4.2287,-4.2287,-4.2287,-4.2287,-4.2287,-4.2287,-4.2287,-4.2287,-4.2287,-4.2287,-4.2287,-4.2287,-4.2287,1.8895,1.8807,1.8078,1.7934,1.8487,1.8966,1.8736,1.7261,1.5703,1.4461,1.4287,1.3691,1.1316,1.2492,1.3334,1.1997,1.4058,1.6304,1.7443,1.8294,1.7252,1.3111,0.3678,-0.4751,-1.0389,-1.875,-2.3971,-2.4274,-2.4041,-2.3772,-2.3463,-2.3852,-2.4292,-2.4738,-2.5078,-2.5563,-2.6254,-2.6079,-2.5742,-2.5204,-2.572,-2.5852,-2.5828,-2.6601,-2.7174,-2.7675,-2.8088,-2.8152,-2.8069,-2.8152,-2.8186,-2.8137,-2.8685,-2.9241,-2.9761,-3.0293,-3.0797,-3.119,-3.119,-3.119,-3.119,-3.119,-3.1428,-3.1677,-3.1677,-3.2231,-3.2795,-3.2795,-3.4249,-3.582,-3.582,-3.6997,-3.8158,-3.7969,-3.7952,-3.7934,-3.8002,-3.8018,-3.8218,-3.8958,-3.9067,-3.9283,-3.9876,-4.0056,-4.0128,-4.02,-4.0829,-4.1623,-4.2567,-4.2537,-4.2534,-4.2783,-4.2548,-4.2387,-4.2503,-4.2387,-4.2328,-4.2328,-4.2328,-4.2328,-4.2328,-4.2287,-4.2287,-4.2287,-4.2287,-4.2287,-4.2287,-4.2287,-4.2287,-4.2287,-4.2287,-4.2287,1.9381,1.9618,1.946,1.9231,1.9222,1.9054,1.8327,1.7342,1.6281,1.553,1.4963,1.4391,1.3542,1.4092,1.4816,1.517,1.6919,1.8647,2.0013,1.6553,1.3652,1.3068,0.0578,-0.8811,-1.0847,-1.8447,-2.3611,-2.4408,-2.4099,-2.3891,-2.3772,-2.3747,-2.4118,-2.5063,-2.4558,-2.4761,-2.5716,-2.5612,-2.5422,-2.5204,-2.576,-2.6438,-2.7104,-2.7049,-2.7494,-2.825,-2.8299,-2.8348,-2.8314,-2.8348,-2.8573,-2.8858,-2.8997,-2.9556,-3.0335,-3.0477,-3.0797,-3.119,-3.119,-3.119,-3.119,-3.119,-3.1428,-3.1677,-3.1677,-3.2231,-3.2795,-3.2795,-3.4249,-3.582,-3.582,-3.6997,-3.8192,-3.8158,-3.8158,-3.814,-3.814,-3.8174,-3.8194,-3.8253,-3.8254,-3.8308,-3.8436,-3.8995,-3.9644,-4.0348,-4.0583,-4.098,-4.1849,-4.1902,-4.2118,-4.2711,-4.2745,-4.2667,-4.257,-4.253,-4.253,-4.253,-4.253,-4.249,-4.2463,-4.2346,-4.2287,-4.2287,-4.2287,-4.2287,-4.2287,-4.2287,-4.2287,-4.2287,-4.2287,-4.2287,1.8647,1.8966,1.9054,1.939,1.9381,1.9213,1.8727,1.8238,1.7755,1.6927,1.5771,1.4775,1.4601,1.5396,1.6288,1.7042,1.8674,1.9123,1.6774,1.4044,0.9799,0.2995,-0.5082,-1.2011,-1.6811,-2.0962,-2.3708,-2.4637,-2.4421,-2.4099,-2.3891,-2.4028,-2.4509,-2.5287,-2.5094,-2.5441,-2.6234,-2.6049,-2.5735,-2.5397,-2.6222,-2.7071,-2.7963,-2.8012,-2.8238,-2.8525,-2.8525,-2.8493,-2.8411,-2.8411,-2.8668,-2.912,-2.9348,-2.9865,-3.0518,-3.074,-3.1015,-3.119,-3.119,-3.119,-3.123,-3.1389,-3.1694,-3.2039,-3.2196,-3.2651,-3.3099,-3.3099,-3.4411,-3.582,-3.582,-3.6997,-3.8192,-3.8192,-3.8192,-3.8192,-3.8192,-3.8192,-3.8174,-3.8122,-3.8088,-3.8088,-3.8088,-3.8432,-3.9027,-3.9858,-3.9967,-4.0256,-4.1053,-4.1451,-4.1812,-4.2246,-4.2549,-4.2706,-4.2706,-4.2649,-4.2609,-4.2609,-4.2768,-4.2826,-4.2786,-4.2865,-4.2714,-4.2328,-4.2287,-4.2287,-4.2287,-4.2287,-4.2287,-4.2287,-4.2432,-4.2494,1.8089,1.855,1.8559,1.9381,1.9539,1.946,1.9381,1.9381,1.9134,1.8461,1.696,1.5703,1.5703,1.7008,1.817,1.8581,1.9234,1.7741,1.2196,0.9594,0.3581,-0.8962,-1.1997,-1.6097,-2.3728,-2.4275,-2.4406,-2.5202,-2.4851,-2.4509,-2.4092,-2.4532,-2.4964,-2.5398,-2.5793,-2.6261,-2.6828,-2.6524,-2.6145,-2.5589,-2.6762,-2.7715,-2.8559,-2.9013,-2.9075,-2.8779,-2.8779,-2.8653,-2.8541,-2.8493,-2.87,-2.9074,-2.9483,-2.9968,-3.0435,-3.0918,-3.1151,-3.123,-3.123,-3.1252,-3.1389,-3.1657,-3.2074,-3.2486,-3.2749,-3.3099,-3.3393,-3.3393,-3.4461,-3.5639,-3.5765,-3.6888,-3.8011,-3.8156,-3.8192,-3.8192,-3.8192,-3.8192,-3.8192,-3.8192,-3.8241,-3.8274,-3.8274,-3.8322,-3.8573,-3.9213,-3.9322,-3.9595,-4.0359,-4.0979,-4.1451,-4.1614,-4.2231,-4.2645,-4.2776,-4.281,-4.2826,-4.2826,-4.3087,-4.3212,-4.3212,-4.3487,-4.3263,-4.2555,-4.2494,-4.2494,-4.2494,-4.2472,-4.245,-4.245,-4.2673,-4.2788,1.938,2.073,2.0098,2.0333,2.0411,2.0245,1.9687,1.9529,1.958,1.9584,1.9094,1.8629,1.8629,2.0049,2.1302,2.1384,1.7298,1.3461,1.1468,0.0256,-0.9178,-1.3022,-1.9193,-2.4079,-2.629,-2.6223,-2.6054,-2.6129,-2.5648,-2.519,-2.4857,-2.4945,-2.5147,-2.5563,-2.5649,-2.5806,-2.6126,-2.6075,-2.5879,-2.5617,-2.72,-2.8288,-2.8858,-2.9486,-2.9547,-2.9029,-2.9029,-2.9029,-2.8998,-2.8748,-2.8685,-2.8779,-2.909,-2.9483,-2.9968,-3.0435,-3.0902,-3.1312,-3.1312,-3.1545,-3.1896,-3.1967,-3.2385,-3.2912,-3.2975,-3.3178,-3.3393,-3.3393,-3.4063,-3.4932,-3.5639,-3.6472,-3.7323,-3.8011,-3.8192,-3.8192,-3.8192,-3.8192,-3.8192,-3.8192,-3.8368,-3.8541,-3.8541,-3.873,-3.8923,-3.9034,-3.9034,-3.933,-4.0133,-4.0337,-4.067,-4.1342,-4.2174,-4.2704,-4.2704,-4.3333,-4.3721,-4.3721,-4.3786,-4.3786,-4.3721,-4.3754,-4.3652,-4.3435,-4.33,-4.3266,-4.3266,-4.3142,-4.3087,-4.3087,-4.3123,-4.3123,2.0947,2.2242,2.1538,2.1973,2.2113,2.2113,2.1866,2.1845,2.1975,2.2018,2.2296,2.2286,2.1232,2.2336,2.358,2.3861,1.7484,1.0788,0.5947,-0.505,-1.4648,-2.007,-2.3741,-2.6131,-2.695,-2.6755,-2.6499,-2.6129,-2.5859,-2.5341,-2.4564,-2.507,-2.5522,-2.5728,-2.6303,-2.6652,-2.6754,-2.6703,-2.6891,-2.721,-2.8054,-2.8779,-2.9486,-2.9798,-2.971,-2.9335,-2.9335,-2.9335,-2.9348,-2.9166,-2.9377,-2.9761,-2.9892,-3.0251,-3.0666,-3.0958,-3.1213,-3.1406,-3.1406,-3.1559,-3.1802,-3.2197,-3.2504,-3.2734,-3.3129,-3.3334,-3.3393,-3.3393,-3.3991,-3.4679,-3.5041,-3.5729,-3.6526,-3.7323,-3.7522,-3.7631,-3.8083,-3.8322,-3.8478,-3.8628,-3.873,-3.8799,-3.8799,-3.8924,-3.9008,-3.9008,-3.9008,-3.9138,-3.9482,-3.9927,-4.0325,-4.0677,-4.1475,-4.2161,-4.2674,-4.3027,-4.3417,-4.3875,-4.4065,-4.4184,-4.4154,-4.4318,-4.4402,-4.4308,-4.3781,-4.352,-4.352,-4.3371,-4.3303,-4.3303,-4.3391,-4.3426,1.9001,2.0008,1.9964,2.2783,2.353,2.3636,2.3845,2.4002,2.4135,2.435,2.4933,2.5063,2.3982,2.4567,2.5318,2.5757,1.644,0.7076,0.1253,-0.9792,-1.961,-2.5975,-2.6943,-2.7251,-2.7839,-2.7552,-2.7097,-2.6508,-2.6122,-2.5464,-2.4465,-2.5271,-2.5783,-2.5783,-2.6893,-2.7437,-2.7401,-2.7284,-2.7645,-2.8559,-2.8606,-2.9074,-2.9902,-2.9946,-2.9842,-2.9621,-2.9621,-2.9649,-2.9645,-2.9601,-2.9908,-3.046,-3.0584,-3.0868,-3.1218,-3.1423,-3.1517,-3.1538,-3.1538,-3.1671,-3.1912,-3.2454,-3.2669,-3.2813,-3.3327,-3.3452,-3.3393,-3.3393,-3.3828,-3.4353,-3.4552,-3.5059,-3.5711,-3.649,-3.6689,-3.6993,-3.8089,-3.8465,-3.8688,-3.8952,-3.9063,-3.9136,-3.9136,-3.9171,-3.9242,-3.9242,-3.9242,-3.9242,-3.9242,-3.9738,-4.013,-4.013,-4.0849,-4.1595,-4.2277,-4.2706,-4.3191,-4.3818,-4.4289,-4.453,-4.453,-4.4777,-4.4895,-4.4895,-4.4252,-4.3918,-4.3875,-4.3689,-4.3627,-4.3627,-4.3679,-4.3697,1.0818,1.1659,1.3056,2.1987,2.4034,2.3956,2.4673,2.485,2.5075,2.5824,2.6045,2.6333,2.7095,2.6842,2.6596,2.679,1.2428,0.0876,-0.019,-1.5177,-2.6762,-2.8716,-2.8884,-2.9122,-2.9875,-2.9259,-2.8591,-2.8105,-2.6717,-2.5697,-2.5329,-2.5617,-2.5783,-2.5783,-2.6967,-2.7539,-2.7401,-2.7284,-2.7695,-2.8685,-2.8559,-2.9028,-2.9973,-2.9946,-2.9918,-2.9874,-2.9874,-2.9858,-2.9902,-2.9957,-3.0011,-3.0097,-3.0584,-3.0788,-3.0885,-3.1329,-3.1538,-3.1579,-3.1579,-3.2109,-3.2749,-3.2684,-3.3081,-3.353,-3.3491,-3.3452,-3.3393,-3.3393,-3.3429,-3.3647,-3.4407,-3.4643,-3.4878,-3.5675,-3.5874,-3.6368,-3.8193,-3.8585,-3.8688,-3.8952,-3.9261,-3.9458,-3.9458,-3.967,-3.9848,-3.9848,-3.9848,-3.9848,-3.9848,-3.9905,-3.9924,-3.9924,-4.07,-4.123,-4.1268,-4.2726,-4.3672,-4.371,-4.4435,-4.487,-4.487,-4.4895,-4.4895,-4.4895,-4.487,-4.477,-4.464,-4.4383,-4.4237,-4.4255,-4.4067,-4.3974,0.5094,0.5796,0.6722,1.5463,1.7819,1.9416,2.4737,2.6371,2.6854,2.7149,2.7297,2.751,2.7908,2.7749,2.5585,1.9564,0.8447,-0.1553,-0.7766,-1.9954,-2.8379,-2.8853,-2.9086,-2.9348,-2.9511,-2.8822,-2.7975,-2.71,-2.6308,-2.5594,-2.4856,-2.5466,-2.5783,-2.5783,-2.6967,-2.7575,-2.7539,-2.7795,-2.8222,-2.8842,-2.9166,-2.9589,-3.0017,-3.0076,-3.0033,-2.9902,-3.0087,-3.0284,-3.0493,-3.0716,-3.0861,-3.1044,-3.1257,-3.1295,-3.1334,-3.1596,-3.1726,-3.1746,-3.1966,-3.2231,-3.2537,-3.2894,-3.3129,-3.3298,-3.3481,-3.3452,-3.3393,-3.3393,-3.3393,-3.3465,-3.3755,-3.3828,-3.4027,-3.4842,-3.5575,-3.6454,-3.7839,-3.8692,-3.9279,-3.9532,-3.967,-3.9758,-3.9758,-3.9845,-3.9889,-3.9889,-3.9889,-3.9889,-3.9889,-3.9889,-3.9889,-3.9889,-4.0195,-4.0593,-4.1162,-4.1749,-4.2318,-4.2829,-4.3663,-4.4137,-4.4137,-4.463,-4.4895,-4.4895,-4.4895,-4.4821,-4.4712,-4.4524,-4.4373,-4.4285,-4.4097,-4.4005,-0.0734,-0.0143,0.0352,0.8717,1.0594,1.1847,1.7113,1.841,1.8522,1.8293,1.8516,1.8647,1.833,1.8433,1.7575,1.4675,0.647,-0.2832,-1.227,-2.2562,-2.9079,-2.8907,-2.9263,-2.9304,-2.9,-2.8225,-2.7442,-2.6665,-2.6057,-2.5483,-2.4848,-2.5577,-2.6122,-2.6375,-2.7188,-2.7625,-2.7625,-2.8076,-2.8543,-2.8997,-2.9483,-2.9853,-3.006,-3.0103,-2.9886,-2.9545,-2.9854,-3.0071,-3.0275,-3.0723,-3.0802,-3.0734,-3.0862,-3.0898,-3.0932,-3.1281,-3.142,-3.1491,-3.1968,-3.2249,-3.2504,-3.288,-3.3117,-3.3238,-3.3422,-3.3422,-3.3393,-3.3393,-3.3393,-3.3393,-3.3393,-3.3393,-3.3538,-3.4081,-3.5027,-3.6029,-3.6883,-3.8109,-3.9218,-3.9788,-3.9889,-3.9889,-3.9889,-3.9889,-3.9889,-3.9889,-3.9889,-3.9889,-3.9889,-3.9889,-3.9889,-3.9889,-3.9889,-4.0138,-4.0726,-4.1029,-4.1446,-4.1958,-4.3076,-4.3701,-4.3701,-4.4478,-4.4895,-4.4895,-4.4865,-4.477,-4.4712,-4.457,-4.443,-4.4285,-4.4097,-4.4005,0.0,0.0,0.0,0.2239,0.2864,0.1504,0.1768,0.1052,0.0131,-0.0578,-0.0195,-0.0065,-0.1236,-0.0937,0.2622,1.2158,0.6021,-0.347,-1.3533,-2.3098,-2.9101,-2.9092,-2.9347,-2.9204,-2.8412,-2.7723,-2.7185,-2.6947,-2.6092,-2.5494,-2.5494,-2.6042,-2.6721,-2.7575,-2.7625,-2.7625,-2.7625,-2.8076,-2.8591,-2.912,-2.9454,-2.981,-3.0189,-3.0044,-2.9524,-2.8832,-2.9132,-2.9206,-2.9173,-2.9892,-2.9731,-2.9051,-2.9386,-2.9506,-2.9592,-3.0368,-3.0662,-3.0801,-3.1509,-3.2162,-3.2666,-3.2619,-3.2988,-3.3481,-3.3422,-3.3393,-3.3393,-3.3393,-3.3393,-3.3393,-3.3393,-3.3393,-3.3393,-3.3393,-3.4207,-3.5046,-3.5342,-3.6838,-3.8484,-3.9659,-3.987,-3.9889,-3.9889,-3.9889,-3.9889,-3.9889,-3.9889,-3.9889,-3.9889,-3.9889,-3.9889,-3.9889,-3.9889,-3.9889,-3.9889,-4.0688,-4.1162,-4.1162,-4.2716,-4.3644,-4.3663,-4.444,-4.4876,-4.4895,-4.477,-4.4693,-4.4712,-4.4551,-4.443,-4.4285,-4.4097,-4.4005,-1.5211,0.0,0.0,0.0,0.0,0.0,-0.0196,0.0519,0.0,-0.0446,-0.0572,-0.0696,-0.0755,-0.0755,-0.2026,-0.6018,-0.9144,-1.4316,-2.3651,-2.7339,-2.9025,-2.8782,-2.8455,-2.8062,-2.7666,-2.6969,-2.6475,0.0,-2.6032,-2.592,-2.592,-2.6443,-2.7019,-2.7575,-2.7625,-2.7625,-2.7625,-2.8463,-2.8935,-2.912,-2.9897,-3.03,-3.03,-2.9648,-2.9195,-2.8916,-2.8631,-2.8285,-2.8027,-2.9008,-2.9399,-2.9351,-2.9472,-2.9506,-2.9541,-2.9748,-3.0005,-3.0256,-3.0709,-3.1449,-3.2218,-3.2401,-3.2933,-3.3481,-3.3422,-3.3393,-3.3393,-3.3393,-3.3393,-3.3393,-3.3393,-3.3393,-3.3393,-3.3393,-3.3918,-3.458,-3.5256,-3.61,-3.7194,-3.8755,-3.9513,-3.9889,-3.9889,-3.9889,-3.9889,-3.9889,-3.9889,-3.9889,-3.9889,-3.9889,-3.9889,-3.9889,-3.9889,-3.9889,-3.9889,-4.0116,-4.0271,-4.0271,-4.1294,-4.2147,-4.2754,-4.3587,-4.4308,-4.4895,-4.4846,-4.4815,-4.4712,-4.4468,-4.4344,-4.4285,-4.4097,-4.4005,-1.7587,-1.842,-1.8284,-1.4316,0.0,0.0,-1.0447,-1.0267,-1.1075,-1.1926,-1.2104,-1.2202,-1.2719,-1.268,-1.4531,-2.0421,-2.1616,-2.3453,-2.8284,-2.8979,-2.8808,-2.8223,-2.7824,-2.7403,-2.6911,-2.65,-2.6165,-2.6002,-2.6136,-2.639,-2.6707,-2.7019,-2.7342,-2.774,-2.7725,-2.7675,-2.7675,-2.8415,-2.8889,-2.912,-2.9837,-3.011,-2.9914,-2.9346,-2.8715,-2.8062,-2.7702,-2.7349,-2.7105,-2.7702,-2.8203,-2.8575,-2.8575,-2.8575,-2.8627,-2.8937,-2.9223,-2.9579,-3.0115,-3.0796,-3.152,-3.2025,-3.2534,-3.2998,-3.3302,-3.3393,-3.3393,-3.3393,-3.3393,-3.3393,-3.3393,-3.3393,-3.3393,-3.3393,-3.3726,-3.4203,-3.4773,-3.5496,-3.6455,-3.7883,-3.8831,-3.9399,-3.9399,-3.9683,-3.9889,-3.9889,-3.9889,-3.9889,-3.9889,-3.9889,-3.9889,-3.9889,-3.9889,-3.9889,-3.9889,-3.9889,-3.9889,-3.9889,-4.0726,-4.1408,-4.1882,-4.2716,-4.3549,-4.4383,-4.4354,-4.4424,-4.4605,-4.4524,-4.443,-4.4285,-4.4097,-4.4005,-1.6469,-1.6863,-1.7562,-1.8564,-2.0282,0.0,-2.3548,-2.5042,-2.6445,-2.7881,-2.7842,-2.8012,-2.958,-2.9435,-2.9401,-3.0447,-3.051,-3.0084,-2.9092,-2.889,-2.851,-2.7605,-2.7417,-2.7064,-2.6343,-2.6179,-2.6111,-2.6165,-2.6457,-2.693,-2.7625,-2.7675,-2.779,-2.8005,-2.7855,-2.779,-2.779,-2.8174,-2.8638,-2.912,-2.9617,-2.9668,-2.9304,-2.9083,-2.8216,-2.6824,-2.6643,-2.6524,-2.6418,-2.6418,-2.6759,-2.7299,-2.7299,-2.7299,-2.7368,-2.804,-2.8456,-2.882,-2.954,-3.013,-3.0736,-3.1456,-3.1849,-3.2216,-3.3013,-3.3266,-3.3284,-3.3375,-3.3393,-3.3393,-3.3393,-3.3393,-3.3393,-3.3393,-3.3633,-3.3895,-3.4148,-3.4992,-3.597,-3.6953,-3.7883,-3.8605,-3.8681,-3.9286,-3.9816,-3.9889,-3.9889,-3.9889,-3.9889,-3.9889,-3.9889,-3.9889,-3.9889,-3.9889,-3.9889,-3.9889,-3.9889,-3.9889,-4.0631,-4.1105,-4.12,-4.1901,-4.2678,-4.3549,-4.3523,-4.3849,-4.4524,-4.4659,-4.4551,-4.4285,-4.4116,-4.4036,-1.792,-1.8382,-1.9076,-2.0014,-2.0887,0.0,-2.3614,-2.4826,-2.5877,-2.7165,-2.7644,-2.809,-2.9002,-2.8903,-2.9058,-3.0507,-3.0013,-2.9402,-2.9331,-2.8857,-2.8197,-2.741,-2.688,-2.6415,-2.6179,-2.6111,-2.6218,-2.6418,-2.71,-2.7675,-2.8073,-2.8088,-2.8039,-2.802,-2.7855,-2.779,-2.779,-2.8574,-2.8982,-2.912,-2.9984,-3.0005,-2.9376,-2.8655,-2.7797,-2.6907,-2.6146,-2.6049,-2.6418,-2.6418,-2.6759,-2.7299,-2.7299,-2.7299,-2.7316,-2.7454,-2.7809,-2.8269,-2.8429,-2.9188,-3.0173,-3.0319,-3.0775,-3.1365,-3.218,-3.2433,-3.256,-3.3212,-3.3393,-3.3393,-3.3393,-3.3393,-3.3393,-3.3393,-3.378,-3.4148,-3.4197,-3.4655,-3.5153,-3.5363,-3.6613,-3.7864,-3.8586,-3.8812,-3.9153,-3.9816,-3.9889,-3.9889,-3.9889,-3.9889,-3.9889,-3.9889,-3.9889,-3.9889,-3.9889,-3.9889,-3.9889,-3.9889,-4.006,-4.0479,-4.1181,-4.1351,-4.1825,-4.264,-4.3317,-4.4051,-4.4821,-4.4738,-4.4551,-4.4285,-4.4255,-4.4147,-1.9213,-1.9756,-2.0391,-2.0934,-2.1548,0.0,0.0,-2.4648,-2.5508,-2.6731,-2.7284,-2.7868,-2.8661,-2.8675,-2.8848,-2.9743,-2.9354,-2.8881,-2.8526,-2.832,-2.7926,-2.7072,-2.6847,-2.6698,-2.651,-2.6563,-2.6774,-2.71,-2.7524,-2.794,-2.8299,-2.8299,-2.825,-2.8217,-2.8039,-2.8073,-2.8238,-2.8606,-2.9028,-2.9438,-2.9941,-2.9724,-2.8887,-2.8366,-2.7531,-2.6421,-2.6045,-2.6082,-2.6418,-2.6556,-2.6892,-2.7299,-2.7299,-2.7299,-2.7299,-2.7299,-2.7539,-2.7926,-2.8047,-2.8559,-2.9297,-2.9842,-3.0192,-3.0622,-3.1818,-3.2488,-3.2886,-3.3284,-3.3393,-3.3393,-3.3393,-3.3509,-3.3605,-3.3605,-3.3895,-3.4245,-3.4363,-3.4586,-3.4791,-3.4889,-3.5571,-3.6424,-3.7296,-3.8169,-3.8831,-3.9248,-3.9646,-3.9889,-3.9889,-3.9889,-3.9889,-3.9889,-3.9889,-3.9889,-3.9889,-3.9889,-3.9889,-3.9889,-3.9889,-4.0097,-4.0536,-4.0623,-4.1064,-4.1882,-4.3084,-4.391,-4.4308,-4.4632,-4.4712,-4.4496,-4.443,-4.4296,-2.0001,-2.0547,-2.1088,-2.1318,-2.1928,-2.2681,0.0,0.0,0.0,-2.6094,-2.6645,-2.7175,-2.8183,-2.822,-2.8248,-2.8759,-2.8598,-2.8207,-2.7578,-2.7646,-2.753,-2.6794,-2.6959,-2.7049,-2.6864,-2.6953,-2.724,-2.774,-2.779,-2.8005,-2.8363,-2.8411,-2.8411,-2.8411,-2.8284,-2.835,-2.8685,-2.8654,-2.9028,-2.9793,-2.9897,-2.9419,-2.8412,-2.8262,-2.7356,-2.5917,-2.6099,-2.626,-2.6418,-2.6674,-2.7006,-2.7299,-2.7299,-2.7299,-2.7299,-2.7299,-2.7465,-2.7742,-2.7992,-2.8228,-2.8531,-2.9482,-2.9792,-3.0087,-3.1528,-3.2524,-3.3194,-3.3357,-3.3393,-3.3393,-3.3452,-3.3633,-3.3815,-3.3868,-3.4074,-3.434,-3.4539,-3.4626,-3.471,-3.487,-3.4908,-3.5173,-3.6045,-3.7315,-3.834,-3.8662,-3.9248,-3.9721,-3.987,-3.9889,-3.9889,-3.9889,-3.9889,-3.9889,-3.9889,-3.9914,-3.9935,-3.9935,-3.9956,-3.9977,-3.9977,-4.0081,-4.054,-4.1418,-4.2645,-4.3453,-4.3798,-4.4421,-4.4749,-4.4745,-4.4605,-4.4468,-1.9539,-1.9844,-2.0391,-2.0867,-2.1318,-2.1842,-2.2692,0.0,-2.3813,-2.4778,0.0,-2.5918,-2.7124,0.0,0.0,-2.8241,-2.7412,-2.679,-2.7254,-2.7079,-2.6808,-2.6736,-2.6736,-2.6736,-2.6721,-2.6864,-2.7122,-2.7575,-2.774,-2.8005,-2.8363,-2.8411,-2.8411,-2.8411,-2.8284,-2.835,-2.8685,-2.9044,-2.9425,-2.981,-3.0199,-2.9724,-2.8412,-2.8262,-2.7356,-2.5917,-2.6099,-2.626,-2.6418,-2.6674,-2.7006,-2.7299,-2.7299,-2.7299,-2.7299,-2.7299,-2.7465,-2.7742,-2.7992,-2.8228,-2.8458,-2.8821,-2.933,-2.9979,-3.0858,-3.1691,-3.2488,-3.3194,-3.3393,-3.3452,-3.3698,-3.378,-3.3842,-3.4099,-3.4363,-3.4561,-3.4583,-3.4751,-3.487,-3.4908,-3.4908,-3.5173,-3.6045,-3.6348,-3.6973,-3.8491,-3.8774,-3.9077,-3.9816,-3.9889,-3.9889,-3.9889,-3.9889,-3.9889,-3.9889,-4.0,-4.0061,-4.0061,-4.0176,-4.0266,-4.0266,-4.0266,-4.0705,-4.1568,-4.1761,-4.2565,-4.4059,-4.4154,-4.4414,-4.4868,-4.4726,-4.4674,-2.0566,-2.0944,-2.1405,-2.1711,-2.209,-2.2467,-2.2916,-2.3446,-2.4105,-2.5028,0.0,0.0,0.0,0.0,0.0,0.0,-2.7598,-2.7126,-2.7239,-2.7173,-2.7078,-2.687,-2.7026,-2.7218,-2.7423,-2.7408,-2.756,-2.779,-2.794,-2.8088,-2.8284,-2.8348,-2.8411,-2.8411,-2.8348,-2.8605,-2.9182,-2.9335,-2.9694,-3.0199,-2.9955,-2.935,-2.8395,-2.7888,-2.7036,-2.5954,-2.6154,-2.6365,-2.6521,-2.6725,-2.7006,-2.7299,-2.7299,-2.7299,-2.7299,-2.7299,-2.7465,-2.7742,-2.7992,-2.8228,-2.844,-2.8637,-2.9207,-2.9844,-3.0188,-3.1184,-3.227,-3.2614,-3.3049,-3.3452,-3.3726,-3.3921,-3.4099,-3.4381,-3.4626,-3.4771,-3.4771,-3.485,-3.4908,-3.4908,-3.4908,-3.5022,-3.5382,-3.5874,-3.6424,-3.7125,-3.8073,-3.8812,-3.9153,-3.9608,-3.9889,-3.9889,-3.9889,-3.9889,-3.9889,-3.9956,-4.002,-4.0101,-4.023,-4.0315,-4.0415,-4.0351,-4.0507,-4.0957,-4.1372,-4.195,-4.264,-4.3636,-4.425,-4.4576,-4.493,-4.5049,-2.1721,-2.1949,-2.2111,-2.2478,-2.2852,-2.3298,-2.3582,-2.4105,-2.4754,-2.5511,-2.6264,0.0,0.0,0.0,-2.7671,-2.7521,0.0,-2.7072,-2.6808,-2.7011,-2.7181,-2.7196,-2.735,-2.7554,-2.7705,-2.7655,-2.7655,-2.7855,-2.7955,-2.8039,-2.8137,-2.825,-2.8348,-2.8348,-2.8396,-2.8763,-2.9515,-2.9515,-2.987,-3.0551,-2.9764,-2.9052,-2.8395,-2.7649,-2.6829,-2.601,-2.6225,-2.64,-2.6607,-2.6758,-2.7006,-2.7299,-2.7299,-2.7299,-2.733,-2.739,-2.7509,-2.7742,-2.812,-2.8352,-2.8518,-2.8587,-2.9011,-2.95,-2.9717,-3.0767,-3.1908,-3.2144,-3.2817,-3.3577,-3.3842,-3.4124,-3.4363,-3.4626,-3.4772,-3.4908,-3.4908,-3.4908,-3.4908,-3.4908,-3.4908,-3.4908,-3.4908,-3.542,-3.5912,-3.6159,-3.7239,-3.8188,-3.8643,-3.921,-3.9665,-3.987,-3.9889,-3.9889,-3.9889,-3.9935,-4.002,-4.0213,-4.0353,-4.0466,-4.0574,-4.05,-4.0481,-4.0574,-4.112,-4.1495,-4.1706,-4.2936,-4.3814,-4.4395,-4.509,-4.5362,-2.2596,-2.2231,-2.2035,-2.2777,-2.3298,-2.374,-2.4504,-2.4933,-2.5382,-2.5828,-2.6107,-2.6264,-2.6387,-2.6216,-2.6012,-2.5727,-2.5711,0.0,0.0,-2.619,-2.6826,-2.769,-2.769,-2.7437,-2.7055,-2.7003,-2.7196,-2.7575,-2.7488,-2.7604,-2.8005,-2.8137,-2.8186,-2.8186,-2.8348,-2.8795,-2.9589,-2.9515,-2.9913,-3.0692,-2.9805,-2.9052,-2.8395,-2.7649,-2.6829,-2.601,-2.6225,-2.64,-2.6607,-2.6758,-2.7006,-2.7299,-2.7299,-2.7299,-2.7313,-2.76,-2.7701,-2.7771,-2.8378,-2.8669,-2.8761,-2.8637,-2.8605,-2.8793,-2.9554,-3.0369,-3.1184,-3.1981,-3.2985,-3.3842,-3.4124,-3.4404,-3.4626,-3.4831,-3.4908,-3.4908,-3.4908,-3.4908,-3.4908,-3.4908,-3.4908,-3.4908,-3.4908,-3.4927,-3.523,-3.6064,-3.6234,-3.686,-3.8491,-3.8738,-3.9039,-3.9835,-3.9889,-3.9889,-3.9889,-4.002,-4.0213,-4.0462,-4.0668,-4.079,-4.079,-4.079,-4.079,-4.079,-4.081,-4.1203,-4.1996,-4.2035,-4.2943,-4.4606,-4.5145,-4.5456,0.0,0.0,-2.3243,-2.3621,-2.3841,-2.3986,-2.4264,-2.4636,-2.5075,-2.5581,-2.6195,-2.6646,-2.6687,-2.668,-2.6579,-2.6332,-2.6064,-2.6056,0.0,-2.663,-2.7011,-2.7248,-2.7144,-2.713,-2.7248,-2.7041,-2.7041,-2.7437,-2.7488,-2.764,-2.7855,-2.7989,-2.8103,-2.8186,-2.8235,-2.8685,-2.9572,-2.9544,-2.9897,-3.0675,-2.938,-2.8605,-2.834,-2.7131,-2.6399,-2.6151,-2.6241,-2.6435,-2.6657,-2.6741,-2.7006,-2.7299,-2.7299,-2.7299,-2.7313,-2.76,-2.7829,-2.8037,-2.8551,-2.8761,-2.8761,-2.8637,-2.8587,-2.8641,-2.892,-2.9934,-3.1057,-3.1329,-3.2428,-3.3633,-3.4074,-3.4269,-3.4431,-3.4812,-3.4908,-3.4908,-3.4908,-3.4908,-3.4908,-3.4908,-3.4908,-3.4908,-3.4908,-3.4908,-3.5003,-3.5306,-3.5817,-3.6386,-3.6955,-3.7997,-3.8793,-3.9077,-3.9675,-4.004,-4.004,-4.025,-4.0399,-4.0477,-4.07,-4.079,-4.079,-4.079,-4.079,-4.079,-4.079,-4.0926,-4.1216,-4.1738,-4.2299,-4.2918,-4.4245,-4.5175,-2.3963,-2.3963,0.0,-2.4409,-2.4564,0.0,-2.4921,-2.5134,-2.5499,-2.6,-2.6388,-2.6618,-2.6643,-2.6742,-2.6665,-2.6456,-2.6297,-2.6312,0.0,-2.6982,-2.7218,-2.7003,-2.7003,-2.7093,-2.7299,-2.7078,-2.7093,-2.7401,-2.7488,-2.759,-2.764,-2.7855,-2.8005,-2.8137,-2.8186,-2.859,-2.9393,-2.9499,-2.987,-3.051,-2.9108,-2.8412,-2.8362,-2.6882,-2.6274,-2.6399,-2.6383,-2.6607,-2.6989,-2.6923,-2.707,-2.7376,-2.7313,-2.7299,-2.7345,-2.7701,-2.8093,-2.8464,-2.8718,-2.8785,-2.8761,-2.8637,-2.8587,-2.8587,-2.8587,-2.9518,-3.0568,-3.0568,-3.1792,-3.3223,-3.3654,-3.4046,-3.4431,-3.4812,-3.4908,-3.4908,-3.4908,-3.4908,-3.4908,-3.4908,-3.4908,-3.4908,-3.4908,-3.4908,-3.4908,-3.4908,-3.5382,-3.5875,-3.6236,-3.7204,-3.8117,-3.8765,-3.9376,-3.9871,-4.0138,-4.0367,-4.0511,-4.0511,-4.07,-4.079,-4.079,-4.079,-4.079,-4.079,-4.079,-4.079,-4.079,-4.1313,-4.1719,-4.2028,-4.315,-4.4291]}]]